[[{"header":{"parameterUnit":"m.s-1","parameterCategory":1,"la1":31.0,"la2":29.5877,"lo1":-88.7671,"lo2":-86.6584,"dy":0.0162,"dx":0.0185,"nx":115,"ny":88,"refTime":"2023-03-18T06:00:00:Z","depth":0,"parameterNumber":2,"parameterNumberName":"U-component_of_WINDS"},"data":[0.0,0.0,0.0,0.0,0.0,0.0,0.0,0.0,0.0,0.0,0.0,0.0,0.0,0.0,0.0,0.0,0.0,0.0,0.0,0.0,0.0,0.0,0.0,0.0,0.0,0.0,0.0,0.0,0.0,0.0,0.0,0.0,0.0,0.0,0.0,0.0,0.0,0.0,0.0,0.0,0.0,0.0,0.0,0.0,0.0,0.0,0.0,0.0,0.0,0.0,0.0,0.0,0.0,0.0,0.0,0.0,0.0,0.0,0.0,0.0,0.0,0.0,0.0,0.0,0.0,0.0,0.0,0.0,0.0,0.0,0.0,0.0,0.0,0.0,0.0,0.0,0.0,0.0,0.0,0.0,0.0,0.0,0.0,0.0,0.0,0.0,0.0,0.0,0.0,0.0,0.0,0.0,0.0,0.0,0.0,0.0,0.0,0.0,0.0,0.0,0.0,0.0,0.0,0.0,0.0,0.0,0.0,0.0,0.0,0.0,0.0,0.0,0.0,0.0,0.0,0.0,0.0,0.0,0.0,0.0,0.0,0.0,0.0,0.0,0.0,0.0,0.0,0.0,0.0,0.0,0.0,0.0,0.0,0.0,0.0,0.0,0.0,0.0,0.0,0.0,0.0,0.0,0.0,0.0,0.0,0.0,0.0,0.0,0.0,0.0,0.0,0.0,0.0,0.0,0.0,0.0,0.0,0.0,0.0,0.0,0.0,0.0,0.0,0.0,0.0,0.0,0.0,0.0,0.0,0.0,0.0,0.0,0.0,0.0,0.0,0.0,0.0,0.0,0.0,0.0,0.0,0.0,0.0,0.0,0.0,0.0,0.0,0.0,0.0,0.0,0.0,0.0,0.0,0.0,0.0,0.0,0.0,0.0,0.0,0.0,0.0,0.0,0.0,0.0,0.0,0.0,0.0,0.0,0.0,0.0,0.0,0.0,0.0,0.0,0.0,0.0,0.0,0.0,0.0,0.0,0.0,0.0,0.0,0.0,0.0,0.0,0.0,0.0,0.0,0.0,0.0,0.0,0.0,0.0,0.0,0.0,0.0,0.0,0.0,0.0,0.0,0.0,0.0,0.0,0.0,0.0,0.0,0.0,0.0,0.0,0.0,0.0,0.0,0.0,0.0,0.0,0.0,0.0,0.0,0.0,0.0,0.0,0.0,0.0,0.0,0.0,0.0,0.0,0.0,0.0,0.0,0.0,0.0,0.0,0.0,0.0,0.0,0.0,0.0,0.0,0.0,0.0,0.0,0.0,0.0,0.0,0.0,0.0,0.0,0.0,0.0,0.0,0.0,0.0,0.0,0.0,0.0,0.0,0.0,0.0,0.0,0.0,0.0,0.0,0.0,0.0,0.0,0.0,0.0,0.0,0.0,0.0,0.0,0.0,0.0,0.0,0.0,0.0,0.0,0.0,0.0,0.0,0.0,0.0,0.0,0.0,0.0,0.0,0.0,0.0,0.0,0.0,0.0,0.0,0.0,0.0,0.0,0.0,0.0,0.0,0.0,0.0,0.0,0.0,0.0,0.0,0.0,0.0,0.0,0.0,0.0,0.0,0.0,0.0,0.0,0.0,0.0,0.0,0.0,0.0,0.0,0.0,0.0,0.0,0.0,0.0,0.0,0.0,0.0,0.0,0.0,0.0,0.0,0.0,0.0,0.0,0.0,0.0,0.0,0.0,0.0,0.0,0.0,0.0,0.0,0.0,0.0,0.0,0.0,0.0,0.0,0.0,0.0,0.0,0.0,0.0,0.0,0.0,0.0,0.0,0.0,0.0,0.0,0.0,0.0,0.0,0.0,0.0,0.0,0.0,0.0,0.0,0.0,0.0,0.0,0.0,0.0,0.0,0.0,0.0,0.0,0.0,0.0,0.0,0.0,0.0,0.0,0.0,0.0,0.0,0.0,0.0,0.0,0.0,0.0,0.0,0.0,0.0,0.0,0.0,0.0,0.0,0.0,0.0,0.0,0.0,0.0,0.0,0.0,0.0,0.0,0.0,0.0,0.0,0.0,0.0,0.0,0.0,0.0,0.0,0.0,0.0,0.0,0.0,0.0,0.0,0.0,0.0,0.0,0.0,0.0,0.0,0.0,0.0,0.0,0.0,0.0,0.0,0.0,0.0,0.0,0.0,0.0,0.0,0.0,0.0,0.0,0.0,0.0,0.0,0.0,0.0,0.0,0.0,0.0,0.0,0.0,0.0,0.0,0.0,0.0,0.0,0.0,0.0,0.0,0.0,0.0,0.0,0.0,0.0,0.0,0.0,0.0,0.0,0.0,0.0,0.0,0.0,0.0,0.0,0.0,0.0,0.0,0.0,0.0,0.0,0.0,0.0,0.0,0.0,0.0,0.0,0.0,0.0,0.0,0.0,0.0,0.0,0.0,0.0,0.0,0.0,0.0,0.0,0.0,0.0,0.0,0.0,0.0,0.0,0.0,0.0,0.0,0.0,0.0,0.0,0.0,0.0,0.0,0.0,0.0,0.0,0.0,0.0,0.0,0.0,0.0,0.0,0.0,0.0,0.0,0.0,0.0,0.0,0.0,0.0,0.0,0.0,0.0,0.0,0.0,0.0,0.0,0.0,0.0,0.0,0.0,0.0,0.0,0.0,0.0,0.0,0.0,0.0,0.0,0.0,0.0,0.0,0.0,0.0,0.0,0.0,0.0,0.0,0.0,0.0,0.0,0.0,0.0,0.0,0.0,0.0,0.0,0.0,0.0,0.0,0.0,0.0,0.0,0.0,0.0,0.0,0.0,0.0,0.0,0.0,0.0,0.0,0.0,0.0,0.0,0.0,0.0,0.0,0.0,0.0,0.0,0.0,0.0,0.0,0.0,0.0,0.0,0.0,0.0,0.0,0.0,0.0,0.0,0.0,0.0,0.0,0.0,0.0,0.0,0.0,0.0,0.0,0.0,0.0,0.0,0.0,0.0,0.0,0.0,0.0,0.0,0.0,0.0,0.0,0.0,0.0,0.0,0.0,0.0,0.0,0.0,0.0,0.0,0.0,0.0,0.0,0.0,0.0,0.0,0.0,0.0,0.0,0.0,0.0,0.0,0.0,0.0,0.0,0.0,0.0,0.0,0.0,0.0,0.0,0.0,0.0,0.0,0.0,0.0,0.0,0.0,0.0,0.0,0.0,0.0,0.0,0.0,0.0,0.0,0.0,0.0,0.0,0.0,0.0,0.0,0.0,0.0,0.0,0.0,0.0,0.0,0.0,0.0,0.0,0.0,0.0,0.0,0.0,0.0,0.0,0.0,0.0,0.0,0.0,0.0,0.0,0.0,0.0,0.0,0.0,0.0,0.0,0.0,0.0,0.0,0.0,0.0,0.0,0.0,0.0,0.0,0.0,0.0,0.0,0.0,0.0,0.0,0.0,0.0,0.0,0.0,0.0,0.0,0.0,0.0,0.0,0.0,0.0,0.0,0.0,0.0,0.0,0.0,0.0,0.0,0.0,0.0,0.0,0.0,0.0,0.0,0.0,0.0,0.0,0.0,0.0,0.0,0.0,0.0,0.0,0.0,0.0,0.0,0.0,0.0,0.0,0.0,0.0,0.0,0.0,0.0,0.0,0.0,0.0,0.0,0.0,0.0,0.0,0.0,0.0,0.0,0.0,0.0,0.0,0.0,0.0,0.0,0.0,0.0,0.0,0.0,0.0,0.0,0.0,0.0,0.0,0.0,0.0,0.0,0.0,0.0,0.0,0.0,0.0,0.0,0.0,0.0,0.0,0.0,0.0,0.0,0.0,0.0,0.0,0.0,0.0,0.0,0.0,0.0,0.0,0.0,0.0,0.0,0.0,0.0,0.0,0.0,0.0,0.0,0.0,0.0,0.0,0.0,0.0,0.0,0.0,0.0,0.0,0.0,0.0,0.0,0.0,0.0,0.0,0.0,0.0,0.0,0.0,0.0,0.0,0.0,0.0,0.0,0.0,0.0,0.0,0.0,0.0,0.0,0.0,0.0,0.0,0.0,0.0,0.0,0.0,0.0,0.0,0.0,0.0,0.0,0.0,0.0,0.0,0.0,0.0,0.0,0.0,0.0,0.0,0.0,0.0,0.0,0.0,0.0,0.0,0.0,0.0,0.0,0.0,0.0,0.0,0.0,0.0,0.0,0.0,0.0,0.0,0.0,0.0,0.0,0.0,0.0,0.0,0.0,0.0,0.0,0.0,0.0,0.0,0.0,0.0,0.0,0.0,0.0,0.0,0.0,0.0,0.0,0.0,0.0,0.0,0.0,0.0,0.0,0.0,0.0,0.0,0.0,0.0,-2.9816,0.0,0.0,0.0,0.0,0.0,0.0,0.0,0.0,0.0,0.0,0.0,0.0,0.0,0.0,0.0,0.0,0.0,0.0,0.0,0.0,0.0,0.0,0.0,0.0,0.0,0.0,0.0,0.0,0.0,0.0,0.0,0.0,0.0,0.0,0.0,0.0,0.0,0.0,0.0,0.0,0.0,0.0,0.0,0.0,0.0,0.0,0.0,0.0,0.0,0.0,0.0,0.0,0.0,0.0,0.0,0.0,0.0,0.0,0.0,0.0,0.0,0.0,0.0,0.0,0.0,0.0,0.0,0.0,0.0,0.0,0.0,0.0,0.0,0.0,0.0,0.0,0.0,0.0,0.0,0.0,0.0,0.0,0.0,0.0,0.0,0.0,0.0,0.0,0.0,0.0,0.0,0.0,0.0,0.0,0.0,0.0,0.0,0.0,0.0,0.0,0.0,0.0,0.0,0.0,0.0,0.0,0.0,0.0,0.0,0.0,-2.9701,-2.9701,-2.9699,-2.9717,-2.9754,0.0,0.0,0.0,0.0,0.0,0.0,0.0,0.0,0.0,0.0,0.0,0.0,0.0,0.0,0.0,0.0,0.0,0.0,0.0,0.0,0.0,0.0,0.0,0.0,0.0,0.0,0.0,0.0,0.0,0.0,0.0,0.0,0.0,0.0,0.0,0.0,0.0,0.0,0.0,0.0,0.0,0.0,0.0,0.0,0.0,0.0,0.0,0.0,0.0,0.0,0.0,0.0,0.0,0.0,0.0,0.0,0.0,0.0,0.0,0.0,0.0,0.0,0.0,0.0,0.0,0.0,0.0,0.0,0.0,0.0,0.0,0.0,0.0,0.0,0.0,0.0,0.0,0.0,0.0,0.0,0.0,0.0,0.0,0.0,0.0,0.0,0.0,0.0,0.0,0.0,0.0,0.0,0.0,0.0,0.0,0.0,0.0,0.0,0.0,0.0,0.0,0.0,0.0,0.0,0.0,0.0,0.0,0.0,0.0,0.0,0.0,0.0,-2.9691,-2.9699,-2.9708,0.0,0.0,0.0,0.0,0.0,0.0,0.0,0.0,0.0,0.0,0.0,0.0,0.0,0.0,0.0,0.0,0.0,0.0,0.0,0.0,0.0,0.0,0.0,0.0,0.0,0.0,0.0,0.0,0.0,0.0,0.0,0.0,0.0,0.0,0.0,0.0,0.0,0.0,0.0,0.0,0.0,0.0,0.0,0.0,0.0,0.0,0.0,0.0,0.0,0.0,0.0,0.0,0.0,0.0,0.0,0.0,0.0,0.0,0.0,0.0,0.0,0.0,0.0,0.0,0.0,0.0,0.0,0.0,0.0,0.0,0.0,0.0,0.0,0.0,0.0,0.0,0.0,0.0,0.0,0.0,0.0,0.0,0.0,0.0,0.0,0.0,0.0,0.0,0.0,0.0,0.0,0.0,0.0,0.0,0.0,0.0,0.0,0.0,0.0,0.0,0.0,0.0,0.0,0.0,0.0,0.0,0.0,0.0,0.0,0.0,-2.9701,-2.9701,-2.9692,0.0,-2.9699,0.0,0.0,0.0,0.0,0.0,0.0,0.0,0.0,0.0,0.0,0.0,0.0,0.0,0.0,0.0,0.0,0.0,0.0,0.0,0.0,0.0,0.0,0.0,0.0,0.0,0.0,0.0,0.0,0.0,0.0,0.0,0.0,0.0,0.0,0.0,0.0,0.0,0.0,0.0,0.0,0.0,0.0,0.0,0.0,0.0,0.0,0.0,0.0,0.0,0.0,0.0,0.0,0.0,0.0,0.0,0.0,0.0,0.0,0.0,0.0,0.0,0.0,0.0,0.0,0.0,0.0,0.0,0.0,0.0,0.0,0.0,0.0,0.0,0.0,0.0,0.0,0.0,0.0,0.0,0.0,0.0,0.0,0.0,0.0,0.0,0.0,0.0,0.0,0.0,0.0,0.0,0.0,0.0,0.0,0.0,0.0,0.0,0.0,0.0,0.0,0.0,0.0,0.0,0.0,0.0,0.0,0.0,0.0,0.0,0.0,-2.9701,-2.9701,-2.9701,-2.9701,0.0,0.0,0.0,0.0,0.0,0.0,0.0,0.0,0.0,0.0,0.0,0.0,0.0,0.0,0.0,0.0,0.0,0.0,0.0,0.0,0.0,0.0,0.0,0.0,0.0,0.0,0.0,0.0,0.0,0.0,0.0,0.0,0.0,0.0,0.0,0.0,0.0,0.0,0.0,0.0,0.0,0.0,0.0,0.0,0.0,0.0,0.0,0.0,0.0,0.0,0.0,0.0,0.0,0.0,0.0,0.0,0.0,0.0,0.0,0.0,0.0,0.0,0.0,0.0,0.0,0.0,0.0,0.0,0.0,0.0,0.0,0.0,0.0,0.0,0.0,0.0,0.0,0.0,0.0,0.0,0.0,0.0,0.0,0.0,0.0,0.0,0.0,0.0,0.0,0.0,0.0,0.0,0.0,0.0,0.0,0.0,0.0,0.0,0.0,0.0,0.0,0.0,0.0,0.0,0.0,0.0,0.0,0.0,0.0,0.0,-2.9701,-2.9664,-2.9626,-2.9664,-2.9664,-2.9626,0.0,0.0,0.0,0.0,0.0,0.0,0.0,0.0,0.0,0.0,0.0,0.0,0.0,0.0,0.0,0.0,0.0,0.0,0.0,0.0,0.0,0.0,0.0,0.0,0.0,0.0,0.0,0.0,0.0,0.0,0.0,0.0,0.0,0.0,0.0,0.0,0.0,0.0,0.0,0.0,0.0,0.0,0.0,0.0,0.0,0.0,0.0,0.0,0.0,0.0,0.0,0.0,0.0,0.0,0.0,0.0,0.0,0.0,0.0,0.0,0.0,0.0,0.0,0.0,0.0,0.0,0.0,0.0,0.0,0.0,0.0,0.0,0.0,0.0,0.0,0.0,0.0,0.0,0.0,0.0,0.0,0.0,0.0,0.0,0.0,0.0,0.0,0.0,0.0,0.0,0.0,0.0,0.0,0.0,0.0,0.0,0.0,0.0,0.0,0.0,0.0,0.0,0.0,0.0,0.0,0.0,0.0,0.0,-2.9701,-2.9701,-2.9617,-2.9433,-2.9607,-2.9617,0.0,0.0,0.0,0.0,0.0,0.0,0.0,0.0,0.0,0.0,0.0,0.0,0.0,0.0,0.0,0.0,0.0,0.0,0.0,0.0,0.0,0.0,0.0,0.0,0.0,0.0,0.0,0.0,0.0,0.0,0.0,0.0,0.0,0.0,0.0,0.0,0.0,0.0,0.0,0.0,0.0,0.0,0.0,0.0,0.0,0.0,0.0,0.0,0.0,0.0,0.0,0.0,0.0,0.0,0.0,0.0,0.0,0.0,0.0,0.0,0.0,0.0,0.0,0.0,0.0,0.0,0.0,0.0,0.0,0.0,0.0,0.0,0.0,0.0,0.0,0.0,0.0,0.0,0.0,0.0,0.0,0.0,0.0,0.0,0.0,0.0,0.0,0.0,0.0,0.0,0.0,0.0,0.0,0.0,0.0,0.0,0.0,0.0,0.0,0.0,0.0,0.0,0.0,0.0,0.0,0.0,0.0,0.0,0.0,-2.9626,-2.9664,-2.9617,-2.9394,-2.9463,-2.9423,0.0,0.0,0.0,0.0,0.0,0.0,0.0,0.0,0.0,0.0,0.0,0.0,0.0,0.0,0.0,0.0,0.0,0.0,0.0,0.0,0.0,0.0,0.0,0.0,0.0,0.0,0.0,0.0,0.0,0.0,0.0,0.0,0.0,0.0,0.0,0.0,0.0,0.0,0.0,0.0,0.0,0.0,0.0,0.0,0.0,0.0,0.0,0.0,0.0,0.0,0.0,0.0,0.0,0.0,0.0,0.0,0.0,0.0,0.0,0.0,0.0,0.0,0.0,0.0,0.0,0.0,0.0,0.0,0.0,0.0,0.0,0.0,0.0,0.0,0.0,0.0,0.0,0.0,0.0,0.0,0.0,0.0,0.0,0.0,0.0,0.0,0.0,0.0,0.0,0.0,0.0,0.0,0.0,0.0,0.0,0.0,0.0,0.0,0.0,0.0,0.0,0.0,0.0,0.0,0.0,0.0,0.0,0.0,0.0,-2.9511,0.0,-2.9402,-2.9257,-2.928,-2.9238,0.0,0.0,0.0,0.0,0.0,0.0,0.0,0.0,0.0,0.0,0.0,0.0,0.0,0.0,0.0,0.0,0.0,0.0,0.0,0.0,0.0,0.0,0.0,0.0,0.0,0.0,0.0,0.0,0.0,0.0,0.0,0.0,0.0,0.0,0.0,0.0,0.0,0.0,0.0,0.0,0.0,0.0,0.0,0.0,0.0,0.0,0.0,0.0,0.0,0.0,0.0,0.0,0.0,0.0,0.0,0.0,0.0,0.0,0.0,0.0,0.0,0.0,0.0,0.0,0.0,0.0,0.0,0.0,0.0,0.0,0.0,0.0,0.0,0.0,0.0,0.0,0.0,0.0,0.0,0.0,0.0,0.0,0.0,0.0,0.0,0.0,0.0,0.0,0.0,0.0,0.0,0.0,0.0,0.0,0.0,0.0,0.0,0.0,0.0,0.0,0.0,0.0,0.0,0.0,0.0,0.0,0.0,0.0,-2.9414,-2.9312,-2.9115,-2.8989,-2.8899,-2.9034,-2.9045,0.0,0.0,0.0,0.0,0.0,0.0,0.0,0.0,0.0,0.0,0.0,0.0,0.0,0.0,0.0,0.0,0.0,0.0,0.0,0.0,0.0,0.0,0.0,0.0,0.0,0.0,0.0,0.0,0.0,0.0,0.0,0.0,0.0,0.0,0.0,0.0,0.0,0.0,0.0,0.0,0.0,0.0,0.0,0.0,0.0,0.0,0.0,0.0,0.0,0.0,0.0,0.0,0.0,0.0,0.0,0.0,0.0,0.0,0.0,0.0,0.0,0.0,0.0,0.0,0.0,0.0,0.0,0.0,0.0,0.0,0.0,0.0,0.0,0.0,0.0,0.0,0.0,0.0,0.0,0.0,0.0,0.0,0.0,0.0,0.0,0.0,0.0,0.0,0.0,0.0,0.0,0.0,0.0,0.0,0.0,0.0,0.0,0.0,0.0,0.0,0.0,0.0,0.0,0.0,0.0,0.0,0.0,0.0,0.0,-2.922,-2.9049,-2.8902,-2.8839,-2.8868,-2.8833,0.0,0.0,0.0,0.0,0.0,0.0,0.0,0.0,0.0,0.0,0.0,0.0,0.0,0.0,0.0,0.0,0.0,0.0,0.0,0.0,0.0,0.0,0.0,0.0,0.0,0.0,0.0,0.0,0.0,0.0,0.0,0.0,0.0,0.0,0.0,0.0,0.0,0.0,0.0,0.0,0.0,0.0,0.0,0.0,0.0,0.0,0.0,0.0,0.0,0.0,0.0,0.0,0.0,0.0,0.0,0.0,0.0,0.0,0.0,0.0,0.0,0.0,0.0,0.0,0.0,0.0,0.0,0.0,0.0,0.0,0.0,0.0,0.0,0.0,0.0,0.0,0.0,0.0,0.0,0.0,0.0,0.0,0.0,0.0,0.0,0.0,0.0,0.0,0.0,0.0,0.0,0.0,0.0,0.0,0.0,0.0,0.0,0.0,0.0,0.0,0.0,0.0,0.0,0.0,0.0,0.0,0.0,0.0,0.0,-2.918,-2.9063,-2.898,-2.8964,-2.8959,-2.8864,-2.8562,0.0,0.0,0.0,0.0,0.0,0.0,0.0,0.0,0.0,0.0,0.0,0.0,0.0,0.0,0.0,0.0,0.0,0.0,0.0,0.0,0.0,0.0,0.0,0.0,0.0,0.0,0.0,0.0,0.0,0.0,0.0,0.0,0.0,0.0,0.0,0.0,0.0,0.0,0.0,0.0,0.0,0.0,0.0,0.0,0.0,0.0,0.0,0.0,0.0,0.0,0.0,0.0,0.0,0.0,0.0,0.0,0.0,0.0,0.0,0.0,0.0,0.0,0.0,0.0,0.0,0.0,0.0,0.0,0.0,0.0,0.0,0.0,0.0,0.0,0.0,0.0,0.0,0.0,0.0,0.0,0.0,0.0,0.0,0.0,0.0,0.0,0.0,0.0,0.0,0.0,0.0,0.0,0.0,0.0,0.0,0.0,0.0,0.0,0.0,0.0,0.0,0.0,0.0,0.0,0.0,0.0,0.0,0.0,-2.9218,-2.9195,-2.9215,-2.9213,-2.9268,-2.9054,0.0,0.0,0.0,0.0,0.0,0.0,0.0,0.0,0.0,0.0,0.0,0.0,0.0,0.0,0.0,0.0,0.0,0.0,0.0,0.0,0.0,0.0,0.0,0.0,0.0,0.0,0.0,0.0,0.0,0.0,0.0,0.0,0.0,0.0,0.0,0.0,0.0,0.0,0.0,0.0,0.0,0.0,0.0,0.0,0.0,0.0,0.0,0.0,0.0,0.0,0.0,0.0,0.0,0.0,0.0,0.0,0.0,0.0,0.0,0.0,0.0,0.0,0.0,0.0,0.0,0.0,0.0,0.0,0.0,0.0,0.0,0.0,0.0,0.0,0.0,0.0,0.0,0.0,0.0,0.0,0.0,0.0,0.0,0.0,0.0,0.0,0.0,0.0,0.0,0.0,0.0,0.0,0.0,0.0,0.0,0.0,0.0,0.0,0.0,0.0,0.0,0.0,0.0,0.0,0.0,0.0,0.0,0.0,0.0,-2.9557,-2.9884,-2.9918,-2.9639,-2.9314,-2.9104,0.0,0.0,0.0,0.0,0.0,0.0,0.0,0.0,0.0,0.0,0.0,0.0,0.0,0.0,0.0,0.0,0.0,0.0,0.0,0.0,0.0,0.0,0.0,0.0,0.0,0.0,0.0,0.0,0.0,0.0,0.0,0.0,0.0,0.0,0.0,0.0,0.0,0.0,0.0,0.0,0.0,0.0,0.0,0.0,0.0,0.0,0.0,0.0,0.0,0.0,0.0,0.0,0.0,0.0,0.0,0.0,0.0,0.0,0.0,0.0,0.0,0.0,0.0,0.0,0.0,0.0,0.0,0.0,0.0,0.0,0.0,0.0,0.0,0.0,0.0,0.0,0.0,0.0,0.0,0.0,0.0,0.0,0.0,0.0,0.0,0.0,0.0,0.0,0.0,0.0,0.0,0.0,0.0,0.0,0.0,0.0,0.0,0.0,0.0,0.0,0.0,0.0,0.0,0.0,0.0,0.0,0.0,0.0,-2.956,-3.0195,-3.0553,-3.0631,-3.0384,-2.9736,-2.9319,0.0,0.0,0.0,0.0,0.0,0.0,0.0,0.0,0.0,0.0,0.0,0.0,0.0,0.0,0.0,0.0,0.0,0.0,0.0,0.0,0.0,0.0,0.0,0.0,0.0,0.0,0.0,0.0,0.0,0.0,0.0,0.0,0.0,0.0,0.0,0.0,0.0,0.0,0.0,0.0,0.0,0.0,0.0,0.0,0.0,0.0,0.0,0.0,0.0,0.0,0.0,0.0,0.0,0.0,0.0,0.0,0.0,0.0,0.0,0.0,0.0,0.0,0.0,0.0,0.0,0.0,0.0,0.0,0.0,0.0,0.0,0.0,0.0,0.0,0.0,0.0,0.0,0.0,0.0,0.0,0.0,0.0,0.0,0.0,0.0,0.0,0.0,0.0,0.0,0.0,0.0,0.0,0.0,0.0,0.0,0.0,0.0,0.0,0.0,0.0,0.0,0.0,0.0,0.0,0.0,0.0,0.0,0.0,-3.0074,-3.0803,-3.1071,-3.119,-3.1159,-3.03,-2.9589,0.0,0.0,0.0,0.0,0.0,0.0,0.0,0.0,0.0,0.0,0.0,0.0,0.0,0.0,0.0,0.0,0.0,0.0,0.0,0.0,0.0,0.0,0.0,0.0,0.0,0.0,0.0,0.0,0.0,0.0,0.0,0.0,0.0,0.0,0.0,0.0,0.0,0.0,0.0,0.0,0.0,0.0,0.0,0.0,0.0,0.0,0.0,0.0,0.0,0.0,0.0,0.0,0.0,0.0,0.0,0.0,0.0,0.0,0.0,0.0,0.0,0.0,0.0,0.0,0.0,0.0,0.0,0.0,0.0,0.0,0.0,0.0,0.0,0.0,0.0,0.0,0.0,0.0,0.0,0.0,0.0,0.0,0.0,0.0,0.0,0.0,0.0,0.0,0.0,0.0,0.0,0.0,0.0,0.0,0.0,0.0,0.0,0.0,0.0,0.0,0.0,0.0,0.0,0.0,0.0,0.0,0.0,0.0,-2.9954,-3.0486,-3.0957,-3.119,-3.1173,-3.0229,-2.9655,0.0,0.0,0.0,0.0,0.0,0.0,0.0,0.0,0.0,0.0,0.0,0.0,0.0,0.0,0.0,0.0,0.0,0.0,0.0,0.0,0.0,0.0,0.0,0.0,0.0,0.0,0.0,0.0,0.0,0.0,0.0,0.0,0.0,0.0,0.0,0.0,0.0,0.0,0.0,0.0,0.0,0.0,0.0,0.0,0.0,0.0,0.0,0.0,-2.4863,0.0,0.0,0.0,0.0,0.0,0.0,0.0,0.0,0.0,0.0,0.0,0.0,0.0,0.0,0.0,0.0,0.0,0.0,0.0,0.0,0.0,0.0,0.0,0.0,0.0,0.0,0.0,0.0,0.0,0.0,0.0,0.0,0.0,0.0,0.0,0.0,0.0,0.0,0.0,0.0,0.0,0.0,0.0,0.0,0.0,0.0,0.0,0.0,0.0,0.0,0.0,0.0,0.0,0.0,0.0,0.0,0.0,0.0,0.0,-3.0473,-3.0945,-3.1125,-3.119,-3.1159,-3.0448,-2.992,0.0,0.0,0.0,0.0,0.0,0.0,0.0,0.0,0.0,0.0,0.0,0.0,0.0,0.0,0.0,0.0,0.0,0.0,0.0,0.0,0.0,0.0,0.0,0.0,0.0,0.0,0.0,0.0,0.0,0.0,0.0,0.0,0.0,0.0,0.0,0.0,0.0,0.0,0.0,0.0,0.0,0.0,0.0,0.0,0.0,0.0,0.0,0.0,0.0,0.0,0.0,0.0,0.0,0.0,0.0,0.0,0.0,0.0,0.0,0.0,0.0,0.0,0.0,0.0,0.0,0.0,0.0,0.0,0.0,0.0,0.0,0.0,0.0,0.0,0.0,0.0,0.0,0.0,0.0,0.0,0.0,0.0,0.0,0.0,0.0,0.0,0.0,0.0,0.0,0.0,0.0,0.0,0.0,0.0,0.0,0.0,0.0,0.0,0.0,0.0,0.0,0.0,0.0,0.0,0.0,0.0,0.0,-3.0767,-3.1303,-3.185,-3.165,-3.1478,-3.136,-3.091,-3.0399,-2.9866,0.0,0.0,0.0,0.0,0.0,0.0,0.0,0.0,0.0,0.0,0.0,0.0,0.0,0.0,0.0,0.0,0.0,0.0,0.0,0.0,0.0,0.0,0.0,0.0,0.0,0.0,0.0,0.0,0.0,0.0,0.0,0.0,0.0,0.0,0.0,0.0,0.0,0.0,-2.814,-2.8232,0.0,0.0,0.0,0.0,0.0,0.0,0.0,0.0,-2.5464,0.0,0.0,0.0,0.0,0.0,0.0,0.0,0.0,0.0,0.0,0.0,0.0,0.0,0.0,0.0,0.0,0.0,0.0,0.0,0.0,0.0,0.0,0.0,0.0,0.0,0.0,0.0,0.0,0.0,0.0,0.0,0.0,0.0,0.0,0.0,0.0,0.0,0.0,0.0,0.0,0.0,0.0,0.0,0.0,0.0,0.0,0.0,0.0,0.0,0.0,0.0,0.0,0.0,0.0,0.0,0.0,-3.1406,-3.1563,-3.2118,-3.3066,-3.3055,-3.2747,-3.2141,-3.1928,-3.14,-3.056,0.0,0.0,0.0,0.0,0.0,0.0,0.0,0.0,0.0,0.0,0.0,0.0,0.0,0.0,0.0,0.0,0.0,0.0,0.0,0.0,0.0,0.0,0.0,0.0,0.0,0.0,0.0,0.0,0.0,0.0,0.0,0.0,0.0,0.0,0.0,0.0,0.0,0.0,0.0,-2.8105,-2.8214,0.0,0.0,0.0,0.0,0.0,0.0,0.0,0.0,-2.538,0.0,0.0,0.0,0.0,0.0,0.0,0.0,0.0,0.0,0.0,0.0,0.0,0.0,0.0,0.0,0.0,0.0,0.0,0.0,0.0,0.0,0.0,0.0,0.0,0.0,0.0,0.0,0.0,0.0,0.0,0.0,0.0,0.0,0.0,0.0,0.0,0.0,0.0,0.0,0.0,0.0,0.0,0.0,0.0,0.0,0.0,0.0,0.0,0.0,0.0,0.0,0.0,0.0,0.0,0.0,-3.1711,-3.2431,-3.3029,-3.3372,-3.3389,-3.3237,-3.2865,-3.2554,-3.1927,0.0,0.0,0.0,0.0,0.0,0.0,0.0,0.0,0.0,0.0,0.0,0.0,0.0,0.0,0.0,0.0,0.0,0.0,0.0,0.0,0.0,0.0,0.0,0.0,0.0,0.0,0.0,0.0,0.0,0.0,0.0,0.0,0.0,0.0,0.0,0.0,0.0,0.0,0.0,0.0,-2.7861,-2.7904,-2.7689,0.0,0.0,0.0,0.0,0.0,0.0,-2.6721,-2.6131,0.0,0.0,0.0,0.0,0.0,0.0,0.0,0.0,0.0,0.0,0.0,0.0,0.0,0.0,0.0,0.0,0.0,0.0,0.0,0.0,0.0,0.0,0.0,0.0,0.0,0.0,0.0,0.0,0.0,0.0,0.0,0.0,0.0,0.0,0.0,0.0,0.0,0.0,0.0,0.0,0.0,0.0,0.0,0.0,0.0,0.0,0.0,0.0,0.0,0.0,0.0,0.0,0.0,0.0,0.0,-3.219,-3.3362,-3.3949,-3.3846,-3.3842,-3.3778,-3.3609,-3.3022,-3.2315,0.0,0.0,0.0,0.0,0.0,0.0,0.0,0.0,0.0,0.0,0.0,0.0,0.0,0.0,0.0,0.0,0.0,0.0,0.0,0.0,0.0,0.0,0.0,0.0,0.0,0.0,0.0,0.0,0.0,0.0,0.0,0.0,0.0,0.0,0.0,0.0,0.0,0.0,0.0,0.0,0.0,-2.7642,-2.7432,-2.7686,0.0,0.0,0.0,0.0,-2.7811,-2.7225,0.0,0.0,0.0,0.0,0.0,0.0,0.0,0.0,0.0,0.0,0.0,0.0,0.0,0.0,0.0,0.0,0.0,0.0,0.0,0.0,0.0,0.0,0.0,0.0,0.0,0.0,0.0,0.0,0.0,0.0,0.0,0.0,0.0,0.0,0.0,0.0,0.0,0.0,0.0,0.0,0.0,0.0,0.0,0.0,0.0,0.0,0.0,0.0,0.0,0.0,0.0,0.0,0.0,0.0,0.0,0.0,-3.3622,-3.4322,-3.4887,-3.5334,-3.5329,-3.5025,-3.4387,-3.3511,-3.2791,0.0,0.0,0.0,0.0,0.0,0.0,0.0,0.0,0.0,0.0,0.0,0.0,0.0,0.0,0.0,0.0,0.0,0.0,0.0,0.0,0.0,0.0,0.0,0.0,0.0,0.0,0.0,0.0,0.0,0.0,0.0,0.0,0.0,0.0,0.0,0.0,0.0,0.0,0.0,0.0,0.0,-2.7716,-2.7511,-2.7689,-2.78,0.0,0.0,-2.7539,-2.7557,-2.7269,0.0,0.0,0.0,0.0,0.0,0.0,0.0,0.0,0.0,0.0,0.0,0.0,0.0,0.0,0.0,0.0,0.0,0.0,0.0,0.0,0.0,0.0,0.0,0.0,0.0,0.0,0.0,0.0,0.0,0.0,0.0,0.0,0.0,0.0,0.0,0.0,0.0,0.0,0.0,0.0,0.0,0.0,0.0,0.0,0.0,0.0,0.0,0.0,0.0,0.0,0.0,0.0,0.0,0.0,0.0,-3.3037,-3.3301,-3.4208,-3.4609,-3.4455,-3.4471,-3.4324,-3.3971,-3.3119,-3.2464,0.0,0.0,0.0,0.0,0.0,0.0,0.0,0.0,0.0,0.0,0.0,0.0,0.0,0.0,0.0,0.0,0.0,0.0,0.0,0.0,0.0,0.0,0.0,0.0,0.0,0.0,0.0,0.0,0.0,0.0,0.0,0.0,0.0,0.0,0.0,0.0,0.0,0.0,0.0,0.0,0.0,0.0,-2.7355,-2.7461,0.0,0.0,0.0,-2.7496,-2.76,0.0,0.0,0.0,0.0,0.0,0.0,0.0,0.0,0.0,0.0,0.0,0.0,0.0,0.0,0.0,0.0,0.0,0.0,0.0,0.0,0.0,0.0,0.0,0.0,0.0,0.0,0.0,0.0,0.0,0.0,0.0,0.0,0.0,0.0,0.0,0.0,0.0,0.0,0.0,0.0,0.0,0.0,0.0,0.0,0.0,0.0,0.0,0.0,0.0,0.0,0.0,0.0,0.0,0.0,0.0,0.0,0.0,-3.3055,-3.4222,-3.4616,-3.4128,-3.3953,-3.3836,-3.3829,-3.2836,0.0,0.0,0.0,0.0,0.0,0.0,0.0,0.0,0.0,0.0,0.0,0.0,0.0,0.0,0.0,0.0,0.0,0.0,0.0,0.0,0.0,0.0,0.0,0.0,0.0,0.0,0.0,-2.468,0.0,0.0,0.0,0.0,0.0,0.0,0.0,0.0,0.0,0.0,0.0,0.0,0.0,0.0,-2.7244,-2.7261,-2.7341,-2.7388,0.0,0.0,-2.745,-2.7537,-2.7244,-2.7148,0.0,0.0,0.0,0.0,0.0,0.0,0.0,0.0,0.0,0.0,0.0,0.0,0.0,0.0,0.0,0.0,0.0,0.0,0.0,0.0,0.0,0.0,0.0,0.0,0.0,0.0,0.0,0.0,0.0,0.0,0.0,0.0,0.0,0.0,0.0,0.0,0.0,0.0,0.0,0.0,0.0,0.0,0.0,0.0,0.0,0.0,0.0,0.0,0.0,0.0,0.0,0.0,0.0,0.0,0.0,-3.3693,-3.4888,-3.5492,-3.5447,-3.4871,-3.4528,-3.4511,-3.3095,-3.2158,0.0,0.0,0.0,0.0,0.0,0.0,0.0,0.0,0.0,0.0,0.0,0.0,0.0,0.0,0.0,0.0,0.0,0.0,0.0,0.0,0.0,0.0,0.0,0.0,0.0,0.0,0.0,0.0,0.0,0.0,0.0,0.0,0.0,0.0,0.0,0.0,0.0,0.0,0.0,0.0,0.0,-2.7371,-2.7388,-2.7404,-2.7341,0.0,0.0,-2.7341,-2.7149,-2.6907,-2.6907,-2.7432,0.0,0.0,0.0,0.0,0.0,0.0,0.0,0.0,0.0,0.0,0.0,0.0,0.0,0.0,0.0,0.0,0.0,0.0,0.0,0.0,0.0,0.0,0.0,0.0,0.0,0.0,0.0,0.0,0.0,0.0,0.0,0.0,0.0,0.0,0.0,0.0,0.0,0.0,0.0,0.0,0.0,0.0,0.0,0.0,0.0,0.0,0.0,0.0,0.0,0.0,0.0,0.0,0.0,-3.3502,-3.3105,-3.4347,-3.48,-3.435,-3.371,-3.3365,-3.3365,-3.2196,-3.142,0.0,0.0,0.0,0.0,0.0,0.0,0.0,0.0,0.0,0.0,0.0,0.0,0.0,0.0,0.0,0.0,0.0,0.0,0.0,0.0,0.0,0.0,0.0,0.0,0.0,0.0,0.0,0.0,-2.6427,-2.6786,-2.6958,0.0,0.0,0.0,0.0,0.0,0.0,0.0,0.0,0.0,0.0,-2.6823,-2.7104,-2.6857,0.0,0.0,-2.7087,-2.7152,-2.7166,-2.7006,-2.7055,-2.7537,-2.763,0.0,0.0,0.0,0.0,0.0,0.0,0.0,0.0,0.0,0.0,0.0,0.0,0.0,0.0,0.0,0.0,0.0,0.0,0.0,0.0,0.0,0.0,0.0,0.0,0.0,0.0,0.0,0.0,0.0,0.0,0.0,0.0,0.0,0.0,0.0,0.0,0.0,0.0,0.0,0.0,0.0,0.0,0.0,0.0,0.0,0.0,0.0,0.0,0.0,0.0,0.0,0.0,-3.3439,-3.2976,-3.4255,-3.4664,-3.4202,-3.3531,-3.3119,-3.2879,-3.2029,-3.1313,0.0,0.0,0.0,0.0,0.0,0.0,0.0,0.0,0.0,0.0,0.0,0.0,0.0,0.0,0.0,0.0,0.0,0.0,0.0,0.0,0.0,0.0,0.0,0.0,0.0,0.0,0.0,0.0,-2.6472,-2.6746,-2.731,0.0,0.0,0.0,0.0,0.0,0.0,0.0,0.0,0.0,0.0,-2.7232,-2.7399,-2.7284,-2.7232,-2.7382,-2.743,-2.7495,-2.7558,-2.7273,-2.7184,-2.7537,0.0,0.0,0.0,0.0,0.0,0.0,0.0,0.0,0.0,0.0,0.0,0.0,0.0,0.0,0.0,0.0,0.0,0.0,0.0,0.0,0.0,0.0,0.0,0.0,0.0,0.0,0.0,0.0,0.0,0.0,-2.8818,0.0,0.0,0.0,0.0,0.0,0.0,0.0,0.0,0.0,0.0,0.0,0.0,0.0,0.0,0.0,0.0,0.0,0.0,0.0,0.0,0.0,0.0,-3.3624,-3.3603,-3.4856,-3.5515,-3.547,-3.4878,-3.4186,-3.3556,-3.2891,-3.2083,-3.1124,0.0,0.0,0.0,0.0,0.0,0.0,0.0,0.0,0.0,0.0,0.0,0.0,0.0,0.0,0.0,0.0,0.0,0.0,0.0,0.0,0.0,0.0,0.0,0.0,0.0,0.0,-2.5696,-2.5947,-2.6536,0.0,0.0,0.0,0.0,0.0,0.0,0.0,0.0,0.0,0.0,-2.8595,-2.8939,-2.8439,-2.8955,-2.9059,-2.8454,-2.8481,-2.8512,-2.8383,-2.773,-2.7246,0.0,0.0,0.0,0.0,0.0,0.0,0.0,0.0,0.0,0.0,0.0,0.0,0.0,0.0,0.0,0.0,0.0,0.0,0.0,0.0,0.0,0.0,0.0,0.0,0.0,0.0,0.0,-3.0504,-3.0107,0.0,0.0,0.0,0.0,0.0,0.0,0.0,0.0,0.0,0.0,0.0,-3.0999,-3.1526,0.0,0.0,0.0,0.0,0.0,0.0,0.0,0.0,0.0,0.0,0.0,0.0,-3.4107,-3.374,-3.4489,-3.4712,-3.426,-3.3608,-3.3172,-3.2922,-3.2228,-3.1619,-3.1116,0.0,0.0,0.0,0.0,0.0,0.0,0.0,0.0,0.0,0.0,0.0,0.0,0.0,0.0,0.0,0.0,0.0,0.0,0.0,0.0,0.0,0.0,0.0,0.0,0.0,-2.6149,0.0,0.0,0.0,0.0,0.0,0.0,0.0,0.0,0.0,0.0,0.0,-2.8098,-2.7909,-2.8064,-2.832,-2.862,-2.8572,-2.8587,0.0,0.0,0.0,0.0,0.0,0.0,0.0,0.0,0.0,0.0,0.0,0.0,0.0,0.0,-2.6884,-2.6623,-2.5908,-2.5342,-2.5348,0.0,0.0,0.0,0.0,0.0,0.0,0.0,0.0,0.0,0.0,0.0,0.0,0.0,0.0,-3.055,0.0,-2.9761,0.0,0.0,0.0,0.0,0.0,0.0,0.0,0.0,-3.1259,-3.1659,-3.1492,-3.1999,-3.2392,0.0,-3.3143,-3.3272,0.0,0.0,0.0,0.0,0.0,0.0,0.0,0.0,-3.4007,-3.3484,-3.399,-3.4037,-3.3608,-3.3172,-3.2841,-3.2602,-3.1894,-3.1416,-3.1245,-3.0983,-3.0727,0.0,0.0,0.0,0.0,0.0,0.0,0.0,0.0,0.0,0.0,0.0,0.0,0.0,0.0,0.0,0.0,0.0,0.0,0.0,0.0,0.0,0.0,0.0,-2.6635,0.0,0.0,0.0,0.0,0.0,0.0,0.0,0.0,0.0,-2.7883,-2.825,-2.8418,-2.8172,-2.8604,-2.9025,-2.9216,0.0,0.0,0.0,0.0,0.0,0.0,0.0,-2.9435,-2.9132,-2.9045,-2.875,-2.7968,-2.7606,-2.7402,-2.7465,0.0,0.0,-2.7148,-2.639,-2.5789,-2.5793,-2.5583,-2.5564,-2.5949,-2.5595,-2.5353,0.0,0.0,0.0,0.0,0.0,0.0,0.0,0.0,-3.1049,-3.061,0.0,-3.0304,0.0,0.0,0.0,0.0,0.0,-3.1446,0.0,0.0,-3.2042,-3.2482,-3.2263,-3.2282,-3.2673,-3.3354,-3.334,-3.3283,-3.3212,-3.3346,0.0,0.0,0.0,0.0,0.0,0.0,-3.3279,-3.2918,-3.3322,-3.3531,-3.3521,-3.3505,-3.3209,-3.2559,-3.1881,-3.1496,-3.1466,-3.1261,-3.1101,-3.1097,-3.0482,0.0,0.0,0.0,0.0,0.0,0.0,0.0,0.0,0.0,0.0,0.0,0.0,0.0,0.0,0.0,0.0,0.0,0.0,0.0,0.0,-2.6587,0.0,0.0,0.0,0.0,0.0,0.0,0.0,0.0,0.0,0.0,-2.7798,-2.871,-2.9283,-2.8694,0.0,0.0,0.0,0.0,-3.1361,-3.0889,-3.0855,-3.0838,-3.082,-3.0162,-2.9592,-2.9419,0.0,0.0,-2.8271,-2.7635,-2.7333,-2.7392,-2.7238,-2.7122,-2.7402,-2.6914,-2.6495,-2.6462,-2.6001,-2.5722,-2.6099,-2.5959,-2.5846,-3.3487,0.0,0.0,0.0,0.0,-3.2665,-3.2316,-3.1598,-3.1894,-3.172,-3.1171,-3.0782,0.0,0.0,0.0,0.0,0.0,0.0,-3.1102,-3.0841,-3.1655,-3.1931,-3.1759,-3.2249,-3.2627,-3.2826,-3.3288,-3.3492,-3.3489,-3.3508,-3.3696,-3.3968,0.0,0.0,0.0,0.0,-3.2988,-3.2699,-3.2812,-3.2625,-3.2117,-3.2104,-3.202,-3.184,-3.1611,-3.1496,-3.1496,-3.1431,-3.1255,-3.0964,-3.0773,0.0,0.0,0.0,0.0,0.0,0.0,0.0,0.0,0.0,0.0,0.0,0.0,0.0,0.0,0.0,0.0,0.0,0.0,0.0,-2.6481,-2.7444,-2.8185,0.0,0.0,0.0,0.0,0.0,0.0,0.0,0.0,0.0,-2.8309,-2.8873,-2.9349,0.0,0.0,-3.036,-3.0513,-3.0423,-3.0315,-3.0312,-3.0161,0.0,0.0,-3.0136,-3.0126,-2.9621,-2.9354,-2.9125,-2.8938,-2.8663,-2.8304,-2.7794,-2.764,-2.7454,-2.701,-2.6786,-2.6664,-2.6628,-2.6473,-2.649,-2.6863,-2.6676,-2.6512,-3.4616,-3.4261,-3.3864,-3.324,-3.2574,-3.2722,-3.2382,-3.1698,-3.1953,-3.1786,-3.1349,-3.1114,-3.1016,-3.0995,-3.0979,0.0,0.0,0.0,-3.1319,-3.1054,-3.1799,-3.2051,-3.1951,-3.241,-3.2586,-3.2614,-3.3013,-3.3066,-3.2772,-3.3103,-3.3339,-3.3469,0.0,0.0,-3.3811,-3.3189,-3.2657,-3.2367,-3.2216,-3.1966,-3.1511,-3.1496,-3.1496,-3.1496,-3.1496,-3.1496,-3.1496,-3.1496,-3.1402,-3.1151,-3.0976,-3.0677,0.0,0.0,0.0,0.0,0.0,0.0,0.0,0.0,0.0,0.0,0.0,-2.5732,0.0,0.0,0.0,0.0,-2.5892,-2.6193,-2.6934,-2.7713,0.0,0.0,0.0,0.0,0.0,0.0,0.0,-2.9152,-2.8834,-2.8691,-2.8955,-2.9257,-2.9375,-2.9075,-2.9438,-2.9837,-3.0081,0.0,-2.9745,-2.9892,-2.9805,-2.968,-2.9592,-2.9913,-3.0083,-2.9925,-2.9705,-2.9563,-2.9563,-2.9251,-2.884,-2.8416,-2.8281,-2.8146,-2.7689,-2.7588,-2.7368,-2.6826,-2.6708,-2.6841,-2.7225,-2.7,-2.6848,-3.5169,-3.4438,-3.3429,-3.2834,-3.2483,-3.2359,-3.2091,-3.166,-3.166,-3.1329,-3.0887,-3.1374,-3.1398,-3.1089,-3.1943,0.0,-3.1784,-3.2038,-3.1881,-3.1539,-3.2203,-3.2504,-3.2504,-3.252,-3.2504,-3.252,-3.2504,-3.2176,-3.1582,-3.2312,-3.2544,-3.2342,-3.3066,-3.3261,-3.2933,-3.2633,-3.2308,-3.1953,-3.164,-3.1496,-3.1496,-3.1496,-3.1496,-3.1496,-3.1496,-3.1496,-3.1496,-3.1496,-3.1496,-3.1481,-3.1151,-3.094,-3.0876,0.0,0.0,0.0,0.0,0.0,0.0,0.0,0.0,0.0,0.0,0.0,0.0,0.0,0.0,0.0,-2.6434,0.0,-2.7295,-2.7589,0.0,0.0,0.0,-2.8645,-2.8565,-2.8556,-2.862,-2.8794,0.0,0.0,-2.9623,0.0,-2.936,-2.844,-2.9045,-2.9525,-2.9375,-2.9498,-2.9592,-2.974,-2.9736,-2.9665,-2.9525,-2.9473,-2.9631,-3.0131,-3.0189,-3.0097,-3.014,-2.9704,-2.923,-2.9094,-2.9094,-2.9044,-2.8993,-2.8874,-2.8553,-2.7199,-2.686,-2.6893,-2.7148,-2.6985,-2.6982,-3.5122,-3.4499,-3.4212,-3.3774,-3.3246,-3.3201,-3.3111,-3.3021,-3.3021,-3.2662,-3.2092,-3.2213,-3.1943,-3.1401,-3.1622,-3.1668,-3.1583,-3.164,-3.1611,-3.1511,-3.1697,-3.1768,-3.1768,-3.1768,-3.1768,-3.1768,-3.1768,-3.1668,-3.1511,-3.171,-3.1768,-3.171,-3.1923,-3.2188,-3.2489,-3.1723,-3.1422,-3.1611,-3.1524,-3.1496,-3.1496,-3.1496,-3.1496,-3.1496,-3.1496,-3.1496,-3.1496,-3.1496,-3.1496,-3.1496,-3.1404,-3.1216,-3.0894,-3.0424,0.0,0.0,0.0,0.0,0.0,0.0,0.0,0.0,0.0,-2.7149,-2.6894,0.0,-2.7275,0.0,-2.7525,-2.7652,-2.782,-2.7884,0.0,0.0,-2.846,-2.8629,-2.9083,-2.897,-2.9159,-2.9837,-2.9746,-2.9678,-2.9846,-2.9835,-2.9727,-2.9328,-2.994,-3.0443,-3.055,-3.0205,-2.9964,-2.9958,-2.9756,-2.9434,-2.8991,-2.8797,-2.9143,-3.0107,-3.0282,-3.0409,-3.0842,-3.0801,-3.048,-2.9989,-2.9854,-2.9634,-2.9145,-2.8993,-2.8908,-2.8485,-2.7977,-2.7385,-2.696,-2.7004,-2.7227,-3.6118,-3.5774,-3.5774,-3.5415,-3.4756,-3.3888,-3.3499,-3.3499,-3.3499,-3.329,-3.2961,-3.2946,-3.2751,-3.2378,-3.2407,-3.2407,-3.2378,-3.2378,-3.2213,-3.1944,-3.1944,-3.1795,-3.1496,-3.1496,-3.1496,-3.1496,-3.1496,-3.1496,-3.1496,-3.1496,-3.1496,-3.1496,-3.1496,-3.1668,-3.1966,-3.1447,-3.1293,-3.1496,-3.1496,-3.1496,-3.1496,-3.1496,-3.1404,-3.1246,-3.1246,-3.1151,-3.0976,-3.0961,-3.0961,-3.0961,-3.0961,-3.0861,-3.0659,-3.0248,-2.9927,0.0,0.0,0.0,0.0,0.0,0.0,0.0,0.0,0.0,0.0,0.0,-2.7961,-2.7922,-2.8217,-2.8455,-2.857,-2.8585,-2.8702,-2.9017,-2.9073,-2.9175,-2.9397,-2.9327,-2.9467,-2.9917,-2.9856,-2.987,-3.0126,-3.0172,-3.0253,-3.043,-3.0803,-3.0899,-3.0448,-3.0079,-2.9883,-2.9883,-2.9711,-2.9502,-2.9071,-2.9236,-2.9496,-2.9858,-3.0164,-3.0457,-3.0745,-3.0801,-3.0727,-3.0625,-3.0581,-3.0463,-3.004,-2.9973,-2.9907,-2.9516,-2.9161,-2.8586,-2.7893,-2.7896,-2.8048,-3.7404,-3.7404,-3.7404,-3.709,-3.6477,-3.4726,-3.3903,-3.3754,-3.3754,-3.3709,-3.3619,-3.3529,-3.3499,-3.3499,-3.3499,-3.3499,-3.3499,-3.3499,-3.3185,-3.2647,-3.2632,-3.2303,-3.1765,-3.175,-3.175,-3.175,-3.175,-3.1765,-3.175,-3.175,-3.172,-3.1645,-3.163,-3.1585,-3.1496,-3.1496,-3.1496,-3.1496,-3.1539,-3.1539,-3.1539,-3.1553,-3.1383,-3.1046,-3.0967,-3.0757,-3.0431,-3.0334,-3.0314,-3.0314,-3.0288,-3.0293,-3.037,-2.9969,-2.9769,0.0,-2.9484,0.0,0.0,0.0,0.0,0.0,0.0,0.0,0.0,-2.8563,-2.8523,-2.8425,-2.8769,-2.9108,-2.9332,-2.9332,-2.9469,-2.9819,-2.9841,-2.9791,-2.9738,-2.9699,-2.9729,-2.9819,-2.9834,-3.0043,-3.0552,-3.0627,-3.0853,-3.1301,-3.142,-3.1102,-3.0161,-2.9948,-2.9993,-2.9834,-2.9771,-2.9786,-2.9738,-3.0046,-3.014,-2.9766,-3.0212,-3.0473,-3.0359,-3.0415,-3.0593,-3.0935,-3.0985,-3.1041,-3.1171,-3.1157,-3.0937,-3.0362,-3.0209,-2.9905,-2.9128,-2.8876,-2.8993,-3.7404,-3.7404,-3.7404,-3.7345,-3.7195,-3.6821,-3.6088,-3.513,-3.513,-3.4816,-3.4294,-3.3724,-3.3499,-3.3499,-3.3499,-3.3499,-3.3499,-3.3499,-3.3425,-3.3305,-3.3305,-3.3245,-3.3125,-3.3125,-3.3125,-3.3125,-3.3125,-3.3125,-3.3125,-3.3125,-3.2856,-3.2347,-3.2303,-3.2034,-3.1525,0.0,0.0,0.0,-3.1655,-3.1756,-3.1756,-3.1855,-3.1879,-3.1784,-3.1366,0.0,-3.1029,-3.0569,-3.0314,-3.0314,-3.0184,0.0,0.0,0.0,0.0,0.0,0.0,0.0,0.0,0.0,0.0,0.0,-3.0012,-2.9843,-2.9915,-2.9904,-2.9827,-2.9594,-2.9663,-2.966,-2.9546,-2.9546,-2.9564,-2.9657,-2.966,-2.9813,-3.0253,-3.0328,-3.0522,-3.1077,-3.1137,-3.1167,-3.1241,-3.1316,-3.1346,-3.1481,-3.1496,-3.1421,-3.1152,-3.1062,-3.1107,-3.1107,-3.0657,-3.0342,-3.0313,-3.006,-3.0065,-3.0243,-3.0858,-3.0998,-3.053,-3.081,-3.0902,-3.0626,-3.0477,-3.0658,-3.1075,-3.119,-3.1157,-3.1004,-3.097,-3.0581,-2.9297,-2.901,-2.8993,-3.8407,0.0,-3.8392,-3.8197,0.0,-3.7883,-3.7345,-3.6447,-3.6432,-3.6073,-3.5447,-3.4771,-3.4487,-3.4487,-3.4487,-3.4487,-3.4487,-3.4502,-3.4292,-3.3993,-3.4009,-3.3799,-3.3499,-3.3499,-3.3499,-3.3499,-3.3499,-3.3499,-3.3499,-3.3499,-3.3335,-3.2991,-3.3006,-3.2826,-3.2512,-3.2168,-3.1839,-3.1496,-3.1612,-3.1655,-3.1655,-3.1712,-3.1645,-3.148,0.0,0.0,0.0,0.0,0.0,0.0,0.0,0.0,0.0,0.0,0.0,-3.0578,-3.0435,-3.0374,-3.059,-3.0594,-3.0693,-3.0864,-3.0894,-3.0797,-3.0624,-3.0779,-3.084,-3.0702,-3.0674,-3.0661,-3.0537,-3.0552,-3.0537,-3.0537,-3.0537,-3.0687,-3.0913,-3.0987,-3.1122,-3.1406,-3.1496,-3.1496,-3.1496,-3.1496,-3.1496,-3.1496,-3.1496,-3.1496,-3.1496,-3.1496,-3.1496,-3.1496,-3.1256,-3.1031,-3.0957,-3.0776,-3.0456,-3.0578,-3.0786,-3.0829,-3.0521,-3.045,-3.041,-3.0328,-3.0326,-3.0414,-3.0679,-3.0995,-3.119,-3.119,-3.119,-3.1004,-3.0211,-3.0093,-3.0093,-3.9529,-3.9388,-3.9388,-3.9095,-3.8571,-3.8586,-3.8257,-3.7749,0.0,0.0,0.0,-3.6073,-3.5774,-3.5684,-3.5669,-3.5609,-3.5504,-3.5489,-3.519,-3.4698,-3.4698,-3.4367,-3.3858,-3.3858,-3.3858,-3.3844,-3.3844,-3.3844,-3.3858,-3.3844,-3.3784,-3.3679,-3.3695,-3.3619,-3.3469,-3.2961,-3.2392,-3.1869,-3.1659,-3.1568,-3.1524,-3.1568,-3.1441,-3.1104,-3.101,-3.0799,-3.0477,-3.035,-3.0314,-3.0314,-3.0262,-3.0308,-3.0405,-3.0379,-3.0413,-3.0509,-3.0509,-3.0674,-3.0976,-3.1006,-3.1151,-3.1495,-3.1496,-3.1386,-3.1024,-3.1324,-3.1496,-3.1496,-3.1496,-3.1496,-3.1496,-3.1496,-3.1496,-3.1496,-3.1496,-3.1481,-3.1496,-3.1496,-3.1481,-3.1496,-3.1496,-3.1496,-3.1496,-3.1496,-3.1496,-3.1496,-3.1496,-3.1496,-3.1496,-3.1496,-3.1496,-3.1496,-3.1436,-3.1466,-3.1481,-3.1436,-3.1256,-3.0819,-3.0839,-3.0791,-3.0486,-3.016,-3.0049,-3.0363,-3.029,-3.0223,-3.032,-3.0593,-3.0898,-3.1015,-3.1035,-3.1092,-3.1171,-3.1173,-3.1123,-3.9933,-3.9388,-3.9388,-3.9328,-3.929,-3.9275,-3.9194,-3.9035,-3.7913,-3.736,-3.727,-3.7195,-3.6851,-3.6357,-3.6357,-3.6043,-3.5504,-3.5489,-3.5444,-3.5355,-3.537,-3.531,-3.5235,-3.522,-3.522,-3.522,-3.5205,-3.522,-3.522,-3.5205,-3.4921,-3.4429,-3.4369,-3.4053,-3.3529,-3.341,-3.332,-3.3185,-3.2269,-3.1756,-3.1756,-3.1855,-3.1894,-3.183,-3.1396,-3.1128,-3.1048,-3.0573,-3.0314,-3.0288,-3.0199,-3.0354,-3.0779,-3.0703,-3.0837,-3.1281,-3.1326,-3.1357,-3.1389,-3.1419,-3.1435,-3.1496,-3.1496,-3.1466,-3.1433,-3.148,-3.1496,-3.1496,-3.1496,-3.1496,-3.1496,-3.1496,-3.1496,-3.1496,-3.1496,-3.1496,-3.1496,-3.1496,-3.1496,-3.1496,-3.1496,-3.1496,-3.1496,-3.1496,-3.1496,-3.1496,-3.1496,-3.1496,-3.1496,-3.1496,-3.1496,-3.1496,-3.1496,-3.1496,-3.1496,-3.1496,-3.1421,-3.1391,-3.1782,-3.1705,-3.0739,-3.083,-3.0866,-3.0555,-3.0076,-2.9935,-3.0263,-2.9965,-3.006,-3.0396,-3.0501,-3.0617,-3.1035,-3.1151,-3.119,-4.0546,-3.9978,-3.9948,-3.9753,-3.9388,-3.9388,-3.9388,-3.9343,-3.8781,-3.8272,-3.7913,-3.7569,-3.7255,-3.7,-3.6985,-3.6836,-3.6537,-3.6178,-3.6043,-3.6013,-3.5669,-3.5489,-3.5489,-3.5489,-3.5489,-3.5489,-3.5489,-3.5489,-3.5489,-3.5489,-3.5355,-3.504,-3.5026,-3.4891,-3.4577,-3.4218,-3.4023,-3.4024,-3.3186,-3.2556,-3.2181,-3.2238,-3.2087,-3.1756,-3.1496,-3.1373,-3.1373,-3.1084,-3.093,-3.0973,-3.089,-3.097,-3.12,-3.1146,-3.1224,-3.1481,-3.1496,-3.1496,-3.1496,-3.1496,-3.1496,-3.1496,-3.1496,-3.1496,-3.1496,-3.1496,-3.1496,-3.1496,-3.1496,-3.1496,-3.1496,-3.1496,-3.1496,-3.1496,-3.1496,-3.1496,-3.1496,-3.1496,-3.1496,-3.1496,-3.1496,-3.1496,-3.1496,-3.1496,-3.1496,-3.1496,-3.1496,-3.1496,-3.1496,-3.1496,-3.1496,-3.1496,-3.1496,-3.1496,-3.1496,-3.1496,-3.1496,-3.1496,-3.1768,-3.1717,-3.1089,-3.1142,-3.0855,-3.059,-3.0206,-3.0188,-3.0418,-3.0204,-3.0147,-3.0206,-3.0315,-3.0464,-3.0658,-3.0955,-3.1171,-4.1257,-4.0621,-4.0621,-4.0232,-3.9597,-3.9484,-3.9388,-3.9388,-3.9373,-3.911,-3.8586,-3.8078,-3.7778,-3.7629,-3.7629,-3.7554,-3.736,-3.6911,-3.6701,-3.6626,-3.6028,-3.5729,-3.5699,-3.5594,-3.5489,-3.5489,-3.5489,-3.5489,-3.5489,-3.5489,-3.5489,-3.5489,-3.5489,-3.5489,-3.5489,-3.4966,-3.4711,-3.4698,-3.4203,-3.3559,-3.2736,-3.2736,-3.2378,-3.178,-3.172,-3.166,-3.1511,-3.1496,-3.1496,-3.1496,-3.1496,-3.1496,-3.1496,-3.1496,-3.1496,-3.1496,-3.1496,-3.1496,-3.1496,-3.1496,-3.1496,-3.1496,-3.1496,-3.1496,-3.1496,-3.1496,-3.1496,-3.1496,-3.1496,-3.1496,-3.1496,-3.1496,-3.1496,-3.1496,-3.1496,-3.1496,-3.1496,-3.1496,-3.1496,-3.1496,-3.1496,-3.1496,-3.1496,-3.1496,-3.1496,-3.1496,-3.1496,-3.1496,-3.1496,-3.1496,-3.1496,-3.1496,-3.1496,-3.1496,-3.1496,-3.1496,-3.1496,-3.1496,-3.1524,-3.1523,-3.1376,-3.1046,-3.0791,-3.0756,-3.0588,-3.0486,-3.0494,-3.0291,-3.024,-3.0323,-3.038,-3.0406,-3.0634,-3.0593,-3.0915,-4.1916,-4.1377,-4.128,-4.0905,-4.0262,-3.9694,-3.9403,-3.9403,-3.9388,-3.9358,-3.9239,-3.9224,-3.8856,-3.8347,-3.8302,-3.8018,-3.7494,-3.736,-3.7315,-3.7255,-3.6686,-3.6402,-3.6342,-3.5804,-3.5504,-3.5519,-3.5519,-3.5489,-3.5489,-3.5489,-3.5489,-3.5489,-3.5489,-3.5489,-3.5489,-3.5429,-3.54,-3.54,-3.5355,-3.4711,-3.3499,-3.341,-3.3095,-3.2407,-3.2437,-3.2108,-3.157,-3.1496,-3.1511,-3.1496,-3.1496,-3.1496,-3.1496,-3.1496,-3.1496,-3.1496,-3.1496,-3.1496,-3.1496,-3.1496,-3.1496,-3.1496,-3.1496,-3.1496,-3.1496,-3.1496,-3.1496,-3.1496,-3.1496,-3.1496,-3.1496,-3.1496,-3.1496,-3.1496,-3.1496,-3.1496,-3.1496,-3.1496,-3.1496,-3.1496,-3.1496,-3.1496,-3.1496,-3.1496,-3.1496,-3.1496,-3.1496,-3.1496,-3.1496,-3.1496,-3.1496,-3.1496,-3.1496,-3.1496,-3.1496,-3.1496,-3.1496,-3.1496,-3.1496,-3.1496,-3.1451,-3.1451,-3.1406,-3.1165,-3.0938,-3.0641,-3.0448,-3.0099,-2.9955,-3.034,-3.0498,-3.0613,-3.093,-3.0527,-3.0288,-4.2551,-4.2006,-4.2006,-4.1617,-4.092,-4.0277,-3.9993,-3.9963,-3.9589,-3.9388,-3.9388,-3.9388,-3.926,-3.899,-3.899,-3.8841,-3.8586,-3.8182,-3.8003,-3.7928,-3.733,-3.703,-3.6956,-3.6387,-3.6088,-3.6043,-3.5699,-3.5489,-3.5489,-3.5489,-3.5489,-3.5489,-3.5489,-3.5489,-3.5489,-3.5489,-3.5489,-3.5489,-3.5489,-3.522,-3.4726,-3.4277,-3.3769,-3.317,-3.3095,-3.2781,-3.2168,-3.2079,-3.1899,-3.154,-3.1496,-3.1496,-3.1496,-3.1496,-3.1496,-3.1496,-3.1496,-3.1496,-3.1496,-3.1496,-3.1496,-3.1496,-3.1496,-3.1496,-3.1496,-3.1496,-3.1496,-3.1496,-3.1496,-3.1496,-3.1496,-3.1496,-3.1496,-3.1496,-3.1496,-3.1496,-3.1496,-3.1496,-3.1496,-3.1496,-3.1496,-3.1496,-3.1496,-3.1496,-3.1496,-3.1496,-3.1496,-3.1496,-3.1496,-3.1496,-3.1496,-3.1496,-3.1496,-3.1496,-3.1496,-3.1496,-3.1496,-3.1496,-3.1496,-3.1496,-3.1496,-3.1496,-3.1496,-3.1496,-3.1227,-3.1047,-3.112,-3.0597,-3.0255,-3.0517,-3.0531,-3.067,-3.1236,-3.094,-3.0797,-4.306,-4.2641,-4.2485,-4.2126,-4.1632,-4.095,-4.0561,-4.0352,-3.9888,-3.9589,-3.9388,-3.9388,-3.9388,-3.9388,-3.9388,-3.9388,-3.9328,-3.8901,-3.8661,-3.8601,-3.7988,-3.7674,-3.7614,-3.7045,-3.6746,-3.6641,-3.6088,-3.5699,-3.5534,-3.5489,-3.5489,-3.5489,-3.5489,-3.5489,-3.5489,-3.5489,-3.5489,-3.5489,-3.5489,-3.5489,-3.5415,-3.5011,-3.4442,-3.3844,-3.3769,-3.3455,-3.2781,-3.2796,-3.2542,-3.2064,-3.1884,-3.178,-3.1765,-3.16,-3.1496,-3.1496,-3.1496,-3.1496,-3.1496,-3.1496,-3.1496,-3.1496,-3.1496,-3.1496,-3.1496,-3.1496,-3.1496,-3.1496,-3.1496,-3.1496,-3.1496,-3.1496,-3.1496,-3.1496,-3.1496,-3.1496,-3.1496,-3.1496,-3.1496,-3.1496,-3.1496,-3.1496,-3.1496,-3.1496,-3.1496,-3.1496,-3.1496,-3.1496,-3.1496,-3.1496,-3.1496,-3.1496,-3.1496,-3.1496,-3.1496,-3.1496,-3.1496,-3.1496,-3.1496,-3.1496,-3.1496,-3.1496,-3.1496,-3.1496,-3.1496,-3.1466,-3.1376,-3.0972,-3.0746,-3.0726,-3.0679,-3.0763,-3.1256,-3.113,-3.08,-4.3275,-4.3155,-4.2641,-4.241,-4.2306,-4.1647,-4.098,-4.0531,-4.0367,-4.0008,-3.9514,-3.9388,-3.9388,-3.9388,-3.9388,-3.9388,-3.9409,-3.9313,-3.9284,-3.9209,-3.8646,-3.8347,-3.8287,-3.7689,-3.7375,-3.7315,-3.6731,-3.6163,-3.5609,-3.5534,-3.5489,-3.5519,-3.5519,-3.5489,-3.5489,-3.5489,-3.5489,-3.5489,-3.5489,-3.5489,-3.5489,-3.5459,-3.51,-3.4533,-3.4474,-3.4159,-3.3544,-3.3455,-3.341,-3.3395,-3.2781,-3.2467,-3.2422,-3.1884,-3.1585,-3.157,-3.157,-3.1555,-3.1585,-3.1615,-3.16,-3.157,-3.166,-3.1555,-3.169,-3.169,-3.169,-3.1555,-3.1675,-3.1645,-3.163,-3.157,-3.1511,-3.1496,-3.1496,-3.1496,-3.1496,-3.1496,-3.1496,-3.1496,-3.1496,-3.1496,-3.1496,-3.1496,-3.1496,-3.1496,-3.1496,-3.1496,-3.1496,-3.1496,-3.1496,-3.1496,-3.1496,-3.1496,-3.1496,-3.1496,-3.1496,-3.1496,-3.1496,-3.1496,-3.1496,-3.1496,-3.1496,-3.1496,-3.1496,-3.1496,-3.1496,-3.1451,-3.1361,-3.1195,-3.0864,-3.0961,-3.1327,-3.0411,-3.0164,-4.3305,-4.329,-4.309,-4.2985,-4.291,-4.2282,-4.1901,-4.1617,-4.0741,-4.0277,-3.9993,-3.9619,-3.9388,-3.9388,-3.9388,-3.9388,-3.9388,-3.9388,-3.9388,-3.9358,-3.9155,-3.905,-3.8975,-3.8362,-3.8033,-3.7943,-3.7389,-3.6971,-3.6701,-3.6342,-3.6133,-3.6043,-3.5714,-3.5489,-3.5489,-3.5489,-3.5489,-3.5489,-3.5489,-3.5489,-3.5489,-3.5489,-3.537,-3.516,-3.513,-3.4816,-3.4143,-3.4159,-3.3933,-3.3529,-3.3245,-3.314,-3.311,-3.2916,-3.2781,-3.2751,-3.2796,-3.2781,-3.2781,-3.2796,-3.2796,-3.2796,-3.2796,-3.2736,-3.2796,-3.2796,-3.2796,-3.2781,-3.2781,-3.2781,-3.2617,-3.2034,-3.1496,-3.1496,-3.1511,-3.1525,-3.1496,-3.1496,-3.1496,-3.1496,-3.1496,-3.1496,-3.1496,-3.1496,-3.1496,-3.1496,-3.1496,-3.1496,-3.1496,-3.1496,-3.1496,-3.1496,-3.1496,-3.1496,-3.1496,-3.1496,-3.1496,-3.1496,-3.1496,-3.1496,-3.1496,-3.1496,-3.1496,-3.1496,-3.1496,-3.1496,-3.1496,-3.1496,-3.1496,-3.1436,-3.1092,-3.1102,-3.1419,-3.0827,-3.0571,-4.3305,-4.3305,-4.3305,-4.3305,-4.3245,-4.2865,-4.259,-4.2321,-4.1414,-4.0801,-4.0382,-3.9933,-3.9597,-3.9403,-3.9388,-3.9388,-3.9388,-3.9388,-3.9388,-3.9388,-3.9388,-3.9388,-3.9349,-3.8931,-3.8721,-3.8616,-3.8048,-3.7644,-3.7375,-3.6985,-3.6791,-3.6731,-3.6133,-3.5818,-3.5804,-3.5609,-3.5489,-3.5489,-3.5489,-3.5489,-3.5489,-3.5489,-3.5489,-3.5489,-3.5489,-3.531,-3.4863,-3.4848,-3.4622,-3.4203,-3.3933,-3.3724,-3.3529,-3.3499,-3.3499,-3.3499,-3.3484,-3.3499,-3.3499,-3.3499,-3.3484,-3.3484,-3.3499,-3.3499,-3.3499,-3.3499,-3.3499,-3.3499,-3.3499,-3.3499,-3.3335,-3.2677,-3.2138,-3.2108,-3.1944,-3.1824,-3.1795,-3.163,-3.1511,-3.1496,-3.1496,-3.1496,-3.1496,-3.1496,-3.1496,-3.1496,-3.1496,-3.1496,-3.1496,-3.1496,-3.1496,-3.1496,-3.1496,-3.1496,-3.1496,-3.1496,-3.1496,-3.1496,-3.1496,-3.1496,-3.1496,-3.1496,-3.1496,-3.1496,-3.1496,-3.1496,-3.1496,-3.1496,-3.1496,-3.1496,-3.1421,-3.1359,-3.1462,-3.1493,-3.1177,-4.3305,-4.3305,-4.3305,-4.3305,-4.329,-4.323,-4.294,-4.2515,-4.2336,-4.1617,-4.0711,-4.0397,-4.0008,-3.9523,-3.9433,-3.9388,-3.9388,-3.9388,-3.9388,-3.9388,-3.9388,-3.9388,-3.9373,-3.9313,-3.9305,-3.929,-3.8706,-3.8093,-3.7614,-3.7494,-3.7419,-3.73,-3.6791,-3.6492,-3.6492,-3.5923,-3.5564,-3.5564,-3.5549,-3.5504,-3.5489,-3.5489,-3.5489,-3.5489,-3.5489,-3.5474,-3.5444,-3.5444,-3.5385,-3.5325,-3.4801,-3.4219,-3.3754,-3.3679,-3.3589,-3.3679,-3.3604,-3.3574,-3.3604,-3.3664,-3.3724,-3.3724,-3.3619,-3.3739,-3.3784,-3.3739,-3.3724,-3.3754,-3.3724,-3.3634,-3.3679,-3.3574,-3.344,-3.3395,-3.2841,-3.2497,-3.2392,-3.1944,-3.154,-3.1645,-3.166,-3.154,-3.1525,-3.1525,-3.1511,-3.1496,-3.1496,-3.1496,-3.1496,-3.1496,-3.1496,-3.1496,-3.1496,-3.1496,-3.1496,-3.1496,-3.1496,-3.1496,-3.1496,-3.1496,-3.1496,-3.1496,-3.1496,-3.1496,-3.1496,-3.1496,-3.1496,-3.1496,-3.1496,-3.1496,-3.1496,-3.1496,-3.1496,-3.1496,-3.1496,-4.3305,-4.3305,-4.3305,-4.3305,-4.3305,-4.3305,-4.317,-4.2985,-4.262,-4.2171,-4.1662,-4.0801,-4.0277,-4.0008,-3.9649,-3.9388,-3.9388,-3.9388,-3.9388,-3.9388,-3.9388,-3.9388,-3.9388,-3.9388,-3.9388,-3.9358,-3.923,-3.9005,-3.8721,-3.8302,-3.8078,-3.7958,-3.7434,-3.715,-3.7105,-3.6507,-3.6178,-3.6133,-3.5729,-3.5489,-3.5489,-3.5504,-3.5489,-3.5489,-3.5489,-3.5489,-3.5489,-3.5489,-3.5489,-3.5489,-3.531,-3.5085,-3.4906,-3.4876,-3.4891,-3.4876,-3.4876,-3.4876,-3.4876,-3.4814,-3.4799,-3.4829,-3.4829,-3.4876,-3.4876,-3.4846,-3.4831,-3.4831,-3.4876,-3.4876,-3.4891,-3.4891,-3.4472,-3.3604,-3.332,-3.317,-3.311,-3.2961,-3.2901,-3.2826,-3.2467,-3.2213,-3.2093,-3.1899,-3.1615,-3.1555,-3.154,-3.154,-3.1511,-3.1496,-3.1496,-3.1496,-3.1496,-3.1496,-3.1496,-3.1496,-3.1496,-3.1496,-3.1496,-3.1496,-3.1496,-3.1496,-3.1496,-3.1496,-3.1496,-3.1496,-3.1496,-3.1496,-3.1496,-3.1496,-3.1496,-3.1496,-3.1496,-3.1496,-3.1496,-4.3305,-4.3305,-4.3305,-4.3305,-4.3305,-4.3305,-4.3305,-4.3245,-4.291,-4.262,-4.2231,-4.1504,-4.0831,-4.0397,-3.9948,-3.9649,-3.9418,-3.9388,-3.9388,-3.9388,-3.9388,-3.9388,-3.9388,-3.9388,-3.9388,-3.9388,-3.9388,-3.9388,-3.9358,-3.9005,-3.8766,-3.8661,-3.8108,-3.7778,-3.7719,-3.7165,-3.6821,-3.6731,-3.6207,-3.5878,-3.5818,-3.5624,-3.5489,-3.5489,-3.5489,-3.5489,-3.5489,-3.5489,-3.5489,-3.5489,-3.5489,-3.5489,-3.5489,-3.5474,-3.5489,-3.5489,-3.5489,-3.5474,-3.5457,-3.5059,-3.4953,-3.4953,-3.4938,-3.4924,-3.4986,-3.518,-3.5489,-3.5489,-3.5459,-3.5489,-3.5474,-3.5489,-3.507,-3.4382,-3.4023,-3.3769,-3.3604,-3.3499,-3.3484,-3.335,-3.311,-3.2916,-3.2751,-3.2602,-3.2138,-3.1959,-3.1869,-3.169,-3.1615,-3.1496,-3.1511,-3.1525,-3.1496,-3.1496,-3.1496,-3.1496,-3.1496,-3.1496,-3.1496,-3.1496,-3.1496,-3.1496,-3.1496,-3.1496,-3.1496,-3.1496,-3.1496,-3.1496,-3.1496,-3.1496,-3.1496,-3.1496,-3.1496,-3.1496,-3.1496,-4.3305,-4.3305,-4.3305,-4.3305,-4.3305,-4.3305,-4.3305,-4.329,-4.326,-4.297,-4.2545,-4.2306,-4.1647,-4.0681,-4.0367,-3.9978,-3.9478,-3.9388,-3.9388,-3.9388,-3.9388,-3.9388,-3.9388,-3.9388,-3.9388,-3.9388,-3.9388,-3.9388,-3.9388,-3.9313,-3.9409,-3.9224,-3.8751,-3.8452,-3.8332,-3.7808,-3.7464,-3.7389,-3.6851,-3.6537,-3.6507,-3.5923,-3.5609,-3.5609,-3.5534,-3.5424,-3.5279,-3.51,-3.5246,-3.5457,-3.5489,-3.5424,-3.5392,-3.5424,-3.5311,-3.5279,-3.5377,-3.5424,-3.5246,-3.4658,-3.4143,-3.4163,-3.4027,-3.391,-3.4041,-3.4691,-3.5198,-3.5231,-3.5392,-3.5489,-3.5489,-3.5489,-3.5429,-3.5415,-3.4846,-3.4337,-3.3754,-3.3724,-3.3844,-3.3769,-3.3619,-3.3559,-3.3529,-3.344,-3.308,-3.2751,-3.2527,-3.2303,-3.1989,-3.1884,-3.1645,-3.1615,-3.166,-3.1496,-3.1496,-3.1496,-3.1496,-3.1496,-3.1496,-3.1496,-3.1496,-3.1496,-3.1496,-3.1496,-3.1496,-3.1496,-3.1496,-3.1496,-3.1496,-3.1496,-3.1496,-3.1496,-3.1496,-3.1496,-3.1496,-4.3305,-4.3305,-4.3305,-4.3305,-4.3305,-4.3305,-4.3305,-4.3305,-4.3305,-4.3185,-4.3,-4.2605,-4.1976,-4.113,-4.0621,-4.0038,-3.9553,-3.9388,-3.9388,-3.9388,-3.9388,-3.9388,-3.9388,-3.9388,-3.9388,-3.9388,-3.9388,-3.9388,-3.9388,-3.9388,-3.9388,-3.9409,-3.923,-3.911,-3.9035,-3.8452,-3.8153,-3.8033,-3.7494,-3.7165,-3.7075,-3.6552,-3.6222,-3.6178,-3.5741,-3.5129,-3.4428,-3.3719,-3.4124,-3.5392,-3.5489,-3.5133,-3.4509,-3.4428,-3.4461,-3.4394,-3.4428,-3.4758,-3.5133,-3.4461,-3.3993,-3.391,-3.331,-3.2982,-3.2982,-3.3856,-3.4312,-3.4528,-3.4971,-3.5424,-3.5457,-3.5457,-3.5457,-3.5489,-3.528,-3.51,-3.4936,-3.4966,-3.4981,-3.4936,-3.4517,-3.4309,-3.4143,-3.3873,-3.3514,-3.332,-3.3215,-3.3125,-3.2751,-3.2437,-3.2228,-3.2034,-3.1959,-3.166,-3.1496,-3.1496,-3.1496,-3.1496,-3.1496,-3.1496,-3.1496,-3.1496,-3.1496,-3.1496,-3.1496,-3.1496,-3.1496,-3.1496,-3.1496,-3.1496,-3.1496,-3.1496,-3.1496,-3.1496,-3.1496,-4.3305,-4.3305,-4.3305,-4.3305,-4.3305,-4.3305,-4.3305,-4.3305,-4.3305,-4.3305,-4.32,-4.2955,-4.2402,-4.1796,-4.1115,-4.0442,-3.9822,-3.9508,-3.9388,-3.9388,-3.9388,-3.9388,-3.9388,-3.9388,-3.9388,-3.9388,-3.9388,-3.9388,-3.9388,-3.9388,-3.9388,-3.9388,-3.9388,-3.9388,-3.9328,-3.9065,-3.8811,-3.8706,-3.8182,-3.7823,-3.7764,-3.7195,-3.6926,-3.6645,-3.5874,-3.4748,-3.3555,-3.2876,-3.3171,-3.4124,-3.4558,-3.4428,-3.3602,-3.3808,-3.3808,-3.3498,-3.3415,-3.3822,-3.4375,-3.365,-3.3066,-3.3136,-3.2571,-3.2105,-3.2164,-3.2841,-3.3415,-3.3484,-3.4007,-3.4225,-3.4341,-3.4624,-3.5034,-3.5392,-3.5489,-3.5489,-3.5489,-3.5444,-3.5489,-3.54,-3.5175,-3.4938,-3.4938,-3.4532,-3.4233,-3.4008,-3.3934,-3.3709,-3.3425,-3.314,-3.2916,-3.2766,-3.2378,-3.2049,-3.1781,-3.1706,-3.1511,-3.1482,-3.1496,-3.1496,-3.1496,-3.1496,-3.1496,-3.1496,-3.1496,-3.1496,-3.1496,-3.1496,-3.1496,-3.1496,-3.1496,-3.1496,-3.1496,-3.1496,-3.1496,-4.3305,-4.3305,-4.3305,-4.3305,-4.3305,-4.3305,-4.3305,-4.3305,-4.3305,-4.3305,-4.3275,-4.329,-4.2865,-4.2366,-4.1587,-4.098,-4.0337,-3.9694,-3.9433,-3.9388,-3.9388,-3.9388,-3.9388,-3.9388,-3.9388,-3.9388,-3.9388,-3.9388,-3.9388,-3.9388,-3.9388,-3.9388,-3.9388,-3.9388,-3.9373,-3.9328,-3.9373,-3.926,-3.8796,-3.8527,-3.8377,-3.7883,-3.7421,-3.6906,-3.5324,-3.4107,-3.3063,-3.2486,-3.2495,-3.2408,-3.3318,-3.331,-3.27,-3.3276,-3.3241,-3.2642,-3.2486,-3.2876,-3.3415,-3.2393,-3.1646,-3.2141,-3.1609,-3.1082,-3.123,-3.1888,-3.2464,-3.2451,-3.2536,-3.2855,-3.2961,-3.3463,-3.4211,-3.4905,-3.5231,-3.5359,-3.5504,-3.5489,-3.5489,-3.5489,-3.5489,-3.5489,-3.5489,-3.5444,-3.525,-3.4681,-3.4577,-3.4457,-3.4158,-3.3844,-3.3679,-3.3574,-3.3095,-3.2467,-3.2214,-3.1946,-3.1662,-3.1482,-3.1482,-3.1496,-3.1496,-3.1496,-3.1496,-3.1496,-3.1496,-3.1496,-3.1496,-3.1496,-3.1496,-3.1496,-3.1496,-3.1496,-3.1496,-3.1496,-3.1496,-4.3305,-4.3305,-4.3305,-4.3305,-4.3305,-4.3305,-4.3305,-4.3305,-4.3305,-4.3305,-4.3305,-4.3305,-4.297,-4.2381,-4.1782,-4.101,-4.0412,-3.9768,-3.9388,-3.9388,-3.9388,-3.9388,-3.9388,-3.9388,-3.9388,-3.9388,-3.9388,-3.9388,-3.9388,-3.9388,-3.9388,-3.9388,-3.9388,-3.9388,-3.9388,-3.9301,-3.9388,-3.9358,-3.9158,-3.896,-3.8775,-3.8284,-3.7579,-3.6729,-3.4626,-3.3288,-3.272,-3.2045,-3.1471,-3.1422,-3.2115,-3.248,-3.1769,-3.1779,-3.1779,-3.1609,-3.1536,-3.1924,-3.2451,-3.1901,-3.1291,-3.1426,-3.0809,-3.0113,-3.0177,-3.097,-3.1439,-3.1646,-3.2128,-3.2379,-3.2522,-3.2735,-3.3345,-3.4027,-3.4361,-3.4624,-3.5246,-3.5457,-3.5489,-3.5489,-3.5489,-3.5489,-3.5489,-3.5489,-3.5385,-3.528,-3.5188,-3.519,-3.4812,-3.436,-3.4178,-3.3949,-3.3256,-3.2629,-3.2576,-3.2208,-3.1676,-3.1442,-3.1412,-3.1482,-3.1482,-3.1336,-3.1278,-3.1365,-3.1496,-3.1496,-3.1496,-3.1496,-3.1496,-3.1496,-3.1496,-3.1496,-3.1496,-3.1496,-3.1496,-4.3305,-4.3305,-4.3305,-4.3305,-4.3305,-4.3305,-4.3305,-4.3305,-4.3305,-4.3305,-4.3305,-4.3305,-4.312,-4.2776,-4.2132,-4.1527,-4.0741,-3.9843,-3.9388,-3.9388,-3.9388,-3.9388,-3.9388,-3.9388,-3.9388,-3.9388,-3.9388,-3.9388,-3.9388,-3.9388,-3.9388,-3.9388,-3.9388,-3.9388,-3.9265,-3.8892,-3.862,-3.8457,-3.813,-3.789,-3.7803,-3.7572,-3.6678,-3.5572,-3.3976,-3.3014,-3.2143,-3.1714,-3.1304,-3.124,-3.1643,-3.1594,-3.0887,-3.0945,-3.0983,-3.062,-3.0558,-3.1007,-3.1476,-3.1156,-3.0733,-3.1156,-3.0317,-2.9921,-2.9856,-3.0317,-3.0495,-3.0633,-3.0983,-3.1415,-3.1852,-3.196,-3.2442,-3.3101,-3.3359,-3.3616,-3.4158,-3.492,-3.5489,-3.5489,-3.5489,-3.5489,-3.5489,-3.5344,-3.5409,-3.5272,-3.4607,-3.4545,-3.4526,-3.4138,-3.4189,-3.3886,-3.3191,-3.2778,-3.2856,-3.2465,-3.1685,-3.1413,-3.1271,-3.1383,-3.1468,-3.1249,-3.1014,-3.1248,-3.1496,-3.1496,-3.1496,-3.1496,-3.1496,-3.1467,-3.1467,-3.1496,-3.1467,-3.1409,-3.1438,-4.3305,-4.3305,-4.3305,-4.3305,-4.3305,-4.3305,-4.3305,-4.3305,-4.3305,-4.3305,-4.3305,-4.3305,-4.326,-4.3125,-4.265,-4.1991,-4.1055,-4.0232,-3.9649,-3.9388,-3.9388,-3.9388,-3.9388,-3.9388,-3.9388,-3.9388,-3.9388,-3.9388,-3.9388,-3.9388,-3.9388,-3.9352,-3.9141,-3.898,-3.887,-3.8107,-3.7548,-3.7458,-3.6891,-3.6526,-3.6487,-3.6392,-3.5619,-3.4527,-3.3735,-3.3077,-3.2206,-3.1829,-3.1662,-3.1524,-3.1512,-3.0972,-3.0555,-3.0624,-3.0942,-3.0146,-3.0312,-3.0714,-3.1163,-3.0766,-3.056,-3.1143,-3.0599,-3.0146,-3.0145,-3.0247,-3.0337,-3.0261,-3.0507,-3.0714,-3.1132,-3.1376,-3.1811,-3.2432,-3.2604,-3.2552,-3.2966,-3.421,-3.4673,-3.4854,-3.4591,-3.4509,-3.4872,-3.5019,-3.5166,-3.5133,-3.4428,-3.3876,-3.3808,-3.3759,-3.3693,-3.3411,-3.2643,-3.1901,-3.187,-3.2373,-3.1634,-3.1183,-3.1025,-3.1069,-3.116,-3.094,-3.0777,-3.1278,-3.1496,-3.1467,-3.1467,-3.1496,-3.1496,-3.1482,-3.1409,-3.1409,-3.1365,-3.1307,-3.1248,-4.3305,-4.3305,-4.3305,-4.3305,-4.3305,-4.3305,-4.3305,-4.3305,-4.3305,-4.3305,-4.3305,-4.3305,-4.3305,-4.318,-4.2695,-4.1767,-4.0861,-4.0262,-3.9873,-3.9463,-3.9388,-3.9388,-3.9388,-3.9388,-3.9388,-3.9388,-3.9388,-3.9388,-3.9388,-3.9388,-3.9388,-3.9213,-3.8531,-3.8182,-3.7904,-3.706,-3.6501,-3.6462,-3.6053,-3.588,-3.5841,-3.5801,-3.5453,-3.4303,-3.3653,-3.3136,-3.2937,-3.2729,-3.2591,-3.2152,-3.2089,-3.1725,-3.1326,-3.1352,-3.1314,-3.1052,-3.0959,-3.1097,-3.1229,-3.1211,-3.1165,-3.1312,-3.113,-3.1075,-3.1047,-3.1047,-3.0922,-3.0972,-3.1037,-3.1168,-3.1352,-3.1361,-3.1808,-3.2318,-3.2372,-3.2383,-3.2942,-3.3207,-3.3276,-3.336,-3.3319,-3.3463,-3.3939,-3.4259,-3.4259,-3.4143,-3.3671,-3.3122,-3.2841,-3.2841,-3.2813,-3.2445,-3.1974,-3.1222,-3.0637,-3.1355,-3.1418,-3.0817,-3.0571,-3.0383,-3.0439,-3.0391,-3.0536,-3.1087,-3.1352,-3.1322,-3.1351,-3.1365,-3.1029,-3.0688,-3.0896,-3.1219,-3.0837,-3.045,-3.048,-4.3305,-4.3305,-4.3305,-4.3305,-4.3305,-4.3305,-4.3305,-4.3305,-4.3305,-4.3305,-4.3305,-4.3305,-4.3305,-4.3215,-4.306,-4.2132,-4.113,-4.0502,-4.0038,-3.9508,-3.9388,-3.9388,-3.9352,-3.9388,-3.9388,-3.9388,-3.9388,-3.9352,-3.9388,-3.9388,-3.9316,-3.9156,-3.8345,-3.7791,-3.7396,-3.6239,-3.5561,-3.5359,-3.4952,-3.4637,-3.4637,-3.465,-3.429,-3.3869,-3.3471,-3.3167,-3.3124,-3.3124,-3.2955,-3.2717,-3.2654,-3.2503,-3.237,-3.2219,-3.1976,-3.1549,-3.1436,-3.1411,-3.1399,-3.1386,-3.1389,-3.1402,-3.1411,-3.1386,-3.1386,-3.1348,-3.1449,-3.1411,-3.1386,-3.1386,-3.1377,-3.1424,-3.1645,-3.1877,-3.1859,-3.2006,-3.2201,-3.2132,-3.2089,-3.2117,-3.2573,-3.2894,-3.3101,-3.3276,-3.3276,-3.3087,-3.2841,-3.2415,-3.196,-3.1888,-3.1888,-3.1706,-3.1315,-3.0887,-3.0327,-3.0725,-3.107,-3.0537,-3.0129,-2.9956,-2.9874,-2.9896,-3.0375,-3.1029,-3.1127,-3.0819,-3.0881,-3.0748,-3.0299,-2.9964,-3.0299,-3.0434,-2.9919,-2.9642,-2.9628,-4.3305,-4.3305,-4.3305,-4.3305,-4.3305,-4.3305,-4.3305,-4.3305,-4.3305,-4.3305,-4.3305,-4.3305,-4.3305,-4.329,-4.3155,-4.2656,-4.1549,-4.092,-4.0292,-3.9738,-3.9448,-3.9337,-3.9068,-3.9031,-3.8833,-3.8383,-3.887,-3.9053,-3.8943,-3.8943,-3.8907,-3.8256,-3.7625,-3.7165,-3.6632,-3.5183,-3.4594,-3.4108,-3.3628,-3.3124,-3.3124,-3.3124,-3.3124,-3.3124,-3.3124,-3.3124,-3.3124,-3.3124,-3.3124,-3.3074,-3.3074,-3.3086,-3.3111,-3.3124,-3.2696,-3.1955,-3.1738,-3.1725,-3.1763,-3.18,-3.1901,-3.1913,-3.1788,-3.1763,-3.1788,-3.1913,-3.1825,-3.1725,-3.1775,-3.1838,-3.1901,-3.1788,-3.1829,-3.1804,-3.1782,-3.1606,-3.1691,-3.1701,-3.1603,-3.1785,-3.2131,-3.2374,-3.26,-3.2545,-3.26,-3.2299,-3.2033,-3.1549,-3.1119,-3.0945,-3.0908,-3.0908,-3.0733,-3.0457,-3.024,-3.034,-3.0509,-3.0246,-2.9855,-2.9637,-2.9517,-2.948,-3.0074,-3.054,-3.0076,-2.9838,-2.995,-3.0009,-2.9549,-2.9393,-2.9704,-2.958,-2.9002,-2.8748,-2.8748,-4.3305,-4.3305,-4.3305,-4.3305,-4.3305,-4.3305,-4.3305,-4.3305,-4.3305,-4.3305,-4.3305,-4.3305,-4.3305,-4.3305,-4.3305,-4.2895,-4.2207,-4.1602,-4.0905,-4.0307,-3.9622,-3.8937,-3.8188,-3.7994,-3.7572,-3.7252,-3.7701,-3.7942,-3.7942,-3.7956,-3.7548,-3.6813,-3.6001,-3.5142,-3.5346,-3.4233,-3.3313,-3.327,-3.3197,-3.3124,-3.3124,-3.3124,-3.3124,-3.3124,-3.3124,-3.3124,-3.3124,-3.3124,-3.3124,-3.3124,-3.3124,-3.3124,-3.3124,-3.3124,-3.3056,-3.296,-3.2923,-3.291,-3.281,-3.2734,-3.2679,-3.2684,-3.2772,-3.2885,-3.2704,-3.2679,-3.2734,-3.2923,-3.2847,-3.2717,-3.2667,-3.2835,-3.2885,-3.2629,-3.2328,-3.2177,-3.2089,-3.1989,-3.1825,-3.1795,-3.2251,-3.2136,-3.2158,-3.2061,-3.1925,-3.1593,-3.1193,-3.0748,-3.0406,-3.0356,-3.0241,-3.0317,-3.0343,-3.0101,-3.0075,-3.0177,-3.0114,-2.991,-2.9706,-2.9475,-2.9402,-2.9392,-2.9434,-2.965,-2.9228,-2.9255,-2.9738,-2.9603,-2.8858,-2.8634,-2.8748,-2.846,-2.8019,-2.7887,-2.7887,-4.3305,-4.3305,-4.3305,-4.3305,-4.3305,-4.3305,-4.3305,-4.3305,-4.3305,-4.3305,-4.3305,-4.3305,-4.3305,-4.321,-4.3305,-4.297,-4.244,-4.1989,-4.1579,-4.068,-3.9719,-3.881,-3.8237,-3.7398,-3.6526,-3.6369,-3.6526,-3.6383,-3.6554,-3.7112,-3.7266,-3.6132,-3.5238,-3.4787,-3.4511,-3.3641,-3.324,-3.3124,-3.3124,-3.3124,-3.3124,-3.3124,-3.3124,-3.3124,-3.3124,-3.3124,-3.3124,-3.3124,-3.3124,-3.3124,-3.3124,-3.3124,-3.3124,-3.3124,-3.3111,-3.3111,-3.3099,-3.3099,-3.3099,-3.3124,-3.3124,-3.3124,-3.3124,-3.3074,-3.3124,-3.3124,-3.3124,-3.3111,-3.3111,-3.3124,-3.3124,-3.3124,-3.3124,-3.3011,-3.278,-3.2742,-3.2616,-3.2566,-3.2466,-3.239,-3.2307,-3.2266,-3.2167,-3.1988,-3.1875,-3.15,-3.1177,-3.0816,-3.0404,-3.0175,-3.0022,-2.9882,-2.9921,-2.9856,-2.9856,-2.9934,-2.996,-2.9858,-2.982,-2.9606,-2.9467,-2.9452,-2.9462,-2.9271,-2.9002,-2.9202,-2.9635,-2.904,-2.8146,-2.7855,-2.7703,-2.7517,-2.7351,-2.7129,-2.7095,-4.3305,-4.3305,-4.3305,-4.3305,-4.3305,-4.3305,-4.3305,-4.3305,-4.3305,-4.3305,-4.321,-4.2996,-4.2725,-4.2467,-4.2316,-4.2137,-4.2149,-4.1745,-4.1499,-4.0666,-3.9551,-3.836,-3.7508,-3.652,-3.5831,-3.5507,-3.5668,-3.5278,-3.5183,-3.5735,-3.6279,-3.5467,-3.4498,-3.4233,-3.4066,-3.3556,-3.3124,-3.3124,-3.3124,-3.3124,-3.3124,-3.3124,-3.3124,-3.3124,-3.3124,-3.3124,-3.3124,-3.3124,-3.3124,-3.3124,-3.3124,-3.3124,-3.3124,-3.3124,-3.3124,-3.3124,-3.3124,-3.3124,-3.3124,-3.3124,-3.3124,-3.3124,-3.3124,-3.3124,-3.3124,-3.3124,-3.3124,-3.3124,-3.3124,-3.3124,-3.3124,-3.3124,-3.3124,-3.3124,-3.3074,-3.3111,-3.3099,-3.2935,-3.286,-3.281,-3.2692,-3.2692,-3.2537,-3.2164,-3.182,-3.148,-3.1122,-3.0871,-3.0583,-3.0294,-3.0168,-3.0093,-2.9854,-2.9842,-2.9804,-2.9804,-2.9792,-2.9779,-2.9779,-2.9741,-2.9617,-2.9542,-2.9542,-2.9274,-2.8969,-2.8982,-2.9289,-2.833,-2.7457,-2.742,-2.7331,-2.7024,-2.6803,-2.6589,-2.6521,-4.3305,-4.3305,-4.3305,-4.3305,-4.3305,-4.3305,-4.3305,-4.3305,-4.3305,-4.325,-4.2996,-4.2249,-4.1295,-4.0532,-4.0618,-4.0915,-4.154,-3.9929,-4.0079,-3.9918,-3.8863,-3.7455,-3.6531,-3.579,-3.4884,-3.3997,-3.4371,-3.4191,-3.3755,-3.447,-3.4317,-3.3441,-3.3598,-3.3356,-3.3283,-3.324,-3.3124,-3.3124,-3.3124,-3.3124,-3.3124,-3.3124,-3.3124,-3.3124,-3.3124,-3.3124,-3.3124,-3.3124,-3.3124,-3.3124,-3.3124,-3.3124,-3.3124,-3.3124,-3.3124,-3.3124,-3.3124,-3.3124,-3.3124,-3.3124,-3.3124,-3.3124,-3.3124,-3.3124,-3.3124,-3.3124,-3.3124,-3.3124,-3.3124,-3.3124,-3.3124,-3.3124,-3.3124,-3.3124,-3.3124,-3.3124,-3.3124,-3.3111,-3.3048,-3.3099,-3.3074,-3.2955,-3.293,-3.2621,-3.2328,-3.1976,-3.1587,-3.1323,-3.1072,-3.0809,-3.0658,-3.047,-3.0068,-2.9917,-2.9854,-2.9829,-2.9792,-2.9779,-2.9779,-2.9779,-2.9741,-2.9705,-2.963,-2.9555,-2.9303,-2.9114,-2.8862,-2.8324,-2.7812,-2.7344,-2.7024,-2.6889,-2.6709,-2.6555,-2.6487,-4.3305,-4.3305,-4.3305,-4.3305,-4.3305,-4.3305,-4.3305,-4.3305,-4.329,-4.286,-4.2234,-4.1753,-4.0958,-4.0102,-3.9899,-4.0116,-4.0462,-3.9937,-3.9841,-3.9418,-3.8406,-3.7294,-3.6314,-3.5197,-3.417,-3.3694,-3.3773,-3.3641,-3.3283,-3.3641,-3.3526,-3.321,-3.3124,-3.3124,-3.3124,-3.3124,-3.3124,-3.3124,-3.3124,-3.3124,-3.3124,-3.3124,-3.3124,-3.3124,-3.3124,-3.3124,-3.3124,-3.3124,-3.3124,-3.3124,-3.3124,-3.3124,-3.3124,-3.3124,-3.3124,-3.3124,-3.3124,-3.3124,-3.3124,-3.3124,-3.3124,-3.3124,-3.3124,-3.3124,-3.3124,-3.3124,-3.3124,-3.3124,-3.3124,-3.3124,-3.3124,-3.3124,-3.3124,-3.3124,-3.3124,-3.3124,-3.3124,-3.3124,-3.3124,-3.3124,-3.3124,-3.3086,-3.3099,-3.3074,-3.2847,-3.2554,-3.2152,-3.18,-3.1587,-3.1336,-3.1173,-3.0959,-3.0583,-3.0281,-3.0206,-3.003,-2.9817,-2.9779,-2.9779,-2.9779,-2.9779,-2.9767,-2.9717,-2.9679,-2.9654,-2.9491,-2.9177,-2.8712,-2.8285,-2.7846,-2.7356,-2.6939,-2.6738,-2.6562,-2.6524,-4.2603,-4.2345,-4.2644,-4.2996,-4.329,-4.3305,-4.3305,-4.3305,-4.3305,-4.2426,-4.107,-4.0732,-3.9901,-3.9094,-3.8796,-3.9108,-3.9094,-3.8934,-3.9036,-3.8608,-3.7878,-3.7045,-3.6264,-3.5398,-3.4388,-3.3947,-3.3583,-3.3319,-3.3124,-3.3124,-3.3124,-3.3124,-3.3124,-3.3124,-3.3124,-3.3124,-3.3124,-3.3124,-3.3124,-3.3124,-3.3124,-3.3124,-3.3124,-3.3124,-3.3124,-3.3124,-3.3124,-3.3124,-3.3124,-3.3124,-3.3124,-3.3124,-3.3124,-3.3124,-3.3124,-3.3124,-3.3124,-3.3124,-3.3124,-3.3124,-3.3124,-3.3124,-3.3124,-3.3124,-3.3124,-3.3124,-3.3124,-3.3124,-3.3124,-3.3124,-3.3124,-3.3124,-3.3124,-3.3124,-3.3124,-3.3124,-3.3124,-3.3124,-3.3124,-3.3124,-3.3124,-3.3124,-3.3124,-3.3124,-3.3048,-3.2885,-3.2692,-3.2403,-3.224,-3.1976,-3.1687,-3.1461,-3.116,-3.0871,-3.058,-3.0407,-3.0156,-2.9779,-2.9779,-2.9779,-2.9779,-2.9779,-2.9779,-2.9741,-2.9741,-2.9779,-2.9566,-2.9202,-2.8825,-2.8436,-2.7921,-2.7394,-2.7052,-2.6889,-2.6675,-4.1042,-4.0145,-4.1211,-4.2249,-4.3036,-4.325,-4.3195,-4.3076,-4.2996,-4.1823,-3.9929,-3.8903,-3.7848,-3.7023,-3.7036,-3.7461,-3.7848,-3.7289,-3.7243,-3.7671,-3.7173,-3.6248,-3.5831,-3.5316,-3.4793,-3.411,-3.3771,-3.3508,-3.3199,-3.3136,-3.3136,-3.3124,-3.3124,-3.3124,-3.3124,-3.3124,-3.3124,-3.3124,-3.3124,-3.3124,-3.3124,-3.3124,-3.3124,-3.3124,-3.3124,-3.3124,-3.3124,-3.3124,-3.3124,-3.3124,-3.3124,-3.3124,-3.3124,-3.3124,-3.3124,-3.3124,-3.3124,-3.3124,-3.3124,-3.3124,-3.3124,-3.3124,-3.3124,-3.3124,-3.3124,-3.3124,-3.3124,-3.3124,-3.3124,-3.3124,-3.3124,-3.3124,-3.3124,-3.3124,-3.3124,-3.3124,-3.3124,-3.3124,-3.3124,-3.3124,-3.3124,-3.3124,-3.3124,-3.3124,-3.3124,-3.3086,-3.3111,-3.2998,-3.2754,-3.2566,-3.2252,-3.2026,-3.175,-3.1436,-3.1148,-3.0809,-3.0482,-3.0055,-2.9842,-2.9905,-2.9842,-2.9779,-2.9779,-2.9792,-2.9779,-2.9779,-2.9779,-2.9729,-2.9327,-2.8925,-2.8448,-2.7959,-2.7544,-2.7218,-2.709,-4.0232,-3.9942,-4.0318,-4.0717,-4.1141,-4.1864,-4.2152,-4.2029,-4.1337,-4.0131,-3.8917,-3.8198,-3.7448,-3.6709,-3.6417,-3.6675,-3.6803,-3.6803,-3.6849,-3.6849,-3.6546,-3.6364,-3.6031,-3.5658,-3.5295,-3.4831,-3.4412,-3.3909,-3.3646,-3.3345,-3.3162,-3.3124,-3.3124,-3.3124,-3.3124,-3.3124,-3.3124,-3.3124,-3.3124,-3.3124,-3.3124,-3.3124,-3.3124,-3.3124,-3.3124,-3.3124,-3.3124,-3.3124,-3.3124,-3.3124,-3.3124,-3.3124,-3.3124,-3.3124,-3.3124,-3.3124,-3.3124,-3.3124,-3.3124,-3.3124,-3.3124,-3.3124,-3.3124,-3.3124,-3.3124,-3.3124,-3.3124,-3.3124,-3.3124,-3.3124,-3.3124,-3.3124,-3.3124,-3.3124,-3.3124,-3.3124,-3.3124,-3.3124,-3.3124,-3.3124,-3.3124,-3.3124,-3.3124,-3.3124,-3.3124,-3.3124,-3.3124,-3.3124,-3.2973,-3.2986,-3.2822,-3.2604,-3.2353,-3.2026,-3.1687,-3.1336,-3.0934,-3.0495,-3.0269,-3.0193,-3.008,-2.993,-2.9804,-2.9817,-2.9804,-2.9779,-2.9779,-2.9779,-2.9716,-2.9402,-2.8938,-2.8473,-2.8021,-2.7745,-2.7595,-3.905,-3.8751,-3.9094,-3.9271,-3.9448,-4.0532,-4.1,-4.0788,-3.9798,-3.8827,-3.8153,-3.7723,-3.715,-3.6534,-3.6417,-3.6417,-3.6417,-3.6417,-3.6417,-3.6417,-3.6417,-3.638,-3.6254,-3.6006,-3.5705,-3.5357,-3.4868,-3.4374,-3.3872,-3.3545,-3.3338,-3.3174,-3.3124,-3.3124,-3.3124,-3.3124,-3.3124,-3.3124,-3.3124,-3.3124,-3.3124,-3.3124,-3.3124,-3.3124,-3.3124,-3.3124,-3.3124,-3.3124,-3.3124,-3.3124,-3.3124,-3.3124,-3.3124,-3.3124,-3.3124,-3.3124,-3.3124,-3.3124,-3.3124,-3.3124,-3.3124,-3.3124,-3.3124,-3.3124,-3.3124,-3.3124,-3.3124,-3.3124,-3.3124,-3.3124,-3.3124,-3.3124,-3.3124,-3.3124,-3.3124,-3.3124,-3.3124,-3.3124,-3.3124,-3.3124,-3.3124,-3.3124,-3.3124,-3.3124,-3.3124,-3.3124,-3.3124,-3.3124,-3.3124,-3.3124,-3.3124,-3.2973,-3.2754,-3.2441,-3.2139,-3.1863,-3.1424,-3.0959,-3.0783,-3.0683,-3.0382,-3.0231,-3.003,-2.9842,-2.9817,-2.9792,-2.9792,-2.9767,-2.9741,-2.9679,-2.9465,-2.8988,-2.8499,-2.831,-2.8185,-3.7415,-3.6615,-3.7586,-3.8062,-3.8257,-3.9227,-3.9724,-3.9637,-3.8545,-3.8017,-3.7926,-3.6883,-3.6499,-3.6452,-3.6417,-3.6417,-3.6417,-3.6417,-3.6417,-3.6417,-3.6417,-3.6417,-3.6417,-3.6329,-3.6019,-3.5683,-3.5295,-3.4768,-3.4073,-3.3796,-3.352,-3.3224,-3.3124,-3.3124,-3.3124,-3.3124,-3.3124,-3.3124,-3.3124,-3.3124,-3.3124,-3.3124,-3.3124,-3.3124,-3.3124,-3.3124,-3.3124,-3.3124,-3.3124,-3.3124,-3.3124,-3.3124,-3.3124,-3.3124,-3.3124,-3.3124,-3.3124,-3.3124,-3.3124,-3.3124,-3.3194,-3.3232,-3.325,-3.3187,-3.3124,-3.3124,-3.3124,-3.3124,-3.3124,-3.3124,-3.3124,-3.3124,-3.3124,-3.3124,-3.3124,-3.3124,-3.3124,-3.3124,-3.3124,-3.3124,-3.3124,-3.3124,-3.3124,-3.3124,-3.3124,-3.3124,-3.3124,-3.3124,-3.3124,-3.3124,-3.3124,-3.3111,-3.2918,-3.278,-3.2528,-3.2315,-3.1976,-3.1524,-3.1411,-3.1273,-3.0922,-3.0505,-3.0319,-3.0105,-2.9892,-2.9804,-2.9792,-2.9779,-2.9779,-2.9704,-2.9641,-2.949,-2.9001,-2.895,-2.8812,-3.6722,-3.6439,-3.6769,-3.6883,-3.6943,-3.7289,-3.7428,-3.7335,-3.6964,-3.6883,-3.6837,-3.6581,-3.6417,-3.6417,-3.6417,-3.6417,-3.6417,-3.6417,-3.6417,-3.6417,-3.6417,-3.6417,-3.6417,-3.6405,-3.6279,-3.6044,-3.573,-3.5345,-3.4881,-3.4437,-3.3621,-3.3156,-3.3149,-3.3136,-3.3124,-3.3124,-3.3124,-3.3124,-3.3124,-3.3124,-3.3124,-3.3124,-3.3124,-3.3124,-3.3124,-3.3124,-3.3124,-3.3124,-3.3124,-3.3124,-3.3136,-3.3136,-3.3124,-3.3124,-3.3124,-3.3124,-3.3124,-3.3124,-3.3124,-3.3136,-3.3269,-3.3596,-3.3658,-3.3382,-3.3232,-3.3224,-3.325,-3.3338,-3.3363,-3.3382,-3.3395,-3.337,-3.337,-3.3382,-3.3382,-3.337,-3.3382,-3.3382,-3.337,-3.3275,-3.3275,-3.3199,-3.3187,-3.3124,-3.3124,-3.3124,-3.3124,-3.3124,-3.3124,-3.3124,-3.3124,-3.3124,-3.3099,-3.2918,-3.2943,-3.278,-3.2453,-3.2139,-3.2026,-3.1788,-3.1348,-3.0972,-3.0645,-3.0369,-3.0131,-2.993,-2.9792,-2.9779,-2.9779,-2.9779,-2.9729,-2.9679,-2.9591,-2.9453,-2.9302,-3.6417,-3.6417,-3.6417,-3.6417,-3.6417,-3.6417,-3.6417,-3.6417,-3.6417,-3.6417,-3.6417,-3.6417,-3.6417,-3.6417,-3.6417,-3.6417,-3.6417,-3.6417,-3.6417,-3.6417,-3.6417,-3.6417,-3.6417,-3.6417,-3.6392,-3.6254,-3.6044,-3.5755,-3.5307,-3.4525,-3.3658,-3.3458,-3.3257,-3.3149,-3.3124,-3.3124,-3.3124,-3.3124,-3.3124,-3.3124,-3.3124,-3.3124,-3.3124,-3.3124,-3.3124,-3.3149,-3.3149,-3.3162,-3.3162,-3.3212,-3.3206,-3.3407,-3.3495,-3.3596,-3.3746,-3.3809,-3.3822,-3.3834,-3.3847,-3.3809,-3.396,-3.411,-3.4223,-3.4073,-3.3935,-3.3884,-3.3872,-3.3884,-3.3822,-3.3784,-3.3759,-3.3746,-3.3759,-3.3771,-3.3759,-3.3759,-3.3771,-3.3784,-3.3658,-3.3483,-3.3382,-3.3294,-3.3262,-3.3199,-3.3124,-3.3124,-3.3124,-3.3124,-3.3124,-3.3124,-3.3124,-3.3124,-3.3124,-3.3086,-3.3124,-3.3124,-3.2872,-3.2604,-3.2604,-3.2303,-3.1813,-3.1474,-3.121,-3.0796,-3.0357,-3.0156,-2.9955,-2.9817,-2.9779,-2.9779,-2.9779,-2.9741,-2.9716,-2.9679,-2.9528,-3.6417,-3.6417,-3.6417,-3.6417,-3.6417,-3.6417,-3.6417,-3.6417,-3.6417,-3.6417,-3.6417,-3.6417,-3.6417,-3.6417,-3.6417,-3.6417,-3.6417,-3.6417,-3.6417,-3.6417,-3.6417,-3.6417,-3.6417,-3.6417,-3.6417,-3.6417,-3.6292,-3.5968,-3.5345,-3.4693,-3.4248,-3.3947,-3.3458,-3.3312,-3.3282,-3.3162,-3.3136,-3.3124,-3.3124,-3.3124,-3.3124,-3.3124,-3.3124,-3.3093,-3.3187,-3.3237,-3.3237,-3.3194,-3.3206,-3.3407,-3.3621,-3.3947,-3.411,-3.4299,-3.4512,-3.4575,-3.443,-3.4462,-3.4437,-3.4437,-3.46,-3.4668,-3.4743,-3.4793,-3.4801,-3.4462,-3.4349,-3.4336,-3.4286,-3.4274,-3.4274,-3.4274,-3.4274,-3.4274,-3.4274,-3.4274,-3.4274,-3.4261,-3.4173,-3.4022,-3.3947,-3.3834,-3.3671,-3.3621,-3.342,-3.3257,-3.3124,-3.3124,-3.3149,-3.3149,-3.3136,-3.3136,-3.3124,-3.3124,-3.3124,-3.3124,-3.3124,-3.3048,-3.298,-3.2842,-3.2365,-3.2051,-3.18,-3.1286,-3.0733,-3.0394,-3.0168,-3.0093,-2.9967,-2.9779,-2.9779,-2.9779,-2.9779,-2.974,-2.9729,-3.6417,-3.6417,-3.6417,-3.6417,-3.6417,-3.6417,-3.6417,-3.6417,-3.6417,-3.6417,-3.6417,-3.6417,-3.6417,-3.6417,-3.6417,-3.6417,-3.6417,-3.6417,-3.6417,-3.6417,-3.6417,-3.6417,-3.6417,-3.6417,-3.6417,-3.6417,-3.6329,-3.6107,-3.5629,-3.5169,-3.4831,-3.4455,-3.3985,-3.3709,-3.3671,-3.3445,-3.3257,-3.3338,-3.3282,-3.3269,-3.33,-3.3187,-3.3124,-3.3232,-3.337,-3.3671,-3.3796,-3.4073,-3.4211,-3.4399,-3.4437,-3.4525,-3.4537,-3.4643,-3.4693,-3.4693,-3.4851,-3.4889,-3.4901,-3.4951,-3.5064,-3.5219,-3.5357,-3.5655,-3.5567,-3.5052,-3.4731,-3.4743,-3.4756,-3.4768,-3.4781,-3.4781,-3.4781,-3.4781,-3.4781,-3.4781,-3.4781,-3.4731,-3.4726,-3.458,-3.4492,-3.4387,-3.4211,-3.401,-3.3796,-3.3533,-3.3219,-3.3106,-3.3199,-3.3212,-3.3174,-3.3162,-3.3124,-3.3124,-3.3124,-3.3124,-3.3124,-3.3124,-3.3086,-3.2986,-3.283,-3.2516,-3.2152,-3.1637,-3.1148,-3.0859,-3.0645,-3.0507,-3.0344,-3.0055,-2.9853,-2.9852,-2.9649,-2.9534,-2.9663,-3.6417,-3.6417,-3.6417,-3.6417,-3.6417,-3.6417,-3.6417,-3.6417,-3.6417,-3.6417,-3.6417,-3.6417,-3.6417,-3.6417,-3.6417,-3.6417,-3.6417,-3.6417,-3.6417,-3.6417,-3.6417,-3.6417,-3.6417,-3.6417,-3.6417,-3.6417,-3.6392,-3.6169,-3.5881,-3.552,-3.5207,-3.4969,-3.4575,-3.4248,-3.4211,-3.3935,-3.3759,-3.3847,-3.3746,-3.3746,-3.3696,-3.3596,-3.347,-3.3608,-3.3897,-3.4186,-3.4336,-3.4587,-3.4638,-3.4781,-3.4881,-3.5303,-3.5391,-3.5529,-3.5504,-3.5504,-3.5516,-3.5454,-3.5416,-3.5429,-3.5529,-3.5755,-3.5893,-3.6094,-3.6107,-3.5667,-3.5629,-3.5642,-3.5642,-3.5655,-3.5655,-3.5667,-3.5655,-3.5655,-3.5655,-3.5655,-3.5655,-3.5642,-3.5416,-3.5082,-3.4981,-3.4818,-3.463,-3.4392,-3.4274,-3.4248,-3.3872,-3.3558,-3.352,-3.3407,-3.3319,-3.3206,-3.325,-3.3162,-3.3124,-3.3124,-3.3124,-3.3124,-3.3124,-3.3074,-3.2986,-3.2767,-3.2466,-3.2026,-3.1675,-3.1461,-3.1248,-3.1035,-3.0696,-3.0394,-3.014,-2.9961,-2.9642,-2.9155,-2.887,-3.6417,-3.6417,-3.6417,-3.6417,-3.6417,-3.6417,-3.6417,-3.6417,-3.6417,-3.6417,-3.6417,-3.6417,-3.6417,-3.6417,-3.6417,-3.6417,-3.6417,-3.6417,-3.6417,-3.6417,-3.6417,-3.6417,-3.6417,-3.6417,-3.6417,-3.6417,-3.6405,-3.6405,-3.6304,-3.5956,-3.5658,-3.5483,-3.5157,-3.4826,-3.4768,-3.4668,-3.4517,-3.4512,-3.4442,-3.4568,-3.4487,-3.4274,-3.4085,-3.4198,-3.45,-3.4788,-3.4826,-3.4914,-3.4926,-3.5127,-3.5441,-3.5755,-3.6019,-3.6153,-3.6191,-3.6179,-3.6153,-3.6179,-3.6241,-3.6191,-3.6267,-3.6367,-3.6417,-3.6405,-3.6392,-3.6367,-3.6329,-3.6317,-3.6317,-3.6317,-3.6317,-3.6317,-3.6317,-3.6304,-3.6317,-3.6317,-3.6317,-3.6317,-3.5968,-3.5629,-3.5516,-3.5353,-3.5144,-3.4919,-3.4781,-3.4781,-3.4618,-3.4399,-3.4161,-3.3972,-3.3834,-3.3596,-3.3432,-3.3319,-3.3187,-3.3124,-3.3124,-3.3124,-3.3124,-3.3124,-3.3086,-3.2905,-3.2742,-3.2528,-3.2215,-3.1972,-3.1734,-3.1537,-3.1173,-3.0688,-3.0455,-3.0069,-2.912,-2.8591,-2.7782,-3.6417,-3.6417,-3.6417,-3.6417,-3.6417,-3.6417,-3.6417,-3.6417,-3.6417,-3.6417,-3.6417,-3.6417,-3.6417,-3.6417,-3.6417,-3.6417,-3.6417,-3.6417,-3.6417,-3.6417,-3.6417,-3.6417,-3.6417,-3.6417,-3.6417,-3.6417,-3.6417,-3.6417,-3.6417,-3.6292,-3.6182,-3.6107,-3.5596,-3.5332,-3.527,-3.5119,-3.4914,-3.4939,-3.4926,-3.4926,-3.4851,-3.4675,-3.4613,-3.4731,-3.5044,-3.5245,-3.5433,-3.583,-3.6028,-3.6141,-3.6128,-3.6254,-3.6342,-3.6417,-3.6417,-3.6417,-3.6417,-3.6417,-3.6417,-3.6417,-3.6417,-3.6417,-3.6417,-3.6417,-3.6405,-3.6405,-3.638,-3.638,-3.638,-3.638,-3.638,-3.638,-3.638,-3.638,-3.638,-3.638,-3.638,-3.638,-3.6254,-3.6107,-3.6069,-3.5994,-3.5956,-3.568,-3.5332,-3.5257,-3.5064,-3.4813,-3.4618,-3.4512,-3.4374,-3.4048,-3.3734,-3.3407,-3.3224,-3.3136,-3.3124,-3.3124,-3.3038,-3.2939,-3.2939,-3.3081,-3.2875,-3.2062,-3.2308,-3.2421,-3.2214,-3.165,-3.1464,-3.1009,-3.0701,-3.0216,-2.9032,-2.7935,-2.7028]},{"header":{"parameterUnit":"m.s-1","parameterCategory":1,"la1":31.0,"la2":29.5877,"lo1":-88.7671,"lo2":-86.6584,"dy":0.0162,"dx":0.0185,"nx":115,"ny":88,"refTime":"2023-03-18T06:00:00:Z","depth":0,"parameterNumber":3,"parameterNumberName":"V-component_of_WINDS"},"data":[0.0,0.0,0.0,0.0,0.0,0.0,0.0,0.0,0.0,0.0,0.0,0.0,0.0,0.0,0.0,0.0,0.0,0.0,0.0,0.0,0.0,0.0,0.0,0.0,0.0,0.0,0.0,0.0,0.0,0.0,0.0,0.0,0.0,0.0,0.0,0.0,0.0,0.0,0.0,0.0,0.0,0.0,0.0,0.0,0.0,0.0,0.0,0.0,0.0,0.0,0.0,0.0,0.0,0.0,0.0,0.0,0.0,0.0,0.0,0.0,0.0,0.0,0.0,0.0,0.0,0.0,0.0,0.0,0.0,0.0,0.0,0.0,0.0,0.0,0.0,0.0,0.0,0.0,0.0,0.0,0.0,0.0,0.0,0.0,0.0,0.0,0.0,0.0,0.0,0.0,0.0,0.0,0.0,0.0,0.0,0.0,0.0,0.0,0.0,0.0,0.0,0.0,0.0,0.0,0.0,0.0,0.0,0.0,0.0,0.0,0.0,0.0,0.0,0.0,0.0,0.0,0.0,0.0,0.0,0.0,0.0,0.0,0.0,0.0,0.0,0.0,0.0,0.0,0.0,0.0,0.0,0.0,0.0,0.0,0.0,0.0,0.0,0.0,0.0,0.0,0.0,0.0,0.0,0.0,0.0,0.0,0.0,0.0,0.0,0.0,0.0,0.0,0.0,0.0,0.0,0.0,0.0,0.0,0.0,0.0,0.0,0.0,0.0,0.0,0.0,0.0,0.0,0.0,0.0,0.0,0.0,0.0,0.0,0.0,0.0,0.0,0.0,0.0,0.0,0.0,0.0,0.0,0.0,0.0,0.0,0.0,0.0,0.0,0.0,0.0,0.0,0.0,0.0,0.0,0.0,0.0,0.0,0.0,0.0,0.0,0.0,0.0,0.0,0.0,0.0,0.0,0.0,0.0,0.0,0.0,0.0,0.0,0.0,0.0,0.0,0.0,0.0,0.0,0.0,0.0,0.0,0.0,0.0,0.0,0.0,0.0,0.0,0.0,0.0,0.0,0.0,0.0,0.0,0.0,0.0,0.0,0.0,0.0,0.0,0.0,0.0,0.0,0.0,0.0,0.0,0.0,0.0,0.0,0.0,0.0,0.0,0.0,0.0,0.0,0.0,0.0,0.0,0.0,0.0,0.0,0.0,0.0,0.0,0.0,0.0,0.0,0.0,0.0,0.0,0.0,0.0,0.0,0.0,0.0,0.0,0.0,0.0,0.0,0.0,0.0,0.0,0.0,0.0,0.0,0.0,0.0,0.0,0.0,0.0,0.0,0.0,0.0,0.0,0.0,0.0,0.0,0.0,0.0,0.0,0.0,0.0,0.0,0.0,0.0,0.0,0.0,0.0,0.0,0.0,0.0,0.0,0.0,0.0,0.0,0.0,0.0,0.0,0.0,0.0,0.0,0.0,0.0,0.0,0.0,0.0,0.0,0.0,0.0,0.0,0.0,0.0,0.0,0.0,0.0,0.0,0.0,0.0,0.0,0.0,0.0,0.0,0.0,0.0,0.0,0.0,0.0,0.0,0.0,0.0,0.0,0.0,0.0,0.0,0.0,0.0,0.0,0.0,0.0,0.0,0.0,0.0,0.0,0.0,0.0,0.0,0.0,0.0,0.0,0.0,0.0,0.0,0.0,0.0,0.0,0.0,0.0,0.0,0.0,0.0,0.0,0.0,0.0,0.0,0.0,0.0,0.0,0.0,0.0,0.0,0.0,0.0,0.0,0.0,0.0,0.0,0.0,0.0,0.0,0.0,0.0,0.0,0.0,0.0,0.0,0.0,0.0,0.0,0.0,0.0,0.0,0.0,0.0,0.0,0.0,0.0,0.0,0.0,0.0,0.0,0.0,0.0,0.0,0.0,0.0,0.0,0.0,0.0,0.0,0.0,0.0,0.0,0.0,0.0,0.0,0.0,0.0,0.0,0.0,0.0,0.0,0.0,0.0,0.0,0.0,0.0,0.0,0.0,0.0,0.0,0.0,0.0,0.0,0.0,0.0,0.0,0.0,0.0,0.0,0.0,0.0,0.0,0.0,0.0,0.0,0.0,0.0,0.0,0.0,0.0,0.0,0.0,0.0,0.0,0.0,0.0,0.0,0.0,0.0,0.0,0.0,0.0,0.0,0.0,0.0,0.0,0.0,0.0,0.0,0.0,0.0,0.0,0.0,0.0,0.0,0.0,0.0,0.0,0.0,0.0,0.0,0.0,0.0,0.0,0.0,0.0,0.0,0.0,0.0,0.0,0.0,0.0,0.0,0.0,0.0,0.0,0.0,0.0,0.0,0.0,0.0,0.0,0.0,0.0,0.0,0.0,0.0,0.0,0.0,0.0,0.0,0.0,0.0,0.0,0.0,0.0,0.0,0.0,0.0,0.0,0.0,0.0,0.0,0.0,0.0,0.0,0.0,0.0,0.0,0.0,0.0,0.0,0.0,0.0,0.0,0.0,0.0,0.0,0.0,0.0,0.0,0.0,0.0,0.0,0.0,0.0,0.0,0.0,0.0,0.0,0.0,0.0,0.0,0.0,0.0,0.0,0.0,0.0,0.0,0.0,0.0,0.0,0.0,0.0,0.0,0.0,0.0,0.0,0.0,0.0,0.0,0.0,0.0,0.0,0.0,0.0,0.0,0.0,0.0,0.0,0.0,0.0,0.0,0.0,0.0,0.0,0.0,0.0,0.0,0.0,0.0,0.0,0.0,0.0,0.0,0.0,0.0,0.0,0.0,0.0,0.0,0.0,0.0,0.0,0.0,0.0,0.0,0.0,0.0,0.0,0.0,0.0,0.0,0.0,0.0,0.0,0.0,0.0,0.0,0.0,0.0,0.0,0.0,0.0,0.0,0.0,0.0,0.0,0.0,0.0,0.0,0.0,0.0,0.0,0.0,0.0,0.0,0.0,0.0,0.0,0.0,0.0,0.0,0.0,0.0,0.0,0.0,0.0,0.0,0.0,0.0,0.0,0.0,0.0,0.0,0.0,0.0,0.0,0.0,0.0,0.0,0.0,0.0,0.0,0.0,0.0,0.0,0.0,0.0,0.0,0.0,0.0,0.0,0.0,0.0,0.0,0.0,0.0,0.0,0.0,0.0,0.0,0.0,0.0,0.0,0.0,0.0,0.0,0.0,0.0,0.0,0.0,0.0,0.0,0.0,0.0,0.0,0.0,0.0,0.0,0.0,0.0,0.0,0.0,0.0,0.0,0.0,0.0,0.0,0.0,0.0,0.0,0.0,0.0,0.0,0.0,0.0,0.0,0.0,0.0,0.0,0.0,0.0,0.0,0.0,0.0,0.0,0.0,0.0,0.0,0.0,0.0,0.0,0.0,0.0,0.0,0.0,0.0,0.0,0.0,0.0,0.0,0.0,0.0,0.0,0.0,0.0,0.0,0.0,0.0,0.0,0.0,0.0,0.0,0.0,0.0,0.0,0.0,0.0,0.0,0.0,0.0,0.0,0.0,0.0,0.0,0.0,0.0,0.0,0.0,0.0,0.0,0.0,0.0,0.0,0.0,0.0,0.0,0.0,0.0,0.0,0.0,0.0,0.0,0.0,0.0,0.0,0.0,0.0,0.0,0.0,0.0,0.0,0.0,0.0,0.0,0.0,0.0,0.0,0.0,0.0,0.0,0.0,0.0,0.0,0.0,0.0,0.0,0.0,0.0,0.0,0.0,0.0,0.0,0.0,0.0,0.0,0.0,0.0,0.0,0.0,0.0,0.0,0.0,0.0,0.0,0.0,0.0,0.0,0.0,0.0,0.0,0.0,0.0,0.0,0.0,0.0,0.0,0.0,0.0,0.0,0.0,0.0,0.0,0.0,0.0,0.0,0.0,0.0,0.0,0.0,0.0,0.0,0.0,0.0,0.0,0.0,0.0,0.0,0.0,0.0,0.0,0.0,0.0,0.0,0.0,0.0,0.0,0.0,0.0,0.0,0.0,0.0,0.0,0.0,0.0,0.0,0.0,0.0,0.0,0.0,0.0,0.0,0.0,0.0,0.0,0.0,0.0,0.0,0.0,0.0,0.0,0.0,0.0,0.0,0.0,0.0,0.0,0.0,0.0,0.0,0.0,0.0,0.0,0.0,0.0,0.0,0.0,0.0,0.0,0.0,0.0,0.0,0.0,0.0,0.0,0.0,0.0,0.0,0.0,0.0,0.0,0.0,0.0,0.0,0.0,0.0,0.0,0.0,0.0,0.0,0.0,0.0,0.0,0.0,0.0,0.0,0.0,0.0,0.0,0.0,0.0,0.0,0.0,0.0,0.0,0.0,0.7954,0.0,0.0,0.0,0.0,0.0,0.0,0.0,0.0,0.0,0.0,0.0,0.0,0.0,0.0,0.0,0.0,0.0,0.0,0.0,0.0,0.0,0.0,0.0,0.0,0.0,0.0,0.0,0.0,0.0,0.0,0.0,0.0,0.0,0.0,0.0,0.0,0.0,0.0,0.0,0.0,0.0,0.0,0.0,0.0,0.0,0.0,0.0,0.0,0.0,0.0,0.0,0.0,0.0,0.0,0.0,0.0,0.0,0.0,0.0,0.0,0.0,0.0,0.0,0.0,0.0,0.0,0.0,0.0,0.0,0.0,0.0,0.0,0.0,0.0,0.0,0.0,0.0,0.0,0.0,0.0,0.0,0.0,0.0,0.0,0.0,0.0,0.0,0.0,0.0,0.0,0.0,0.0,0.0,0.0,0.0,0.0,0.0,0.0,0.0,0.0,0.0,0.0,0.0,0.0,0.0,0.0,0.0,0.0,0.0,0.0,0.8447,0.8376,0.8236,0.8172,0.8112,0.0,0.0,0.0,0.0,0.0,0.0,0.0,0.0,0.0,0.0,0.0,0.0,0.0,0.0,0.0,0.0,0.0,0.0,0.0,0.0,0.0,0.0,0.0,0.0,0.0,0.0,0.0,0.0,0.0,0.0,0.0,0.0,0.0,0.0,0.0,0.0,0.0,0.0,0.0,0.0,0.0,0.0,0.0,0.0,0.0,0.0,0.0,0.0,0.0,0.0,0.0,0.0,0.0,0.0,0.0,0.0,0.0,0.0,0.0,0.0,0.0,0.0,0.0,0.0,0.0,0.0,0.0,0.0,0.0,0.0,0.0,0.0,0.0,0.0,0.0,0.0,0.0,0.0,0.0,0.0,0.0,0.0,0.0,0.0,0.0,0.0,0.0,0.0,0.0,0.0,0.0,0.0,0.0,0.0,0.0,0.0,0.0,0.0,0.0,0.0,0.0,0.0,0.0,0.0,0.0,0.0,0.0,0.0,0.0,0.0,0.0,0.0,0.8339,0.8236,0.8204,0.0,0.0,0.0,0.0,0.0,0.0,0.0,0.0,0.0,0.0,0.0,0.0,0.0,0.0,0.0,0.0,0.0,0.0,0.0,0.0,0.0,0.0,0.0,0.0,0.0,0.0,0.0,0.0,0.0,0.0,0.0,0.0,0.0,0.0,0.0,0.0,0.0,0.0,0.0,0.0,0.0,0.0,0.0,0.0,0.0,0.0,0.0,0.0,0.0,0.0,0.0,0.0,0.0,0.0,0.0,0.0,0.0,0.0,0.0,0.0,0.0,0.0,0.0,0.0,0.0,0.0,0.0,0.0,0.0,0.0,0.0,0.0,0.0,0.0,0.0,0.0,0.0,0.0,0.0,0.0,0.0,0.0,0.0,0.0,0.0,0.0,0.0,0.0,0.0,0.0,0.0,0.0,0.0,0.0,0.0,0.0,0.0,0.0,0.0,0.0,0.0,0.0,0.0,0.0,0.0,0.0,0.0,0.0,0.0,0.0,0.8517,0.8517,0.8479,0.0,0.8236,0.0,0.0,0.0,0.0,0.0,0.0,0.0,0.0,0.0,0.0,0.0,0.0,0.0,0.0,0.0,0.0,0.0,0.0,0.0,0.0,0.0,0.0,0.0,0.0,0.0,0.0,0.0,0.0,0.0,0.0,0.0,0.0,0.0,0.0,0.0,0.0,0.0,0.0,0.0,0.0,0.0,0.0,0.0,0.0,0.0,0.0,0.0,0.0,0.0,0.0,0.0,0.0,0.0,0.0,0.0,0.0,0.0,0.0,0.0,0.0,0.0,0.0,0.0,0.0,0.0,0.0,0.0,0.0,0.0,0.0,0.0,0.0,0.0,0.0,0.0,0.0,0.0,0.0,0.0,0.0,0.0,0.0,0.0,0.0,0.0,0.0,0.0,0.0,0.0,0.0,0.0,0.0,0.0,0.0,0.0,0.0,0.0,0.0,0.0,0.0,0.0,0.0,0.0,0.0,0.0,0.0,0.0,0.0,0.0,0.0,0.8517,0.8517,0.8517,0.8447,0.0,0.0,0.0,0.0,0.0,0.0,0.0,0.0,0.0,0.0,0.0,0.0,0.0,0.0,0.0,0.0,0.0,0.0,0.0,0.0,0.0,0.0,0.0,0.0,0.0,0.0,0.0,0.0,0.0,0.0,0.0,0.0,0.0,0.0,0.0,0.0,0.0,0.0,0.0,0.0,0.0,0.0,0.0,0.0,0.0,0.0,0.0,0.0,0.0,0.0,0.0,0.0,0.0,0.0,0.0,0.0,0.0,0.0,0.0,0.0,0.0,0.0,0.0,0.0,0.0,0.0,0.0,0.0,0.0,0.0,0.0,0.0,0.0,0.0,0.0,0.0,0.0,0.0,0.0,0.0,0.0,0.0,0.0,0.0,0.0,0.0,0.0,0.0,0.0,0.0,0.0,0.0,0.0,0.0,0.0,0.0,0.0,0.0,0.0,0.0,0.0,0.0,0.0,0.0,0.0,0.0,0.0,0.0,0.0,0.0,0.8517,0.8576,0.8705,0.8576,0.8576,0.8705,0.0,0.0,0.0,0.0,0.0,0.0,0.0,0.0,0.0,0.0,0.0,0.0,0.0,0.0,0.0,0.0,0.0,0.0,0.0,0.0,0.0,0.0,0.0,0.0,0.0,0.0,0.0,0.0,0.0,0.0,0.0,0.0,0.0,0.0,0.0,0.0,0.0,0.0,0.0,0.0,0.0,0.0,0.0,0.0,0.0,0.0,0.0,0.0,0.0,0.0,0.0,0.0,0.0,0.0,0.0,0.0,0.0,0.0,0.0,0.0,0.0,0.0,0.0,0.0,0.0,0.0,0.0,0.0,0.0,0.0,0.0,0.0,0.0,0.0,0.0,0.0,0.0,0.0,0.0,0.0,0.0,0.0,0.0,0.0,0.0,0.0,0.0,0.0,0.0,0.0,0.0,0.0,0.0,0.0,0.0,0.0,0.0,0.0,0.0,0.0,0.0,0.0,0.0,0.0,0.0,0.0,0.0,0.0,0.8517,0.8517,0.8738,0.921,0.877,0.8738,0.0,0.0,0.0,0.0,0.0,0.0,0.0,0.0,0.0,0.0,0.0,0.0,0.0,0.0,0.0,0.0,0.0,0.0,0.0,0.0,0.0,0.0,0.0,0.0,0.0,0.0,0.0,0.0,0.0,0.0,0.0,0.0,0.0,0.0,0.0,0.0,0.0,0.0,0.0,0.0,0.0,0.0,0.0,0.0,0.0,0.0,0.0,0.0,0.0,0.0,0.0,0.0,0.0,0.0,0.0,0.0,0.0,0.0,0.0,0.0,0.0,0.0,0.0,0.0,0.0,0.0,0.0,0.0,0.0,0.0,0.0,0.0,0.0,0.0,0.0,0.0,0.0,0.0,0.0,0.0,0.0,0.0,0.0,0.0,0.0,0.0,0.0,0.0,0.0,0.0,0.0,0.0,0.0,0.0,0.0,0.0,0.0,0.0,0.0,0.0,0.0,0.0,0.0,0.0,0.0,0.0,0.0,0.0,0.0,0.8705,0.8576,0.8738,0.9268,0.9113,0.9242,0.0,0.0,0.0,0.0,0.0,0.0,0.0,0.0,0.0,0.0,0.0,0.0,0.0,0.0,0.0,0.0,0.0,0.0,0.0,0.0,0.0,0.0,0.0,0.0,0.0,0.0,0.0,0.0,0.0,0.0,0.0,0.0,0.0,0.0,0.0,0.0,0.0,0.0,0.0,0.0,0.0,0.0,0.0,0.0,0.0,0.0,0.0,0.0,0.0,0.0,0.0,0.0,0.0,0.0,0.0,0.0,0.0,0.0,0.0,0.0,0.0,0.0,0.0,0.0,0.0,0.0,0.0,0.0,0.0,0.0,0.0,0.0,0.0,0.0,0.0,0.0,0.0,0.0,0.0,0.0,0.0,0.0,0.0,0.0,0.0,0.0,0.0,0.0,0.0,0.0,0.0,0.0,0.0,0.0,0.0,0.0,0.0,0.0,0.0,0.0,0.0,0.0,0.0,0.0,0.0,0.0,0.0,0.0,0.0,0.9022,0.0,0.9306,0.9754,0.962,0.9748,0.0,0.0,0.0,0.0,0.0,0.0,0.0,0.0,0.0,0.0,0.0,0.0,0.0,0.0,0.0,0.0,0.0,0.0,0.0,0.0,0.0,0.0,0.0,0.0,0.0,0.0,0.0,0.0,0.0,0.0,0.0,0.0,0.0,0.0,0.0,0.0,0.0,0.0,0.0,0.0,0.0,0.0,0.0,0.0,0.0,0.0,0.0,0.0,0.0,0.0,0.0,0.0,0.0,0.0,0.0,0.0,0.0,0.0,0.0,0.0,0.0,0.0,0.0,0.0,0.0,0.0,0.0,0.0,0.0,0.0,0.0,0.0,0.0,0.0,0.0,0.0,0.0,0.0,0.0,0.0,0.0,0.0,0.0,0.0,0.0,0.0,0.0,0.0,0.0,0.0,0.0,0.0,0.0,0.0,0.0,0.0,0.0,0.0,0.0,0.0,0.0,0.0,0.0,0.0,0.0,0.0,0.0,0.0,0.9204,0.9524,0.999,1.0408,1.0769,1.0281,1.025,0.0,0.0,0.0,0.0,0.0,0.0,0.0,0.0,0.0,0.0,0.0,0.0,0.0,0.0,0.0,0.0,0.0,0.0,0.0,0.0,0.0,0.0,0.0,0.0,0.0,0.0,0.0,0.0,0.0,0.0,0.0,0.0,0.0,0.0,0.0,0.0,0.0,0.0,0.0,0.0,0.0,0.0,0.0,0.0,0.0,0.0,0.0,0.0,0.0,0.0,0.0,0.0,0.0,0.0,0.0,0.0,0.0,0.0,0.0,0.0,0.0,0.0,0.0,0.0,0.0,0.0,0.0,0.0,0.0,0.0,0.0,0.0,0.0,0.0,0.0,0.0,0.0,0.0,0.0,0.0,0.0,0.0,0.0,0.0,0.0,0.0,0.0,0.0,0.0,0.0,0.0,0.0,0.0,0.0,0.0,0.0,0.0,0.0,0.0,0.0,0.0,0.0,0.0,0.0,0.0,0.0,0.0,0.0,0.0,0.9741,1.018,1.0591,1.0926,1.0793,1.0888,0.0,0.0,0.0,0.0,0.0,0.0,0.0,0.0,0.0,0.0,0.0,0.0,0.0,0.0,0.0,0.0,0.0,0.0,0.0,0.0,0.0,0.0,0.0,0.0,0.0,0.0,0.0,0.0,0.0,0.0,0.0,0.0,0.0,0.0,0.0,0.0,0.0,0.0,0.0,0.0,0.0,0.0,0.0,0.0,0.0,0.0,0.0,0.0,0.0,0.0,0.0,0.0,0.0,0.0,0.0,0.0,0.0,0.0,0.0,0.0,0.0,0.0,0.0,0.0,0.0,0.0,0.0,0.0,0.0,0.0,0.0,0.0,0.0,0.0,0.0,0.0,0.0,0.0,0.0,0.0,0.0,0.0,0.0,0.0,0.0,0.0,0.0,0.0,0.0,0.0,0.0,0.0,0.0,0.0,0.0,0.0,0.0,0.0,0.0,0.0,0.0,0.0,0.0,0.0,0.0,0.0,0.0,0.0,0.0,1.1128,1.1485,1.1745,1.1887,1.1848,1.1772,1.1685,0.0,0.0,0.0,0.0,0.0,0.0,0.0,0.0,0.0,0.0,0.0,0.0,0.0,0.0,0.0,0.0,0.0,0.0,0.0,0.0,0.0,0.0,0.0,0.0,0.0,0.0,0.0,0.0,0.0,0.0,0.0,0.0,0.0,0.0,0.0,0.0,0.0,0.0,0.0,0.0,0.0,0.0,0.0,0.0,0.0,0.0,0.0,0.0,0.0,0.0,0.0,0.0,0.0,0.0,0.0,0.0,0.0,0.0,0.0,0.0,0.0,0.0,0.0,0.0,0.0,0.0,0.0,0.0,0.0,0.0,0.0,0.0,0.0,0.0,0.0,0.0,0.0,0.0,0.0,0.0,0.0,0.0,0.0,0.0,0.0,0.0,0.0,0.0,0.0,0.0,0.0,0.0,0.0,0.0,0.0,0.0,0.0,0.0,0.0,0.0,0.0,0.0,0.0,0.0,0.0,0.0,0.0,0.0,1.3316,1.3691,1.374,1.3467,1.33,1.2822,0.0,0.0,0.0,0.0,0.0,0.0,0.0,0.0,0.0,0.0,0.0,0.0,0.0,0.0,0.0,0.0,0.0,0.0,0.0,0.0,0.0,0.0,0.0,0.0,0.0,0.0,0.0,0.0,0.0,0.0,0.0,0.0,0.0,0.0,0.0,0.0,0.0,0.0,0.0,0.0,0.0,0.0,0.0,0.0,0.0,0.0,0.0,0.0,0.0,0.0,0.0,0.0,0.0,0.0,0.0,0.0,0.0,0.0,0.0,0.0,0.0,0.0,0.0,0.0,0.0,0.0,0.0,0.0,0.0,0.0,0.0,0.0,0.0,0.0,0.0,0.0,0.0,0.0,0.0,0.0,0.0,0.0,0.0,0.0,0.0,0.0,0.0,0.0,0.0,0.0,0.0,0.0,0.0,0.0,0.0,0.0,0.0,0.0,0.0,0.0,0.0,0.0,0.0,0.0,0.0,0.0,0.0,0.0,0.0,1.4737,1.5474,1.545,1.4616,1.3943,1.3378,0.0,0.0,0.0,0.0,0.0,0.0,0.0,0.0,0.0,0.0,0.0,0.0,0.0,0.0,0.0,0.0,0.0,0.0,0.0,0.0,0.0,0.0,0.0,0.0,0.0,0.0,0.0,0.0,0.0,0.0,0.0,0.0,0.0,0.0,0.0,0.0,0.0,0.0,0.0,0.0,0.0,0.0,0.0,0.0,0.0,0.0,0.0,0.0,0.0,0.0,0.0,0.0,0.0,0.0,0.0,0.0,0.0,0.0,0.0,0.0,0.0,0.0,0.0,0.0,0.0,0.0,0.0,0.0,0.0,0.0,0.0,0.0,0.0,0.0,0.0,0.0,0.0,0.0,0.0,0.0,0.0,0.0,0.0,0.0,0.0,0.0,0.0,0.0,0.0,0.0,0.0,0.0,0.0,0.0,0.0,0.0,0.0,0.0,0.0,0.0,0.0,0.0,0.0,0.0,0.0,0.0,0.0,0.0,1.4819,1.551,1.6589,1.6892,1.6283,1.4947,1.4024,0.0,0.0,0.0,0.0,0.0,0.0,0.0,0.0,0.0,0.0,0.0,0.0,0.0,0.0,0.0,0.0,0.0,0.0,0.0,0.0,0.0,0.0,0.0,0.0,0.0,0.0,0.0,0.0,0.0,0.0,0.0,0.0,0.0,0.0,0.0,0.0,0.0,0.0,0.0,0.0,0.0,0.0,0.0,0.0,0.0,0.0,0.0,0.0,0.0,0.0,0.0,0.0,0.0,0.0,0.0,0.0,0.0,0.0,0.0,0.0,0.0,0.0,0.0,0.0,0.0,0.0,0.0,0.0,0.0,0.0,0.0,0.0,0.0,0.0,0.0,0.0,0.0,0.0,0.0,0.0,0.0,0.0,0.0,0.0,0.0,0.0,0.0,0.0,0.0,0.0,0.0,0.0,0.0,0.0,0.0,0.0,0.0,0.0,0.0,0.0,0.0,0.0,0.0,0.0,0.0,0.0,0.0,0.0,1.5489,1.5907,1.7267,1.8008,1.7944,1.6068,1.4672,0.0,0.0,0.0,0.0,0.0,0.0,0.0,0.0,0.0,0.0,0.0,0.0,0.0,0.0,0.0,0.0,0.0,0.0,0.0,0.0,0.0,0.0,0.0,0.0,0.0,0.0,0.0,0.0,0.0,0.0,0.0,0.0,0.0,0.0,0.0,0.0,0.0,0.0,0.0,0.0,0.0,0.0,0.0,0.0,0.0,0.0,0.0,0.0,0.0,0.0,0.0,0.0,0.0,0.0,0.0,0.0,0.0,0.0,0.0,0.0,0.0,0.0,0.0,0.0,0.0,0.0,0.0,0.0,0.0,0.0,0.0,0.0,0.0,0.0,0.0,0.0,0.0,0.0,0.0,0.0,0.0,0.0,0.0,0.0,0.0,0.0,0.0,0.0,0.0,0.0,0.0,0.0,0.0,0.0,0.0,0.0,0.0,0.0,0.0,0.0,0.0,0.0,0.0,0.0,0.0,0.0,0.0,0.0,1.5676,1.6424,1.747,1.8008,1.7998,1.62,1.5151,0.0,0.0,0.0,0.0,0.0,0.0,0.0,0.0,0.0,0.0,0.0,0.0,0.0,0.0,0.0,0.0,0.0,0.0,0.0,0.0,0.0,0.0,0.0,0.0,0.0,0.0,0.0,0.0,0.0,0.0,0.0,0.0,0.0,0.0,0.0,0.0,0.0,0.0,0.0,0.0,0.0,0.0,0.0,0.0,0.0,0.0,0.0,0.0,0.9513,0.0,0.0,0.0,0.0,0.0,0.0,0.0,0.0,0.0,0.0,0.0,0.0,0.0,0.0,0.0,0.0,0.0,0.0,0.0,0.0,0.0,0.0,0.0,0.0,0.0,0.0,0.0,0.0,0.0,0.0,0.0,0.0,0.0,0.0,0.0,0.0,0.0,0.0,0.0,0.0,0.0,0.0,0.0,0.0,0.0,0.0,0.0,0.0,0.0,0.0,0.0,0.0,0.0,0.0,0.0,0.0,0.0,0.0,0.0,1.599,1.6889,1.761,1.8008,1.7944,1.6618,1.57,0.0,0.0,0.0,0.0,0.0,0.0,0.0,0.0,0.0,0.0,0.0,0.0,0.0,0.0,0.0,0.0,0.0,0.0,0.0,0.0,0.0,0.0,0.0,0.0,0.0,0.0,0.0,0.0,0.0,0.0,0.0,0.0,0.0,0.0,0.0,0.0,0.0,0.0,0.0,0.0,0.0,0.0,0.0,0.0,0.0,0.0,0.0,0.0,0.0,0.0,0.0,0.0,0.0,0.0,0.0,0.0,0.0,0.0,0.0,0.0,0.0,0.0,0.0,0.0,0.0,0.0,0.0,0.0,0.0,0.0,0.0,0.0,0.0,0.0,0.0,0.0,0.0,0.0,0.0,0.0,0.0,0.0,0.0,0.0,0.0,0.0,0.0,0.0,0.0,0.0,0.0,0.0,0.0,0.0,0.0,0.0,0.0,0.0,0.0,0.0,0.0,0.0,0.0,0.0,0.0,0.0,0.0,1.5634,1.6469,1.7473,1.7952,1.8174,1.8105,1.7355,1.6462,1.5465,0.0,0.0,0.0,0.0,0.0,0.0,0.0,0.0,0.0,0.0,0.0,0.0,0.0,0.0,0.0,0.0,0.0,0.0,0.0,0.0,0.0,0.0,0.0,0.0,0.0,0.0,0.0,0.0,0.0,0.0,0.0,0.0,0.0,0.0,0.0,0.0,0.0,0.0,1.2713,1.2459,0.0,0.0,0.0,0.0,0.0,0.0,0.0,0.0,1.094,0.0,0.0,0.0,0.0,0.0,0.0,0.0,0.0,0.0,0.0,0.0,0.0,0.0,0.0,0.0,0.0,0.0,0.0,0.0,0.0,0.0,0.0,0.0,0.0,0.0,0.0,0.0,0.0,0.0,0.0,0.0,0.0,0.0,0.0,0.0,0.0,0.0,0.0,0.0,0.0,0.0,0.0,0.0,0.0,0.0,0.0,0.0,0.0,0.0,0.0,0.0,0.0,0.0,0.0,0.0,0.0,1.6567,1.6562,1.7348,1.8899,1.9036,1.8906,1.851,1.8527,1.772,1.6036,0.0,0.0,0.0,0.0,0.0,0.0,0.0,0.0,0.0,0.0,0.0,0.0,0.0,0.0,0.0,0.0,0.0,0.0,0.0,0.0,0.0,0.0,0.0,0.0,0.0,0.0,0.0,0.0,0.0,0.0,0.0,0.0,0.0,0.0,0.0,0.0,0.0,0.0,0.0,1.2697,1.2451,0.0,0.0,0.0,0.0,0.0,0.0,0.0,0.0,1.1134,0.0,0.0,0.0,0.0,0.0,0.0,0.0,0.0,0.0,0.0,0.0,0.0,0.0,0.0,0.0,0.0,0.0,0.0,0.0,0.0,0.0,0.0,0.0,0.0,0.0,0.0,0.0,0.0,0.0,0.0,0.0,0.0,0.0,0.0,0.0,0.0,0.0,0.0,0.0,0.0,0.0,0.0,0.0,0.0,0.0,0.0,0.0,0.0,0.0,0.0,0.0,0.0,0.0,0.0,0.0,1.695,1.7426,1.8167,1.9268,1.9277,1.9189,1.8975,1.8653,1.8017,0.0,0.0,0.0,0.0,0.0,0.0,0.0,0.0,0.0,0.0,0.0,0.0,0.0,0.0,0.0,0.0,0.0,0.0,0.0,0.0,0.0,0.0,0.0,0.0,0.0,0.0,0.0,0.0,0.0,0.0,0.0,0.0,0.0,0.0,0.0,0.0,0.0,0.0,0.0,0.0,1.3177,1.3086,1.358,0.0,0.0,0.0,0.0,0.0,0.0,1.2389,1.1943,0.0,0.0,0.0,0.0,0.0,0.0,0.0,0.0,0.0,0.0,0.0,0.0,0.0,0.0,0.0,0.0,0.0,0.0,0.0,0.0,0.0,0.0,0.0,0.0,0.0,0.0,0.0,0.0,0.0,0.0,0.0,0.0,0.0,0.0,0.0,0.0,0.0,0.0,0.0,0.0,0.0,0.0,0.0,0.0,0.0,0.0,0.0,0.0,0.0,0.0,0.0,0.0,0.0,0.0,0.0,1.7296,1.8209,1.8964,1.9541,1.9588,1.9502,1.9404,1.8778,1.8283,0.0,0.0,0.0,0.0,0.0,0.0,0.0,0.0,0.0,0.0,0.0,0.0,0.0,0.0,0.0,0.0,0.0,0.0,0.0,0.0,0.0,0.0,0.0,0.0,0.0,0.0,0.0,0.0,0.0,0.0,0.0,0.0,0.0,0.0,0.0,0.0,0.0,0.0,0.0,0.0,0.0,1.3631,1.4091,1.3541,0.0,0.0,0.0,0.0,1.3191,1.3059,0.0,0.0,0.0,0.0,0.0,0.0,0.0,0.0,0.0,0.0,0.0,0.0,0.0,0.0,0.0,0.0,0.0,0.0,0.0,0.0,0.0,0.0,0.0,0.0,0.0,0.0,0.0,0.0,0.0,0.0,0.0,0.0,0.0,0.0,0.0,0.0,0.0,0.0,0.0,0.0,0.0,0.0,0.0,0.0,0.0,0.0,0.0,0.0,0.0,0.0,0.0,0.0,0.0,0.0,0.0,0.0,1.8303,1.8976,1.9688,2.04,2.0449,2.0273,1.9853,1.969,1.9219,0.0,0.0,0.0,0.0,0.0,0.0,0.0,0.0,0.0,0.0,0.0,0.0,0.0,0.0,0.0,0.0,0.0,0.0,0.0,0.0,0.0,0.0,0.0,0.0,0.0,0.0,0.0,0.0,0.0,0.0,0.0,0.0,0.0,0.0,0.0,0.0,0.0,0.0,0.0,0.0,0.0,1.348,1.398,1.358,1.326,0.0,0.0,1.3881,1.389,1.4195,0.0,0.0,0.0,0.0,0.0,0.0,0.0,0.0,0.0,0.0,0.0,0.0,0.0,0.0,0.0,0.0,0.0,0.0,0.0,0.0,0.0,0.0,0.0,0.0,0.0,0.0,0.0,0.0,0.0,0.0,0.0,0.0,0.0,0.0,0.0,0.0,0.0,0.0,0.0,0.0,0.0,0.0,0.0,0.0,0.0,0.0,0.0,0.0,0.0,0.0,0.0,0.0,0.0,0.0,0.0,1.8313,1.9275,2.0352,2.1312,2.2215,2.2226,2.2131,2.1956,2.0896,2.0286,0.0,0.0,0.0,0.0,0.0,0.0,0.0,0.0,0.0,0.0,0.0,0.0,0.0,0.0,0.0,0.0,0.0,0.0,0.0,0.0,0.0,0.0,0.0,0.0,0.0,0.0,0.0,0.0,0.0,0.0,0.0,0.0,0.0,0.0,0.0,0.0,0.0,0.0,0.0,0.0,0.0,0.0,1.424,1.3992,0.0,0.0,0.0,1.401,1.3761,0.0,0.0,0.0,0.0,0.0,0.0,0.0,0.0,0.0,0.0,0.0,0.0,0.0,0.0,0.0,0.0,0.0,0.0,0.0,0.0,0.0,0.0,0.0,0.0,0.0,0.0,0.0,0.0,0.0,0.0,0.0,0.0,0.0,0.0,0.0,0.0,0.0,0.0,0.0,0.0,0.0,0.0,0.0,0.0,0.0,0.0,0.0,0.0,0.0,0.0,0.0,0.0,0.0,0.0,0.0,0.0,0.0,1.9617,2.0971,2.2,2.275,2.301,2.3147,2.3088,2.1941,0.0,0.0,0.0,0.0,0.0,0.0,0.0,0.0,0.0,0.0,0.0,0.0,0.0,0.0,0.0,0.0,0.0,0.0,0.0,0.0,0.0,0.0,0.0,0.0,0.0,0.0,0.0,1.5384,0.0,0.0,0.0,0.0,0.0,0.0,0.0,0.0,0.0,0.0,0.0,0.0,0.0,0.0,1.441,1.4419,1.4309,1.4219,0.0,0.0,1.41,1.3842,1.441,1.4549,0.0,0.0,0.0,0.0,0.0,0.0,0.0,0.0,0.0,0.0,0.0,0.0,0.0,0.0,0.0,0.0,0.0,0.0,0.0,0.0,0.0,0.0,0.0,0.0,0.0,0.0,0.0,0.0,0.0,0.0,0.0,0.0,0.0,0.0,0.0,0.0,0.0,0.0,0.0,0.0,0.0,0.0,0.0,0.0,0.0,0.0,0.0,0.0,0.0,0.0,0.0,0.0,0.0,0.0,0.0,1.8821,2.0041,2.075,2.0828,2.1631,2.2103,2.2092,2.2639,2.2517,0.0,0.0,0.0,0.0,0.0,0.0,0.0,0.0,0.0,0.0,0.0,0.0,0.0,0.0,0.0,0.0,0.0,0.0,0.0,0.0,0.0,0.0,0.0,0.0,0.0,0.0,0.0,0.0,0.0,0.0,0.0,0.0,0.0,0.0,0.0,0.0,0.0,0.0,0.0,0.0,0.0,1.421,1.4219,1.4189,1.4309,0.0,0.0,1.4309,1.4588,1.503,1.503,1.4091,0.0,0.0,0.0,0.0,0.0,0.0,0.0,0.0,0.0,0.0,0.0,0.0,0.0,0.0,0.0,0.0,0.0,0.0,0.0,0.0,0.0,0.0,0.0,0.0,0.0,0.0,0.0,0.0,0.0,0.0,0.0,0.0,0.0,0.0,0.0,0.0,0.0,0.0,0.0,0.0,0.0,0.0,0.0,0.0,0.0,0.0,0.0,0.0,0.0,0.0,0.0,0.0,0.0,1.9003,1.9647,2.0842,2.1745,2.2414,2.3331,2.3854,2.3854,2.4097,2.3731,0.0,0.0,0.0,0.0,0.0,0.0,0.0,0.0,0.0,0.0,0.0,0.0,0.0,0.0,0.0,0.0,0.0,0.0,0.0,0.0,0.0,0.0,0.0,0.0,0.0,0.0,0.0,0.0,1.885,1.9019,1.8876,0.0,0.0,0.0,0.0,0.0,0.0,0.0,0.0,0.0,0.0,1.506,1.4754,1.5079,0.0,0.0,1.4784,1.4666,1.4597,1.4893,1.4843,1.3842,1.37,0.0,0.0,0.0,0.0,0.0,0.0,0.0,0.0,0.0,0.0,0.0,0.0,0.0,0.0,0.0,0.0,0.0,0.0,0.0,0.0,0.0,0.0,0.0,0.0,0.0,0.0,0.0,0.0,0.0,0.0,0.0,0.0,0.0,0.0,0.0,0.0,0.0,0.0,0.0,0.0,0.0,0.0,0.0,0.0,0.0,0.0,0.0,0.0,0.0,0.0,0.0,0.0,1.9112,1.9863,2.0992,2.1924,2.2638,2.3588,2.4228,2.4552,2.48,2.4575,0.0,0.0,0.0,0.0,0.0,0.0,0.0,0.0,0.0,0.0,0.0,0.0,0.0,0.0,0.0,0.0,0.0,0.0,0.0,0.0,0.0,0.0,0.0,0.0,0.0,0.0,0.0,0.0,1.9454,1.9477,1.9123,0.0,0.0,0.0,0.0,0.0,0.0,0.0,0.0,0.0,0.0,1.5723,1.5109,1.5555,1.5762,1.51,1.4932,1.4851,1.4653,1.477,1.4606,1.3842,0.0,0.0,0.0,0.0,0.0,0.0,0.0,0.0,0.0,0.0,0.0,0.0,0.0,0.0,0.0,0.0,0.0,0.0,0.0,0.0,0.0,0.0,0.0,0.0,0.0,0.0,0.0,0.0,0.0,0.0,2.1373,0.0,0.0,0.0,0.0,0.0,0.0,0.0,0.0,0.0,0.0,0.0,0.0,0.0,0.0,0.0,0.0,0.0,0.0,0.0,0.0,0.0,0.0,1.9024,1.906,2.0175,2.0712,2.0789,2.1583,2.2627,2.3551,2.4505,2.4953,2.4813,0.0,0.0,0.0,0.0,0.0,0.0,0.0,0.0,0.0,0.0,0.0,0.0,0.0,0.0,0.0,0.0,0.0,0.0,0.0,0.0,0.0,0.0,0.0,0.0,0.0,0.0,1.7578,1.821,1.8797,0.0,0.0,0.0,0.0,0.0,0.0,0.0,0.0,0.0,0.0,1.6014,1.5917,1.5241,1.5477,1.5614,1.5129,1.4826,1.4724,1.4972,1.4744,1.4449,0.0,0.0,0.0,0.0,0.0,0.0,0.0,0.0,0.0,0.0,0.0,0.0,0.0,0.0,0.0,0.0,0.0,0.0,0.0,0.0,0.0,0.0,0.0,0.0,0.0,0.0,0.0,2.2112,2.2585,0.0,0.0,0.0,0.0,0.0,0.0,0.0,0.0,0.0,0.0,0.0,2.206,2.1265,0.0,0.0,0.0,0.0,0.0,0.0,0.0,0.0,0.0,0.0,0.0,0.0,1.9791,2.0373,2.1135,2.1849,2.2515,2.3478,2.4156,2.4528,2.5464,2.5662,2.4917,0.0,0.0,0.0,0.0,0.0,0.0,0.0,0.0,0.0,0.0,0.0,0.0,0.0,0.0,0.0,0.0,0.0,0.0,0.0,0.0,0.0,0.0,0.0,0.0,0.0,1.8868,0.0,0.0,0.0,0.0,0.0,0.0,0.0,0.0,0.0,0.0,0.0,1.7134,1.744,1.7707,1.7482,1.6482,1.6914,1.6965,0.0,0.0,0.0,0.0,0.0,0.0,0.0,0.0,0.0,0.0,0.0,0.0,0.0,0.0,1.2823,1.1993,1.1535,1.1316,1.1352,0.0,0.0,0.0,0.0,0.0,0.0,0.0,0.0,0.0,0.0,0.0,0.0,0.0,0.0,2.323,0.0,2.3357,0.0,0.0,0.0,0.0,0.0,0.0,0.0,0.0,2.3131,2.3213,2.288,2.2095,2.1797,0.0,2.071,2.0539,0.0,0.0,0.0,0.0,0.0,0.0,0.0,0.0,2.0687,2.1486,2.2179,2.285,2.3478,2.4156,2.4636,2.5016,2.5943,2.6186,2.5472,2.4425,2.3578,0.0,0.0,0.0,0.0,0.0,0.0,0.0,0.0,0.0,0.0,0.0,0.0,0.0,0.0,0.0,0.0,0.0,0.0,0.0,0.0,0.0,0.0,0.0,1.9529,0.0,0.0,0.0,0.0,0.0,0.0,0.0,0.0,0.0,1.8455,1.8215,1.8279,1.8691,1.8531,1.8049,1.7167,0.0,0.0,0.0,0.0,0.0,0.0,0.0,1.5405,1.4843,1.4799,1.4688,1.4289,1.418,1.4151,1.407,0.0,0.0,1.2949,1.2587,1.2439,1.2476,1.2237,1.1819,1.1048,1.0733,1.0243,0.0,0.0,0.0,0.0,0.0,0.0,0.0,0.0,2.2923,2.2858,0.0,2.3358,0.0,0.0,0.0,0.0,0.0,2.3696,0.0,0.0,2.4365,2.4366,2.328,2.3186,2.3413,2.3736,2.2382,2.2502,2.38,2.0938,0.0,0.0,0.0,0.0,0.0,0.0,2.1767,2.2413,2.317,2.3588,2.3635,2.3624,2.4072,2.504,2.599,2.6487,2.6461,2.5484,2.4905,2.4847,2.3126,0.0,0.0,0.0,0.0,0.0,0.0,0.0,0.0,0.0,0.0,0.0,0.0,0.0,0.0,0.0,0.0,0.0,0.0,0.0,0.0,1.9495,0.0,0.0,0.0,0.0,0.0,0.0,0.0,0.0,0.0,0.0,1.9105,1.8511,1.8521,1.9491,0.0,0.0,0.0,0.0,1.6983,1.6123,1.5934,1.5968,1.6001,1.5785,1.5735,1.6015,0.0,0.0,1.5671,1.5044,1.4533,1.4297,1.4712,1.4803,1.4151,1.3603,1.3174,1.2978,1.2541,1.1756,1.0944,1.1321,1.1238,2.3069,0.0,0.0,0.0,0.0,2.3624,2.4132,2.519,2.4751,2.4783,2.5129,2.4927,0.0,0.0,0.0,0.0,0.0,0.0,2.4684,2.4698,2.5463,2.5742,2.5489,2.4802,2.4531,2.4624,2.3525,2.3234,2.3613,2.2761,2.2092,2.1744,0.0,0.0,0.0,0.0,2.2725,2.4141,2.4446,2.4921,2.5604,2.5652,2.5756,2.6072,2.6349,2.6487,2.6487,2.6199,2.5707,2.5074,2.4533,0.0,0.0,0.0,0.0,0.0,0.0,0.0,0.0,0.0,0.0,0.0,0.0,0.0,0.0,0.0,0.0,0.0,0.0,0.0,1.9639,2.0634,2.1046,0.0,0.0,0.0,0.0,0.0,0.0,0.0,0.0,0.0,2.1043,2.05,2.0124,0.0,0.0,1.9156,1.8425,1.8872,1.9081,1.853,1.8664,0.0,0.0,1.8332,1.7701,1.7404,1.6735,1.6145,1.604,1.6052,1.5973,1.5605,1.5678,1.5612,1.5126,1.4886,1.4704,1.4647,1.4524,1.4122,1.3357,1.2759,1.2047,2.4691,2.4213,2.3657,2.4095,2.5052,2.4826,2.53,2.6305,2.5933,2.5797,2.59,2.5877,2.5567,2.5099,2.4808,0.0,0.0,0.0,2.5475,2.5827,2.575,2.5781,2.5873,2.5264,2.5004,2.4969,2.4373,2.4301,2.4696,2.4217,2.3891,2.3708,0.0,0.0,2.3184,2.3293,2.4,2.5288,2.5511,2.5886,2.6499,2.6487,2.6487,2.6487,2.6487,2.6487,2.6487,2.6487,2.6233,2.5679,2.5308,2.4621,0.0,0.0,0.0,0.0,0.0,0.0,0.0,0.0,0.0,0.0,0.0,1.8911,0.0,0.0,0.0,0.0,1.9868,2.0053,2.0435,2.1121,0.0,0.0,0.0,0.0,0.0,0.0,0.0,2.1083,2.1482,2.1867,2.2068,2.1798,2.144,2.1221,2.0613,2.0031,1.9628,0.0,2.0063,1.9738,1.9868,2.0019,2.0149,1.9705,1.9119,1.8563,1.7454,1.6683,1.6683,1.6718,1.6609,1.6406,1.6328,1.625,1.5986,1.5928,1.5761,1.5488,1.542,1.5147,1.4362,1.3906,1.3386,2.6023,2.6665,2.5478,2.5195,2.5551,2.5739,2.6103,2.6625,2.6625,2.623,2.5631,2.6267,2.6055,2.5231,2.5352,0.0,2.6201,2.5828,2.599,2.6465,2.5558,2.5111,2.5111,2.5123,2.5111,2.5123,2.5111,2.5594,2.6383,2.5358,2.5028,2.5382,2.4301,2.4,2.448,2.4815,2.5299,2.5933,2.6314,2.6487,2.6487,2.6487,2.6487,2.6487,2.6487,2.6487,2.6487,2.6487,2.6487,2.6474,2.5679,2.5167,2.5059,0.0,0.0,0.0,0.0,0.0,0.0,0.0,0.0,0.0,0.0,0.0,0.0,0.0,0.0,0.0,2.0699,0.0,2.1469,2.1218,0.0,0.0,0.0,2.1831,2.1968,2.2011,2.1961,2.1796,0.0,0.0,2.2577,0.0,2.2631,2.2572,2.1394,2.0625,2.0905,2.0799,2.0529,2.0487,2.0389,2.0388,2.0625,2.0494,2.0127,1.9334,1.8319,1.7596,1.7445,1.7106,1.6833,1.6755,1.6755,1.6726,1.6697,1.6629,1.6443,1.5664,1.5508,1.5215,1.4549,1.4728,1.465,2.8568,2.8312,2.8015,2.7717,2.7406,2.7491,2.7599,2.7708,2.7708,2.7406,2.6869,2.703,2.6744,2.6174,2.6183,2.628,2.6443,2.6314,2.6349,2.6499,2.6245,2.6129,2.6129,2.6129,2.6129,2.6129,2.6129,2.628,2.6499,2.6198,2.6129,2.6198,2.5908,2.5546,2.5099,2.5064,2.5502,2.6349,2.6452,2.6487,2.6487,2.6487,2.6487,2.6487,2.6487,2.6487,2.6487,2.6487,2.6487,2.6487,2.6292,2.5847,2.513,2.4093,0.0,0.0,0.0,0.0,0.0,0.0,0.0,0.0,0.0,2.0181,1.9405,0.0,2.06,0.0,2.165,2.2243,2.2378,2.2329,0.0,0.0,2.2135,2.2267,2.2671,2.2941,2.3142,2.3259,2.3502,2.3713,2.3847,2.3892,2.3965,2.4176,2.3287,2.2527,2.2349,2.2813,2.3096,2.304,2.33,2.3518,2.3009,2.2147,2.1028,1.9552,1.906,1.8634,1.7986,1.7783,1.7598,1.7314,1.7236,1.7109,1.6785,1.6697,1.6648,1.6404,1.6152,1.5771,1.5215,1.4815,1.4401,3.0306,3.0018,3.0018,2.9716,2.9164,2.8436,2.8109,2.8109,2.8109,2.7934,2.7657,2.7645,2.7482,2.7228,2.7193,2.7193,2.7228,2.7228,2.709,2.6864,2.6864,2.6738,2.6487,2.6487,2.6487,2.6487,2.6487,2.6487,2.6487,2.6487,2.6487,2.6487,2.6487,2.628,2.5886,2.575,2.5968,2.6487,2.6487,2.6487,2.6487,2.6487,2.6292,2.5872,2.5872,2.5679,2.5308,2.5296,2.5296,2.5296,2.5296,2.5047,2.4551,2.3685,2.3016,0.0,0.0,0.0,0.0,0.0,0.0,0.0,0.0,0.0,0.0,0.0,2.1504,2.1522,2.2445,2.2991,2.2879,2.2891,2.2933,2.3133,2.3125,2.3311,2.3752,2.3961,2.4129,2.4226,2.4394,2.4623,2.4834,2.4872,2.5049,2.5477,2.5056,2.4468,2.3842,2.4087,2.4361,2.4361,2.4601,2.47,2.4393,2.3359,2.2227,2.1102,2.049,1.9873,1.8795,1.8553,1.8372,1.7815,1.7656,1.7588,1.7344,1.7305,1.7223,1.7041,1.6836,1.6504,1.6063,1.5622,1.5308,3.1386,3.1386,3.1386,3.1122,3.0608,2.9139,2.8448,2.8323,2.8323,2.8285,2.821,2.8134,2.8109,2.8109,2.8109,2.8109,2.8109,2.8109,2.7846,2.7394,2.7381,2.7165,2.6713,2.67,2.67,2.67,2.67,2.6713,2.67,2.67,2.6675,2.6612,2.66,2.6562,2.6487,2.6487,2.6487,2.6487,2.6465,2.6465,2.6465,2.6418,2.6043,2.5253,2.5133,2.474,2.399,2.386,2.3791,2.3791,2.3824,2.3881,2.3941,2.3153,2.274,0.0,2.2016,0.0,0.0,0.0,0.0,0.0,0.0,0.0,0.0,2.2416,2.2435,2.2559,2.3193,2.3519,2.3332,2.3332,2.3599,2.4255,2.4381,2.4504,2.4843,2.4921,2.4946,2.5021,2.5034,2.5209,2.5636,2.5699,2.5946,2.6323,2.6364,2.5983,2.5252,2.5018,2.5056,2.5034,2.4926,2.4938,2.4843,2.4222,2.3442,2.284,2.195,2.1041,1.9809,1.947,1.9116,1.8405,1.8206,1.8148,1.8042,1.7988,1.7861,1.7529,1.7441,1.7266,1.6775,1.6587,1.6697,3.1386,3.1386,3.1386,3.1336,3.121,3.0896,3.0281,2.9478,2.9478,2.9214,2.8712,2.8298,2.8109,2.8109,2.8109,2.8109,2.8109,2.8109,2.8047,2.7946,2.7946,2.7896,2.7795,2.7795,2.7795,2.7795,2.7795,2.7795,2.7795,2.7795,2.757,2.7143,2.7165,2.6939,2.6512,0.0,0.0,0.0,2.6327,2.6236,2.6236,2.6084,2.5931,2.5738,2.523,0.0,2.4682,2.4099,2.3791,2.3791,2.3956,0.0,0.0,0.0,0.0,0.0,0.0,0.0,0.0,0.0,0.0,0.0,2.3448,2.3316,2.3477,2.3522,2.362,2.3911,2.4074,2.4233,2.4464,2.4464,2.4534,2.4666,2.4723,2.4906,2.5385,2.5448,2.5611,2.6135,2.6185,2.621,2.6273,2.6336,2.6361,2.6474,2.6487,2.6424,2.6197,2.6122,2.616,2.616,2.5724,2.546,2.5435,2.4945,2.4292,2.3469,2.2523,2.1756,2.113,2.0296,1.9687,1.9137,1.9044,1.8787,1.8168,1.8008,1.7988,1.79,1.7881,1.7656,1.6872,1.6707,1.6697,3.2227,0.0,3.2215,3.2051,0.0,3.1788,3.1336,3.0583,3.057,3.0269,2.9678,2.9176,2.8938,2.8938,2.8938,2.8938,2.8938,2.895,2.8775,2.8524,2.8474,2.836,2.8109,2.8109,2.8109,2.8109,2.8109,2.8109,2.8109,2.8109,2.7971,2.7682,2.7695,2.7544,2.7281,2.7052,2.6776,2.6487,2.6408,2.6327,2.6327,2.6258,2.597,2.5492,0.0,0.0,0.0,0.0,0.0,0.0,0.0,0.0,0.0,0.0,0.0,2.4432,2.4047,2.3999,2.4387,2.4445,2.4633,2.5105,2.513,2.4939,2.4469,2.4869,2.5197,2.5365,2.5398,2.5444,2.5624,2.5636,2.5624,2.5624,2.5624,2.5749,2.5996,2.6059,2.6172,2.6411,2.6487,2.6487,2.6487,2.6487,2.6487,2.6487,2.6487,2.6487,2.6487,2.6487,2.6487,2.6487,2.6285,2.6038,2.6034,2.5824,2.5386,2.4651,2.4107,2.3443,2.2585,2.182,2.1097,2.0456,1.9788,1.9144,1.8754,1.8303,1.8008,1.8008,1.8008,1.79,1.7399,1.733,1.733,3.3169,3.3124,3.3124,3.2805,3.2365,3.2378,3.2102,3.1675,0.0,0.0,0.0,3.0269,3.0018,2.9942,2.993,2.988,2.9792,2.9779,2.9528,2.9051,2.9051,2.8837,2.8411,2.8411,2.8411,2.8398,2.8398,2.8398,2.8411,2.8398,2.8348,2.826,2.8211,2.821,2.8084,2.7657,2.7241,2.6801,2.6565,2.643,2.6452,2.643,2.6034,2.5244,2.5111,2.4719,2.4026,2.3872,2.3791,2.3791,2.3857,2.3893,2.4023,2.4056,2.4138,2.4268,2.4268,2.4563,2.5308,2.5333,2.5679,2.6427,2.6487,2.6161,2.5404,2.6052,2.6487,2.6487,2.6487,2.6487,2.6487,2.6487,2.6487,2.6487,2.6487,2.6474,2.6487,2.6487,2.6474,2.6487,2.6487,2.6487,2.6487,2.6487,2.6487,2.6487,2.6487,2.6487,2.6487,2.6487,2.6487,2.6487,2.6436,2.6461,2.6474,2.6436,2.6285,2.5803,2.5535,2.5102,2.4141,2.3353,2.2695,2.1908,2.0721,2.0051,1.969,1.9116,1.8428,1.8269,1.8236,1.8178,1.8042,1.7998,1.7969,3.3508,3.3124,3.3124,3.3074,3.2968,3.2955,3.296,3.2754,3.1813,3.1348,3.1273,3.121,3.0922,3.0507,3.0507,3.0244,2.9792,2.9779,2.9741,2.9666,2.9679,2.9628,2.9566,2.9553,2.9553,2.9553,2.9541,2.9553,2.9553,2.9541,2.9302,2.8825,2.8775,2.8574,2.8134,2.8034,2.7959,2.7846,2.6779,2.6236,2.6236,2.6084,2.5943,2.5775,2.5255,2.4871,2.4752,2.4156,2.3791,2.3824,2.3968,2.4307,2.4869,2.5086,2.5477,2.6074,2.6111,2.6195,2.628,2.6305,2.6377,2.6487,2.6487,2.6461,2.6317,2.6414,2.6487,2.6487,2.6487,2.6487,2.6487,2.6487,2.6487,2.6487,2.6487,2.6487,2.6487,2.6487,2.6487,2.6487,2.6487,2.6487,2.6487,2.6487,2.6487,2.6487,2.6487,2.6487,2.6487,2.6487,2.6487,2.6487,2.6487,2.6487,2.6487,2.6487,2.6424,2.6399,2.5679,2.5276,2.5227,2.4524,2.3845,2.3287,2.2561,2.1899,2.124,2.0642,1.9943,1.9318,1.9152,1.8854,1.8236,1.8076,1.8008,3.4022,3.3545,3.352,3.3357,3.3124,3.3124,3.3124,3.3086,3.2541,3.2114,3.1813,3.1524,3.126,3.1047,3.1035,3.0909,3.0658,3.0357,3.0244,3.0218,2.993,2.9779,2.9779,2.9779,2.9779,2.9779,2.9779,2.9779,2.9779,2.9779,2.9666,2.9402,2.939,2.9277,2.9013,2.8712,2.8549,2.8487,2.7662,2.7076,2.6824,2.6694,2.6509,2.6236,2.5906,2.5747,2.5747,2.5453,2.5271,2.525,2.5351,2.553,2.5834,2.5961,2.6142,2.6474,2.6487,2.6487,2.6487,2.6487,2.6487,2.6487,2.6487,2.6487,2.6487,2.6487,2.6487,2.6487,2.6487,2.6487,2.6487,2.6487,2.6487,2.6487,2.6487,2.6487,2.6487,2.6487,2.6487,2.6487,2.6487,2.6487,2.6487,2.6487,2.6487,2.6487,2.6487,2.6487,2.6487,2.6487,2.6487,2.6487,2.6487,2.6487,2.6487,2.6487,2.6487,2.6487,2.6129,2.5914,2.6029,2.5444,2.493,2.4606,2.3866,2.306,2.256,2.1694,2.0962,2.0567,1.9734,1.9175,1.8787,1.8371,1.8042,3.4542,3.4085,3.4085,3.3759,3.33,3.3131,3.3124,3.3124,3.3111,3.2817,3.2378,3.1951,3.17,3.1574,3.1574,3.1512,3.1348,3.0972,3.0796,3.0733,3.0231,2.998,2.9955,2.9867,2.9779,2.9779,2.9779,2.9779,2.9779,2.9779,2.9779,2.9779,2.9779,2.9779,2.9779,2.934,2.9126,2.9051,2.8699,2.816,2.753,2.7469,2.7228,2.6725,2.6675,2.6625,2.6499,2.6487,2.6487,2.6487,2.6487,2.6487,2.6487,2.6487,2.6487,2.6487,2.6487,2.6487,2.6487,2.6487,2.6487,2.6487,2.6487,2.6487,2.6487,2.6487,2.6487,2.6487,2.6487,2.6487,2.6487,2.6487,2.6487,2.6487,2.6487,2.6487,2.6487,2.6487,2.6487,2.6487,2.6487,2.6487,2.6487,2.6487,2.6487,2.6487,2.6487,2.6487,2.6487,2.6487,2.6487,2.6487,2.6487,2.6487,2.6487,2.6487,2.6487,2.6487,2.6452,2.6393,2.6386,2.605,2.5837,2.5636,2.4825,2.4141,2.3878,2.3086,2.2275,2.193,2.1174,2.0269,1.9563,1.9116,1.8438,3.5094,3.4643,3.4638,3.4324,3.3784,3.3307,3.3136,3.3136,3.3124,3.3099,3.2998,3.2986,3.2604,3.2177,3.2139,3.1901,3.1461,3.1348,3.1311,3.126,3.0783,3.0545,3.0495,3.0043,2.9792,2.9804,2.9804,2.9779,2.9779,2.9779,2.9779,2.9779,2.9779,2.9779,2.9779,2.9729,2.9704,2.9704,2.9666,2.9126,2.8109,2.8034,2.777,2.7253,2.7218,2.7002,2.6549,2.6487,2.6499,2.6487,2.6487,2.6487,2.6487,2.6487,2.6487,2.6487,2.6487,2.6487,2.6487,2.6487,2.6487,2.6487,2.6487,2.6487,2.6487,2.6487,2.6487,2.6487,2.6487,2.6487,2.6487,2.6487,2.6487,2.6487,2.6487,2.6487,2.6487,2.6487,2.6487,2.6487,2.6487,2.6487,2.6487,2.6487,2.6487,2.6487,2.6487,2.6487,2.6487,2.6487,2.6487,2.6487,2.6487,2.6487,2.6487,2.6487,2.6487,2.6487,2.6487,2.6487,2.6449,2.6449,2.6411,2.6151,2.5845,2.5315,2.5211,2.4867,2.4149,2.3439,2.2878,2.2395,2.0716,2.0158,1.981,3.5705,3.5169,3.5169,3.4843,3.4336,3.3796,3.3558,3.3533,3.3219,3.3124,3.3124,3.3124,3.2943,3.2717,3.2717,3.2591,3.2378,3.2039,3.1888,3.1825,3.1323,3.1072,3.1009,3.0532,3.0281,3.0244,2.9955,2.9779,2.9779,2.9779,2.9779,2.9779,2.9779,2.9779,2.9779,2.9779,2.9779,2.9779,2.9779,2.9553,2.9139,2.8762,2.8335,2.7833,2.777,2.7507,2.7052,2.6977,2.6826,2.6524,2.6487,2.6487,2.6487,2.6487,2.6487,2.6487,2.6487,2.6487,2.6487,2.6487,2.6487,2.6487,2.6487,2.6487,2.6487,2.6487,2.6487,2.6487,2.6487,2.6487,2.6487,2.6487,2.6487,2.6487,2.6487,2.6487,2.6487,2.6487,2.6487,2.6487,2.6487,2.6487,2.6487,2.6487,2.6487,2.6487,2.6487,2.6487,2.6487,2.6487,2.6487,2.6487,2.6487,2.6487,2.6487,2.6487,2.6487,2.6487,2.6487,2.6487,2.6487,2.6487,2.6487,2.6487,2.626,2.6109,2.6113,2.5674,2.5107,2.4602,2.3799,2.3007,2.1619,2.1464,2.1018,3.6132,3.578,3.5571,3.527,3.4856,3.4361,3.4035,3.3859,3.347,3.3219,3.3124,3.3124,3.3124,3.3124,3.3124,3.3124,3.3074,3.2641,3.2441,3.239,3.1876,3.1612,3.1562,3.1085,3.0834,3.0746,3.0281,2.9955,2.9817,2.9779,2.9779,2.9779,2.9779,2.9779,2.9779,2.9779,2.9779,2.9779,2.9779,2.9779,2.9716,2.9377,2.89,2.8398,2.8335,2.8072,2.7568,2.7519,2.7366,2.6964,2.6813,2.6725,2.6713,2.6575,2.6487,2.6487,2.6487,2.6487,2.6487,2.6487,2.6487,2.6487,2.6487,2.6487,2.6487,2.6487,2.6487,2.6487,2.6487,2.6487,2.6487,2.6487,2.6487,2.6487,2.6487,2.6487,2.6487,2.6487,2.6487,2.6487,2.6487,2.6487,2.6487,2.6487,2.6487,2.6487,2.6487,2.6487,2.6487,2.6487,2.6487,2.6487,2.6487,2.6487,2.6487,2.6487,2.6487,2.6487,2.6487,2.6487,2.6487,2.6487,2.6487,2.6487,2.6487,2.6461,2.6386,2.6047,2.5799,2.5611,2.4899,2.3819,2.297,2.2878,2.2635,3.6392,3.6292,3.578,3.5508,3.542,3.4868,3.4387,3.401,3.3872,3.3571,3.3156,3.3124,3.3124,3.3124,3.3124,3.3124,3.3068,3.3061,3.3036,3.2973,3.2428,3.2177,3.2127,3.1625,3.1361,3.1311,3.0821,3.0344,2.988,2.9817,2.9779,2.9804,2.9804,2.9779,2.9779,2.9779,2.9779,2.9779,2.9779,2.9779,2.9779,2.9754,2.9453,2.8913,2.8863,2.8599,2.8147,2.8072,2.8034,2.8021,2.7507,2.7243,2.7205,2.6813,2.6562,2.6549,2.6549,2.6537,2.6562,2.6587,2.6575,2.6549,2.6625,2.6537,2.665,2.665,2.665,2.6537,2.6637,2.6612,2.66,2.6549,2.6499,2.6487,2.6487,2.6487,2.6487,2.6487,2.6487,2.6487,2.6487,2.6487,2.6487,2.6487,2.6487,2.6487,2.6487,2.6487,2.6487,2.6487,2.6487,2.6487,2.6487,2.6487,2.6487,2.6487,2.6487,2.6487,2.6487,2.6487,2.6487,2.6487,2.6487,2.6487,2.6487,2.6487,2.6487,2.6449,2.6373,2.6176,2.5841,2.5016,2.4366,2.4516,2.4263,3.6417,3.6405,3.6157,3.6069,3.6006,3.5479,3.5082,3.4843,3.4186,3.3796,3.3558,3.3244,3.3124,3.3124,3.3124,3.3124,3.3124,3.3124,3.3124,3.3099,3.2855,3.2767,3.2704,3.219,3.1913,3.1838,3.1373,3.1022,3.0796,3.0495,3.0319,3.0244,2.9967,2.9779,2.9779,2.9779,2.9779,2.9779,2.9779,2.9779,2.9779,2.9779,2.9679,2.9503,2.9478,2.9214,2.8649,2.8599,2.8473,2.8134,2.7896,2.7808,2.7783,2.762,2.7507,2.7542,2.7519,2.7507,2.7507,2.7519,2.7519,2.7519,2.7519,2.7469,2.7519,2.7519,2.7519,2.7507,2.7507,2.7507,2.7369,2.6939,2.6487,2.6487,2.6499,2.6512,2.6487,2.6487,2.6487,2.6487,2.6487,2.6487,2.6487,2.6487,2.6487,2.6487,2.6487,2.6487,2.6487,2.6487,2.6487,2.6487,2.6487,2.6487,2.6487,2.6487,2.6487,2.6487,2.6487,2.6487,2.6487,2.6487,2.6487,2.6487,2.6487,2.6487,2.6487,2.6487,2.6487,2.6436,2.6147,2.5983,2.5785,2.5581,2.5369,3.6417,3.6417,3.6417,3.6417,3.6367,3.5968,3.5658,3.5433,3.4751,3.4236,3.3884,3.3508,3.33,3.3136,3.3124,3.3124,3.3124,3.3124,3.3124,3.3124,3.3124,3.3124,3.3018,3.2667,3.2491,3.2403,3.1926,3.1587,3.1361,3.1035,3.0871,3.0821,3.0319,3.0055,3.0043,2.988,2.9779,2.9779,2.9779,2.9779,2.9779,2.9779,2.9779,2.9779,2.9779,2.9628,2.9189,2.9176,2.9051,2.8699,2.8473,2.8298,2.8134,2.8109,2.8109,2.8109,2.8097,2.8109,2.8109,2.8109,2.8097,2.8097,2.8109,2.8109,2.8109,2.8109,2.8109,2.8109,2.8109,2.8109,2.7971,2.7419,2.7027,2.7002,2.6864,2.6763,2.6738,2.66,2.6499,2.6487,2.6487,2.6487,2.6487,2.6487,2.6487,2.6487,2.6487,2.6487,2.6487,2.6487,2.6487,2.6487,2.6487,2.6487,2.6487,2.6487,2.6487,2.6487,2.6487,2.6487,2.6487,2.6487,2.6487,2.6487,2.6487,2.6487,2.6487,2.6487,2.6487,2.6487,2.6424,2.6255,2.6283,2.6368,2.6045,3.6417,3.6417,3.6417,3.6417,3.6405,3.6355,3.6031,3.5596,3.5445,3.4843,3.4161,3.3897,3.3571,3.3237,3.3162,3.3124,3.3124,3.3124,3.3124,3.3124,3.3124,3.3124,3.3111,3.3061,3.298,3.2968,3.2478,3.1964,3.1562,3.1461,3.1399,3.1298,3.0871,3.062,3.062,3.0143,2.9842,2.9842,2.9829,2.9792,2.9779,2.9779,2.9779,2.9779,2.9779,2.9767,2.9741,2.9741,2.9691,2.9641,2.9202,2.865,2.8323,2.826,2.8185,2.826,2.8197,2.8172,2.8197,2.8247,2.8298,2.8298,2.821,2.831,2.8348,2.831,2.8298,2.8323,2.8298,2.8222,2.826,2.8172,2.8059,2.8021,2.7557,2.7329,2.7241,2.6864,2.6524,2.6612,2.6625,2.6524,2.6512,2.6512,2.6499,2.6487,2.6487,2.6487,2.6487,2.6487,2.6487,2.6487,2.6487,2.6487,2.6487,2.6487,2.6487,2.6487,2.6487,2.6487,2.6487,2.6487,2.6487,2.6487,2.6487,2.6487,2.6487,2.6487,2.6487,2.6487,2.6487,2.6487,2.6487,2.6487,2.6487,3.6417,3.6417,3.6417,3.6417,3.6417,3.6417,3.6304,3.6069,3.5683,3.5307,3.4881,3.4236,3.3796,3.3571,3.3269,3.3124,3.3124,3.3124,3.3124,3.3124,3.3124,3.3124,3.3124,3.3124,3.3124,3.3099,3.2918,3.2729,3.2491,3.2139,3.1951,3.1851,3.1411,3.1173,3.1135,3.0633,3.0357,3.0319,2.998,2.9779,2.9779,2.9792,2.9779,2.9779,2.9779,2.9779,2.9779,2.9779,2.9779,2.9779,2.9628,2.944,2.9289,2.9264,2.9277,2.9264,2.9264,2.9264,2.9264,2.9277,2.9265,2.929,2.929,2.9264,2.9264,2.9239,2.9227,2.9227,2.9264,2.9264,2.9277,2.9277,2.8925,2.8197,2.7959,2.7833,2.7783,2.7657,2.7607,2.7544,2.7304,2.709,2.6989,2.6826,2.6587,2.6537,2.6524,2.6524,2.6499,2.6487,2.6487,2.6487,2.6487,2.6487,2.6487,2.6487,2.6487,2.6487,2.6487,2.6487,2.6487,2.6487,2.6487,2.6487,2.6487,2.6487,2.6487,2.6487,2.6487,2.6487,2.6487,2.6487,2.6487,2.6487,2.6487,3.6417,3.6417,3.6417,3.6417,3.6417,3.6417,3.6417,3.6367,3.6006,3.5683,3.5357,3.4826,3.4261,3.3897,3.352,3.3269,3.3149,3.3124,3.3124,3.3124,3.3124,3.3124,3.3124,3.3124,3.3124,3.3124,3.3124,3.3124,3.3099,3.2729,3.2528,3.2441,3.1976,3.17,3.165,3.1185,3.0896,3.0821,3.0382,3.0105,3.0055,2.9892,2.9779,2.9779,2.9779,2.9779,2.9779,2.9779,2.9779,2.9779,2.9779,2.9779,2.9779,2.9767,2.9779,2.9779,2.9779,2.9767,2.9818,3.0075,3.0317,3.0317,3.0305,3.0292,3.0279,3.0113,2.9779,2.9779,2.9754,2.9779,2.9767,2.9779,2.9428,2.885,2.8549,2.8335,2.8197,2.8109,2.8097,2.7984,2.7783,2.762,2.7482,2.7356,2.6967,2.6876,2.6801,2.665,2.6587,2.6487,2.6499,2.6512,2.6487,2.6487,2.6487,2.6487,2.6487,2.6487,2.6487,2.6487,2.6487,2.6487,2.6487,2.6487,2.6487,2.6487,2.6487,2.6487,2.6487,2.6487,2.6487,2.6487,2.6487,2.6487,2.6487,3.6417,3.6417,3.6417,3.6417,3.6417,3.6417,3.6417,3.6405,3.638,3.6056,3.5621,3.542,3.4868,3.4135,3.3872,3.3545,3.3199,3.3124,3.3124,3.3124,3.3124,3.3124,3.3124,3.3124,3.3124,3.3124,3.3124,3.3124,3.3124,3.3061,3.3068,3.2986,3.2516,3.2265,3.2164,3.1725,3.1436,3.1373,3.0922,3.0658,3.0633,3.0143,2.988,2.988,2.9817,2.9856,2.9998,3.0177,3.0037,2.9818,2.9779,2.9856,2.9895,2.9856,2.996,2.9998,2.9882,2.9856,3.0037,3.0595,3.1082,3.1031,3.118,3.1278,3.1193,3.0558,3.0062,3.0024,2.9895,2.9779,2.9779,2.9779,2.9729,2.9716,2.9239,2.8812,2.8323,2.8298,2.8398,2.8335,2.821,2.816,2.8134,2.8059,2.7758,2.7482,2.7354,2.7165,2.6901,2.6813,2.6612,2.6587,2.6625,2.6487,2.6487,2.6487,2.6487,2.6487,2.6487,2.6487,2.6487,2.6487,2.6487,2.6487,2.6487,2.6487,2.6487,2.6487,2.6487,2.6487,2.6487,2.6487,2.6487,2.6487,2.6487,3.6417,3.6417,3.6417,3.6417,3.6417,3.6417,3.6417,3.6417,3.6417,3.6317,3.6081,3.5671,3.5144,3.4512,3.4085,3.3596,3.3262,3.3124,3.3124,3.3124,3.3124,3.3124,3.3124,3.3124,3.3124,3.3124,3.3124,3.3124,3.3124,3.3124,3.3124,3.3068,3.2918,3.2817,3.2754,3.2265,3.2014,3.1913,3.1461,3.1185,3.111,3.067,3.0394,3.0357,3.0057,3.0203,3.0796,3.1513,3.1132,2.9895,2.9779,3.0139,3.0733,3.0796,3.0758,3.0833,3.0796,3.0482,3.0139,3.0758,3.1217,3.1278,3.1888,3.22,3.22,3.1365,3.0895,3.0683,3.0266,2.9856,2.9818,2.9818,2.9818,2.9779,2.9603,2.9453,2.9315,2.934,2.9352,2.9315,2.8963,2.8725,2.8649,2.8423,2.8122,2.7959,2.7871,2.7795,2.7482,2.7218,2.7102,2.6939,2.6876,2.6625,2.6487,2.6487,2.6487,2.6487,2.6487,2.6487,2.6487,2.6487,2.6487,2.6487,2.6487,2.6487,2.6487,2.6487,2.6487,2.6487,2.6487,2.6487,2.6487,2.6487,2.6487,3.6417,3.6417,3.6417,3.6417,3.6417,3.6417,3.6417,3.6417,3.6417,3.6417,3.6329,3.6044,3.5579,3.4994,3.45,3.3935,3.3488,3.3224,3.3124,3.3124,3.3124,3.3124,3.3124,3.3124,3.3124,3.3124,3.3124,3.3124,3.3124,3.3124,3.3124,3.3124,3.3124,3.3124,3.3074,3.278,3.2566,3.2478,3.2039,3.1738,3.1687,3.121,3.0984,3.0954,3.0775,3.1082,3.1773,3.2307,3.2033,3.1132,3.0709,3.0796,3.1609,3.1389,3.1389,3.1719,3.1779,3.1402,3.0884,3.1586,3.2141,3.2069,3.2642,3.3101,3.3017,3.2343,3.1779,3.1706,3.123,3.102,3.0921,3.0633,3.0254,2.9895,2.9779,2.9779,2.9779,2.9741,2.9779,2.9704,2.9515,2.9251,2.9251,2.8976,2.8725,2.8536,2.8411,2.8285,2.8047,2.7808,2.762,2.7494,2.7289,2.7072,2.6845,2.6782,2.6559,2.6533,2.6487,2.6487,2.6487,2.6487,2.6487,2.6487,2.6487,2.6487,2.6487,2.6487,2.6487,2.6487,2.6487,2.6487,2.6487,2.6487,2.6487,3.6417,3.6417,3.6417,3.6417,3.6417,3.6417,3.6417,3.6417,3.6417,3.6417,3.6392,3.6405,3.5968,3.547,3.4818,3.4387,3.3847,3.3307,3.3162,3.3124,3.3124,3.3124,3.3124,3.3124,3.3124,3.3124,3.3124,3.3124,3.3124,3.3124,3.3124,3.3124,3.3124,3.3124,3.3111,3.3074,3.3111,3.2943,3.2554,3.2328,3.2202,3.1788,3.1609,3.1941,3.2511,3.2722,3.3063,3.3275,3.3212,3.3051,3.1965,3.1888,3.2486,3.1924,3.196,3.2571,3.27,3.2307,3.1779,3.282,3.3567,3.3066,3.3602,3.4143,3.4007,3.331,3.2749,3.2735,3.2678,3.2357,3.2249,3.1756,3.1007,3.0343,3.0024,2.9934,2.9792,2.9779,2.9779,2.9779,2.9779,2.9779,2.9779,2.9741,2.9578,2.9101,2.9013,2.8913,2.8662,2.8398,2.826,2.8172,2.7893,2.7607,2.7331,2.7104,2.6804,2.6593,2.6533,2.6487,2.6487,2.6487,2.6487,2.6487,2.6487,2.6487,2.6487,2.6487,2.6487,2.6487,2.6487,2.6487,2.6487,2.6487,2.6487,3.6417,3.6417,3.6417,3.6417,3.6417,3.6417,3.6417,3.6417,3.6417,3.6417,3.6417,3.6417,3.6056,3.5483,3.4981,3.4412,3.3909,3.337,3.3124,3.3124,3.3124,3.3124,3.3124,3.3124,3.3124,3.3124,3.3124,3.3124,3.3124,3.3124,3.3124,3.3124,3.3124,3.3124,3.3124,3.3197,3.3124,3.3099,3.3003,3.3055,3.2971,3.2554,3.2595,3.3289,3.44,3.5079,3.5397,3.5983,3.6124,3.5283,3.3768,3.298,3.3478,3.3415,3.3415,3.3602,3.3671,3.3276,3.2735,3.3325,3.3925,3.3774,3.4442,3.518,3.51,3.4245,3.3788,3.3567,3.3052,3.2806,3.2664,3.2451,3.1852,3.118,3.0871,3.0633,3.0037,2.9818,2.9779,2.9779,2.9779,2.9779,2.9779,2.9779,2.9691,2.9603,2.9591,2.9528,2.934,2.9088,2.9062,2.9059,2.8846,2.8615,2.8318,2.7998,2.7597,2.7212,2.7007,2.6533,2.6533,2.6645,2.6714,2.6611,2.6487,2.6487,2.6487,2.6487,2.6487,2.6487,2.6487,2.6487,2.6487,2.6487,2.6487,3.6417,3.6417,3.6417,3.6417,3.6417,3.6417,3.6417,3.6417,3.6417,3.6417,3.6417,3.6417,3.6182,3.5893,3.5353,3.4768,3.4186,3.3432,3.3124,3.3124,3.3124,3.3124,3.3124,3.3124,3.3124,3.3124,3.3124,3.3124,3.3124,3.3124,3.3124,3.3124,3.3124,3.3124,3.324,3.3586,3.3869,3.4024,3.4332,3.4568,3.4489,3.4278,3.4353,3.5109,3.596,3.6425,3.6652,3.705,3.7142,3.6658,3.5609,3.4707,3.453,3.4293,3.4259,3.461,3.4691,3.4211,3.3754,3.4075,3.4509,3.4075,3.4953,3.5344,3.5424,3.4953,3.4773,3.4624,3.4259,3.3837,3.3345,3.3241,3.2798,3.2105,3.1865,3.1623,3.1095,3.0355,2.9779,2.9779,2.9779,2.9779,2.9779,2.9921,2.9844,2.9794,3.0417,3.0428,3.0479,3.0269,3.0182,3.0112,2.9951,2.9709,2.9389,2.8976,2.8529,2.816,2.785,2.7161,2.664,2.6807,2.696,2.6748,2.6487,2.6487,2.6487,2.6487,2.6487,2.6521,2.6521,2.6487,2.6521,2.6589,2.6555,3.6417,3.6417,3.6417,3.6417,3.6417,3.6417,3.6417,3.6417,3.6417,3.6417,3.6417,3.6417,3.638,3.6267,3.5708,3.5157,3.4449,3.3759,3.3269,3.3124,3.3124,3.3124,3.3124,3.3124,3.3124,3.3124,3.3124,3.3124,3.3124,3.3124,3.3124,3.3167,3.3356,3.3513,3.3641,3.4387,3.4938,3.5007,3.5547,3.5894,3.5934,3.5919,3.6167,3.6703,3.7221,3.7469,3.7708,3.7849,3.7734,3.7569,3.7554,3.6911,3.5933,3.5152,3.482,3.5768,3.5806,3.5488,3.5069,3.5314,3.5466,3.4588,3.5278,3.5768,3.5845,3.5887,3.5836,3.5824,3.564,3.541,3.4651,3.4694,3.4188,3.3438,3.3105,3.2909,3.2467,3.1211,3.0608,3.0432,3.0671,3.0733,3.0381,3.0241,3.0101,3.0139,3.0796,3.1315,3.1389,3.1412,3.1282,3.1499,3.1455,3.1349,3.1046,3.0321,2.9824,2.9334,2.8932,2.8221,2.7386,2.7193,2.7289,2.6714,2.6487,2.6521,2.6521,2.6487,2.6487,2.6533,2.6589,2.6589,2.6611,2.6679,2.6748,3.6417,3.6417,3.6417,3.6417,3.6417,3.6417,3.6417,3.6417,3.6417,3.6417,3.6417,3.6417,3.6417,3.6232,3.5746,3.4969,3.4286,3.3784,3.3458,3.3187,3.3124,3.3124,3.3124,3.3124,3.3124,3.3124,3.3124,3.3124,3.3124,3.3124,3.3124,3.327,3.394,3.4304,3.4581,3.54,3.5948,3.5987,3.6369,3.6512,3.6551,3.659,3.6873,3.7682,3.8289,3.8712,3.8907,3.9005,3.8841,3.8317,3.8242,3.7808,3.7251,3.6871,3.6826,3.6843,3.6896,3.6652,3.6565,3.6786,3.6977,3.6905,3.6854,3.6952,3.7,3.7,3.6851,3.6911,3.6907,3.6899,3.6871,3.6477,3.627,3.558,3.4867,3.4349,3.3595,3.2918,3.2345,3.2427,3.2246,3.1756,3.1304,3.0983,3.0983,3.1082,3.1536,3.2055,3.2343,3.2343,3.2316,3.2658,3.3038,3.2973,3.2854,3.1977,3.1282,3.075,3.0306,2.9857,2.9012,2.8093,2.7616,2.7262,2.6837,2.6692,2.6658,2.6611,2.6973,2.733,2.7095,2.6782,2.7162,2.7537,2.7504,3.6417,3.6417,3.6417,3.6417,3.6417,3.6417,3.6417,3.6417,3.6417,3.6417,3.6417,3.6417,3.6417,3.6342,3.6132,3.5353,3.4512,3.3985,3.3596,3.3224,3.3124,3.3124,3.3167,3.3124,3.3124,3.3124,3.3124,3.3167,3.3124,3.3124,3.321,3.3368,3.415,3.4705,3.5102,3.6239,3.6905,3.7098,3.7482,3.78,3.78,3.7814,3.8167,3.862,3.9017,3.9352,3.9388,3.9388,3.9275,3.899,3.8916,3.8736,3.8491,3.8312,3.8108,3.7599,3.7464,3.7434,3.7419,3.7404,3.7325,3.734,3.7434,3.7404,3.7404,3.736,3.7479,3.7434,3.7404,3.7404,3.731,3.7449,3.7134,3.6832,3.6408,3.6018,3.5607,3.522,3.4942,3.4517,3.3437,3.2679,3.2105,3.1924,3.1924,3.2092,3.2343,3.277,3.3241,3.331,3.331,3.3484,3.3876,3.4004,3.3904,3.3384,3.2741,3.225,3.1749,3.1293,3.0667,2.9766,2.8825,2.8061,2.766,2.7447,2.7142,2.7263,2.7703,2.8065,2.7703,2.7584,2.8084,2.8376,2.8363,3.6417,3.6417,3.6417,3.6417,3.6417,3.6417,3.6417,3.6417,3.6417,3.6417,3.6417,3.6417,3.6417,3.6405,3.6292,3.5793,3.4864,3.4336,3.3809,3.3345,3.3174,3.3154,3.3441,3.3484,3.3683,3.4108,3.3641,3.3428,3.3556,3.3556,3.3598,3.422,3.4856,3.5346,3.5842,3.7319,3.7919,3.8383,3.8855,3.9388,3.9388,3.9388,3.9388,3.9388,3.9388,3.9388,3.9388,3.9388,3.9388,3.9328,3.9328,3.9343,3.9373,3.9388,3.888,3.7998,3.7823,3.7808,3.7853,3.7898,3.8018,3.8033,3.7883,3.7853,3.7883,3.8033,3.7928,3.7808,3.7868,3.7943,3.8018,3.7883,3.7849,3.7819,3.7709,3.75,3.7352,3.7035,3.6759,3.5926,3.4531,3.3818,3.3465,3.319,3.3246,3.2939,3.3171,3.3685,3.4109,3.4293,3.4327,3.4327,3.4509,3.4806,3.4787,3.4596,3.4108,3.374,3.3303,3.2843,3.2213,3.1475,3.047,2.9556,2.9108,2.8877,2.8421,2.8045,2.8473,2.8634,2.8312,2.8441,2.9002,2.9254,2.9254,3.6417,3.6417,3.6417,3.6417,3.6417,3.6417,3.6417,3.6417,3.6417,3.6417,3.6417,3.6417,3.6417,3.6417,3.6417,3.5994,3.5416,3.4831,3.4324,3.3822,3.3543,3.3773,3.4384,3.4511,3.4884,3.5197,3.4774,3.454,3.454,3.4553,3.4938,3.5628,3.6476,3.7357,3.7165,3.8271,3.9177,3.9213,3.9301,3.9388,3.9388,3.9388,3.9388,3.9388,3.9388,3.9388,3.9388,3.9388,3.9388,3.9388,3.9388,3.9388,3.9388,3.9388,3.9394,3.9194,3.9149,3.9134,3.9014,3.8925,3.8945,3.8865,3.897,3.9104,3.8975,3.8945,3.8925,3.9149,3.9059,3.899,3.8931,3.9044,3.9104,3.8886,3.8527,3.8347,3.8242,3.8123,3.7928,3.7724,3.6453,3.5691,3.5171,3.4836,3.4536,3.4177,3.4041,3.4601,3.4902,3.4997,3.5019,3.4953,3.4905,3.5166,3.5213,3.51,3.5026,3.4866,3.4552,3.4132,3.36,3.2931,3.2263,3.145,3.0935,3.0097,2.9287,2.909,2.9366,2.9393,2.9254,2.9535,2.9981,3.0103,3.0103,3.6417,3.6417,3.6417,3.6417,3.6417,3.6417,3.6417,3.6417,3.6417,3.6417,3.6417,3.6417,3.6417,3.6499,3.6417,3.6056,3.5533,3.5311,3.4889,3.4591,3.4451,3.4715,3.5114,3.5412,3.5894,3.6053,3.5894,3.6067,3.5922,3.5373,3.521,3.629,3.7214,3.7715,3.7994,3.887,3.9265,3.9388,3.9388,3.9388,3.9388,3.9388,3.9388,3.9388,3.9388,3.9388,3.9388,3.9388,3.9388,3.9388,3.9388,3.9388,3.9388,3.9388,3.9373,3.9373,3.9358,3.9358,3.9358,3.9388,3.9388,3.9388,3.9388,3.9328,3.9388,3.9388,3.9388,3.9373,3.9373,3.9388,3.9388,3.9388,3.9388,3.9254,3.9065,3.902,3.8871,3.8811,3.8691,3.8601,3.8417,3.7529,3.6761,3.6476,3.6107,3.5761,3.5473,3.5606,3.5677,3.5487,3.5463,3.5377,3.5344,3.5424,3.5424,3.5359,3.5311,3.5192,3.5225,3.4894,3.4807,3.4256,3.3522,3.3013,3.2494,3.1521,3.0354,3.0006,3.0183,3.0266,3.0299,3.0494,3.0644,3.0866,3.0896,3.6417,3.6417,3.6417,3.6417,3.6417,3.6417,3.6417,3.6417,3.6417,3.6417,3.6499,3.6722,3.6977,3.7243,3.7356,3.7116,3.6238,3.6288,3.5916,3.5742,3.5847,3.6243,3.6539,3.6759,3.6943,3.693,3.6774,3.7175,3.7319,3.6763,3.62,3.6968,3.7979,3.8271,3.842,3.8943,3.9388,3.9388,3.9388,3.9388,3.9388,3.9388,3.9388,3.9388,3.9388,3.9388,3.9388,3.9388,3.9388,3.9388,3.9388,3.9388,3.9388,3.9388,3.9388,3.9388,3.9388,3.9388,3.9388,3.9388,3.9388,3.9388,3.9388,3.9388,3.9388,3.9388,3.9388,3.9388,3.9388,3.9388,3.9388,3.9388,3.9388,3.9388,3.9328,3.9373,3.9358,3.9164,3.9074,3.9014,3.896,3.896,3.835,3.8077,3.7754,3.7351,3.709,3.6791,3.6447,3.6103,3.5953,3.5863,3.5579,3.5564,3.5519,3.5519,3.5504,3.5489,3.5489,3.5444,3.5218,3.5051,3.4513,3.4125,3.3769,3.3267,3.2315,3.1602,3.0967,3.113,3.1234,3.1087,3.1175,3.1409,3.1467,3.6417,3.6417,3.6417,3.6417,3.6417,3.6417,3.6417,3.6417,3.6417,3.6452,3.6722,3.7461,3.8424,3.9227,3.9139,3.8742,3.7898,3.8475,3.795,3.7551,3.7694,3.8114,3.8328,3.8464,3.8658,3.8767,3.8173,3.8308,3.8745,3.8032,3.8196,3.9068,3.8907,3.9141,3.9228,3.9265,3.9388,3.9388,3.9388,3.9388,3.9388,3.9388,3.9388,3.9388,3.9388,3.9388,3.9388,3.9388,3.9388,3.9388,3.9388,3.9388,3.9388,3.9388,3.9388,3.9388,3.9388,3.9388,3.9388,3.9388,3.9388,3.9388,3.9388,3.9388,3.9388,3.9388,3.9388,3.9388,3.9388,3.9388,3.9388,3.9388,3.9388,3.9388,3.9388,3.9388,3.9388,3.9373,3.9298,3.9358,3.9328,3.9275,3.9245,3.879,3.8527,3.8108,3.7644,3.733,3.703,3.6716,3.6537,3.6312,3.5833,3.5654,3.5579,3.5549,3.5504,3.5489,3.5489,3.5489,3.5444,3.5245,3.5078,3.4989,3.4614,3.4467,3.4168,3.3164,3.242,3.2229,3.2064,3.1692,3.141,3.1438,3.1496,3.6417,3.6417,3.6417,3.6417,3.6417,3.6417,3.6417,3.6417,3.6405,3.6849,3.7448,3.7926,3.8783,3.9667,3.9899,3.9681,3.9244,3.9417,3.9237,3.9247,3.9424,3.9731,3.9892,3.987,3.9832,3.9801,3.9195,3.887,3.9228,3.887,3.8995,3.9316,3.9388,3.9388,3.9388,3.9388,3.9388,3.9388,3.9388,3.9388,3.9388,3.9388,3.9388,3.9388,3.9388,3.9388,3.9388,3.9388,3.9388,3.9388,3.9388,3.9388,3.9388,3.9388,3.9388,3.9388,3.9388,3.9388,3.9388,3.9388,3.9388,3.9388,3.9388,3.9388,3.9388,3.9388,3.9388,3.9388,3.9388,3.9388,3.9388,3.9388,3.9388,3.9388,3.9388,3.9388,3.9388,3.9388,3.9388,3.9388,3.9388,3.9343,3.9358,3.9328,3.9059,3.8796,3.8317,3.7898,3.7644,3.7345,3.715,3.6896,3.6447,3.6088,3.5998,3.5789,3.5534,3.5489,3.5489,3.5489,3.5489,3.5474,3.5337,3.537,3.534,3.5068,3.4694,3.4218,3.3709,3.3185,3.2602,3.2034,3.1795,3.1585,3.154,3.7116,3.7381,3.707,3.6722,3.6405,3.6417,3.6417,3.6417,3.6417,3.7289,3.8635,3.8992,3.9814,4.0661,4.0972,4.0675,4.0661,4.076,4.0689,4.0774,4.0976,4.1233,4.1169,4.0991,4.0801,4.0457,4.0023,3.9709,3.9388,3.9388,3.9388,3.9388,3.9388,3.9388,3.9388,3.9388,3.9388,3.9388,3.9388,3.9388,3.9388,3.9388,3.9388,3.9388,3.9388,3.9388,3.9388,3.9388,3.9388,3.9388,3.9388,3.9388,3.9388,3.9388,3.9388,3.9388,3.9388,3.9388,3.9388,3.9388,3.9388,3.9388,3.9388,3.9388,3.9388,3.9388,3.9388,3.9388,3.9388,3.9388,3.9388,3.9388,3.9388,3.9388,3.9388,3.9388,3.9388,3.9388,3.9388,3.9388,3.9388,3.9388,3.9388,3.9388,3.9298,3.9104,3.896,3.8616,3.8422,3.8108,3.7764,3.7494,3.7135,3.6791,3.6525,3.6237,3.5938,3.5489,3.5489,3.5489,3.5489,3.5489,3.5489,3.5444,3.5444,3.5489,3.5235,3.4801,3.4352,3.3888,3.3275,3.2647,3.2168,3.1974,3.172,3.8693,3.9623,3.8514,3.7461,3.6675,3.6452,3.6487,3.6628,3.6722,3.7906,3.9842,4.0817,4.185,4.2684,4.2699,4.2249,4.185,4.2426,4.2467,4.193,4.2294,4.2629,4.2419,4.2087,4.1557,4.0651,4.0247,3.9933,3.9478,3.9403,3.9403,3.9388,3.9388,3.9388,3.9388,3.9388,3.9388,3.9388,3.9388,3.9388,3.9388,3.9388,3.9388,3.9388,3.9388,3.9388,3.9388,3.9388,3.9388,3.9388,3.9388,3.9388,3.9388,3.9388,3.9388,3.9388,3.9388,3.9388,3.9388,3.9388,3.9388,3.9388,3.9388,3.9388,3.9388,3.9388,3.9388,3.9388,3.9388,3.9388,3.9388,3.9388,3.9388,3.9388,3.9388,3.9388,3.9388,3.9388,3.9388,3.9388,3.9388,3.9388,3.9388,3.9388,3.9388,3.9343,3.9373,3.9239,3.9035,3.8811,3.8437,3.8167,3.7838,3.7464,3.712,3.6716,3.6327,3.5818,3.5564,3.5639,3.5564,3.5489,3.5489,3.5504,3.5489,3.5489,3.5489,3.5429,3.4951,3.4472,3.3903,3.332,3.2826,3.2437,3.2213,3.9536,3.9855,3.9448,3.9064,3.8617,3.7861,3.754,3.7678,3.8379,3.961,4.0831,4.1504,4.2234,4.2981,4.3305,4.3036,4.29,4.29,4.286,4.286,4.317,4.3145,4.294,4.259,4.2156,4.1602,4.101,4.0412,4.0098,3.9738,3.9433,3.9388,3.9388,3.9388,3.9388,3.9388,3.9388,3.9388,3.9388,3.9388,3.9388,3.9388,3.9388,3.9388,3.9388,3.9388,3.9388,3.9388,3.9388,3.9388,3.9388,3.9388,3.9388,3.9388,3.9388,3.9388,3.9388,3.9388,3.9388,3.9388,3.9388,3.9388,3.9388,3.9388,3.9388,3.9388,3.9388,3.9388,3.9388,3.9388,3.9388,3.9388,3.9388,3.9388,3.9388,3.9388,3.9388,3.9388,3.9388,3.9388,3.9388,3.9388,3.9388,3.9388,3.9388,3.9388,3.9388,3.9388,3.9209,3.9224,3.9029,3.8856,3.8556,3.8167,3.7764,3.7345,3.6866,3.6342,3.6073,3.5983,3.5848,3.5669,3.5519,3.5534,3.5519,3.5489,3.5489,3.5489,3.5415,3.504,3.4487,3.3933,3.3395,3.3066,3.2886,4.0703,4.1014,4.0661,4.049,4.0318,3.9227,3.8738,3.8961,3.9972,4.0916,4.1545,4.1988,4.2548,4.3155,4.3305,4.3305,4.3305,4.3305,4.3305,4.3305,4.3305,4.326,4.311,4.291,4.2551,4.2231,4.1647,4.0965,4.0367,3.9978,3.9642,3.9448,3.9388,3.9388,3.9388,3.9388,3.9388,3.9388,3.9388,3.9388,3.9388,3.9388,3.9388,3.9388,3.9388,3.9388,3.9388,3.9388,3.9388,3.9388,3.9388,3.9388,3.9388,3.9388,3.9388,3.9388,3.9388,3.9388,3.9388,3.9388,3.9388,3.9388,3.9388,3.9388,3.9388,3.9388,3.9388,3.9388,3.9388,3.9388,3.9388,3.9388,3.9388,3.9388,3.9388,3.9388,3.9388,3.9388,3.9388,3.9388,3.9388,3.9388,3.9388,3.9388,3.9388,3.9388,3.9388,3.9388,3.9388,3.9388,3.9388,3.9209,3.9035,3.8661,3.8302,3.7973,3.7449,3.6896,3.6686,3.6567,3.6207,3.6028,3.5789,3.5564,3.5534,3.5504,3.5504,3.5474,3.5444,3.537,3.5115,3.4547,3.3963,3.3739,3.3589,4.229,4.3061,4.2111,4.1629,4.1476,4.0532,4.0073,4.0159,4.1155,4.167,4.1753,4.2805,4.321,4.325,4.3305,4.3305,4.3305,4.3305,4.3305,4.3305,4.3305,4.3305,4.3305,4.32,4.2925,4.262,4.2156,4.1527,4.0606,4.0277,3.9948,3.9508,3.9388,3.9388,3.9388,3.9388,3.9388,3.9388,3.9388,3.9388,3.9388,3.9388,3.9388,3.9388,3.9388,3.9388,3.9388,3.9388,3.9388,3.9388,3.9388,3.9388,3.9388,3.9388,3.9388,3.9388,3.9388,3.9388,3.9388,3.9388,3.9559,3.9604,3.9538,3.9463,3.9388,3.9388,3.9388,3.9388,3.9388,3.9388,3.9388,3.9388,3.9388,3.9388,3.9388,3.9388,3.9388,3.9388,3.9388,3.9388,3.9388,3.9388,3.9388,3.9388,3.9388,3.9388,3.9388,3.9388,3.9388,3.9388,3.9388,3.9373,3.923,3.9065,3.8766,3.8512,3.8108,3.7569,3.7434,3.727,3.6851,3.6435,3.6133,3.5878,3.5624,3.5519,3.5504,3.5489,3.5489,3.54,3.5325,3.5145,3.4562,3.4502,3.4337,4.2996,4.3235,4.2955,4.2805,4.278,4.2426,4.2304,4.2386,4.271,4.2805,4.2845,4.3115,4.3305,4.3305,4.3305,4.3305,4.3305,4.3305,4.3305,4.3305,4.3305,4.3305,4.3305,4.329,4.314,4.2955,4.2581,4.2216,4.1662,4.104,4.0068,3.9514,3.9418,3.9403,3.9388,3.9388,3.9388,3.9388,3.9388,3.9388,3.9388,3.9388,3.9388,3.9388,3.9388,3.9388,3.9388,3.9388,3.9388,3.9388,3.9403,3.9403,3.9388,3.9388,3.9388,3.9388,3.9388,3.9388,3.9388,3.9403,3.9649,4.0038,4.0113,3.9783,3.9604,3.9508,3.9538,3.9642,3.9672,3.9783,3.9798,3.9768,3.9768,3.9783,3.9783,3.9768,3.9783,3.9783,3.9768,3.9568,3.9568,3.9478,3.9463,3.9388,3.9388,3.9388,3.9388,3.9388,3.9388,3.9388,3.9388,3.9388,3.9358,3.923,3.926,3.9065,3.8676,3.8302,3.8167,3.7883,3.736,3.6911,3.6522,3.6193,3.5908,3.5669,3.5504,3.5489,3.5489,3.5489,3.5429,3.537,3.5265,3.51,3.4921,4.3305,4.3305,4.3305,4.3305,4.3305,4.3305,4.3305,4.3305,4.3305,4.3305,4.3305,4.3305,4.3305,4.3305,4.3305,4.3305,4.3305,4.3305,4.3305,4.3305,4.3305,4.3305,4.3305,4.3305,4.3275,4.311,4.2955,4.2611,4.2171,4.1145,4.0113,3.9873,3.9634,3.9418,3.9388,3.9388,3.9388,3.9388,3.9388,3.9388,3.9388,3.9388,3.9388,3.9388,3.9388,3.9418,3.9418,3.9433,3.9433,3.9493,3.9574,3.9813,3.9918,4.0038,4.0217,4.0292,4.0307,4.0322,4.0337,4.0292,4.0472,4.0651,4.0786,4.0606,4.0442,4.0382,4.0367,4.0382,4.0307,4.0262,4.0232,4.0217,4.0232,4.0247,4.0232,4.0232,4.0247,4.0262,4.0113,3.9903,3.9783,3.9679,3.9553,3.9478,3.9388,3.9388,3.9388,3.9388,3.9388,3.9388,3.9388,3.9388,3.9388,3.9343,3.9388,3.9388,3.9089,3.8856,3.8856,3.8497,3.7913,3.7509,3.7195,3.6701,3.6178,3.5938,3.5699,3.5534,3.5489,3.5489,3.5489,3.5444,3.5415,3.537,3.519,4.3305,4.3305,4.3305,4.3305,4.3305,4.3305,4.3305,4.3305,4.3305,4.3305,4.3305,4.3305,4.3305,4.3305,4.3305,4.3305,4.3305,4.3305,4.3305,4.3305,4.3305,4.3305,4.3305,4.3305,4.3305,4.3305,4.3155,4.2865,4.2216,4.1437,4.0816,4.0457,3.9873,3.9612,3.9664,3.9433,3.9403,3.9388,3.9388,3.9388,3.9388,3.9388,3.9388,3.9439,3.9463,3.9523,3.9523,3.9559,3.9574,3.9813,4.0068,4.0457,4.0651,4.0876,4.113,4.1205,4.1123,4.107,4.104,4.104,4.1235,4.1407,4.1497,4.1557,4.1474,4.107,4.0935,4.092,4.0861,4.0846,4.0846,4.0846,4.0846,4.0846,4.0846,4.0846,4.0846,4.0831,4.0726,4.0546,4.0457,4.0322,4.0127,4.0068,3.9828,3.9634,3.9388,3.9388,3.9418,3.9418,3.9403,3.9403,3.9388,3.9388,3.9388,3.9388,3.9388,3.9298,3.9305,3.914,3.8571,3.8197,3.7898,3.7285,3.6626,3.6222,3.5953,3.5863,3.5714,3.5489,3.5489,3.5489,3.5489,3.5522,3.5429,4.3305,4.3305,4.3305,4.3305,4.3305,4.3305,4.3305,4.3305,4.3305,4.3305,4.3305,4.3305,4.3305,4.3305,4.3305,4.3305,4.3305,4.3305,4.3305,4.3305,4.3305,4.3305,4.3305,4.3305,4.3305,4.3305,4.32,4.303,4.2462,4.2006,4.1602,4.1153,4.0502,4.0172,4.0127,3.9858,3.9634,3.9642,3.9664,3.9649,3.9597,3.9463,3.9388,3.9604,3.9768,4.0127,4.0277,4.0606,4.0771,4.0995,4.104,4.1145,4.116,4.1377,4.1437,4.1437,4.1534,4.1579,4.1594,4.1654,4.1788,4.2066,4.2231,4.2491,4.2387,4.1773,4.1482,4.1497,4.1512,4.1527,4.1542,4.1542,4.1542,4.1542,4.1542,4.1542,4.1542,4.1482,4.1384,4.1302,4.1197,4.098,4.0771,4.0531,4.0277,3.9963,3.9589,3.9454,3.9478,3.9493,3.9448,3.9433,3.9388,3.9388,3.9388,3.9388,3.9388,3.9388,3.9343,3.9224,3.9125,3.8751,3.8317,3.7704,3.712,3.6776,3.6522,3.6357,3.6163,3.5818,3.5657,3.5734,3.5649,3.5668,3.5587,4.3305,4.3305,4.3305,4.3305,4.3305,4.3305,4.3305,4.3305,4.3305,4.3305,4.3305,4.3305,4.3305,4.3305,4.3305,4.3305,4.3305,4.3305,4.3305,4.3305,4.3305,4.3305,4.3305,4.3305,4.3305,4.3305,4.3275,4.3105,4.2761,4.2425,4.2051,4.1767,4.1205,4.0816,4.0771,4.0442,4.0232,4.0337,4.0217,4.0217,4.0157,4.0038,3.9888,4.0053,4.0397,4.0741,4.092,4.122,4.128,4.1542,4.1662,4.2073,4.2177,4.2342,4.2312,4.2312,4.2327,4.2252,4.2207,4.2222,4.2342,4.2611,4.2776,4.3015,4.303,4.2506,4.2462,4.2476,4.2476,4.2491,4.2491,4.2506,4.2491,4.2491,4.2491,4.2491,4.2491,4.2476,4.2207,4.1901,4.1782,4.1587,4.1362,4.1078,4.0846,4.0816,4.0367,3.9993,3.9948,3.9813,3.9709,3.9574,3.9538,3.9433,3.9388,3.9388,3.9388,3.9388,3.9388,3.9328,3.9224,3.905,3.8691,3.8167,3.7749,3.7494,3.724,3.6985,3.6582,3.6222,3.6079,3.6024,3.5959,3.6004,3.6133,4.3305,4.3305,4.3305,4.3305,4.3305,4.3305,4.3305,4.3305,4.3305,4.3305,4.3305,4.3305,4.3305,4.3305,4.3305,4.3305,4.3305,4.3305,4.3305,4.3305,4.3305,4.3305,4.3305,4.3305,4.3305,4.3305,4.329,4.329,4.317,4.2851,4.259,4.2381,4.1991,4.1504,4.1527,4.1407,4.1227,4.113,4.1138,4.1287,4.11,4.0846,4.0621,4.0756,4.1115,4.1459,4.1504,4.1609,4.1624,4.1863,4.2237,4.2611,4.2925,4.2991,4.3035,4.3021,4.2991,4.3021,4.3095,4.3035,4.3125,4.3245,4.3305,4.329,4.3275,4.3245,4.32,4.3185,4.3185,4.3185,4.3185,4.3185,4.3185,4.317,4.3185,4.3185,4.3185,4.3185,4.2865,4.2462,4.2327,4.2132,4.1976,4.1707,4.1542,4.1542,4.1347,4.0995,4.0711,4.0487,4.0322,4.0038,3.9843,3.9709,3.9463,3.9388,3.9388,3.9388,3.9388,3.9388,3.9343,3.9215,3.902,3.8766,3.8392,3.8187,3.7903,3.7584,3.715,3.6817,3.6375,3.6315,3.6608,3.6677,3.6952,4.3305,4.3305,4.3305,4.3305,4.3305,4.3305,4.3305,4.3305,4.3305,4.3305,4.3305,4.3305,4.3305,4.3305,4.3305,4.3305,4.3305,4.3305,4.3305,4.3305,4.3305,4.3305,4.3305,4.3305,4.3305,4.3305,4.3305,4.3305,4.3305,4.3155,4.312,4.303,4.2515,4.2201,4.2126,4.1946,4.1609,4.1639,4.1624,4.1624,4.1534,4.1324,4.125,4.1482,4.1856,4.2096,4.2321,4.2701,4.2841,4.2976,4.2961,4.311,4.3215,4.3305,4.3305,4.3305,4.3305,4.3305,4.3305,4.3305,4.3305,4.3305,4.3305,4.3305,4.329,4.329,4.326,4.326,4.326,4.326,4.326,4.326,4.326,4.326,4.326,4.326,4.326,4.326,4.311,4.303,4.2985,4.2895,4.2851,4.2521,4.2201,4.2111,4.1788,4.1489,4.1347,4.113,4.0965,4.0576,4.0202,3.9813,3.9508,3.9403,3.9388,3.9388,3.946,3.9517,3.9517,3.9424,3.9266,3.9505,3.928,3.8983,3.8647,3.848,3.8,3.7617,3.6832,3.6574,3.7076,3.7495,3.7891]}]]